[[{"header":{"parameterUnit":"m.s-1","parameterCategory":1,"la1":30.6,"la2":28.766,"lo1":-90.7593,"lo2":-88.6598,"dy":0.0162,"dx":0.0183,"nx":116,"ny":114,"refTime":"2023-10-17T12:00:00:Z","depth":0,"parameterNumber":2,"parameterNumberName":"U-component_of_WINDS"},"data":[0.0,0.0,0.0,0.0,0.0,0.0,0.0,0.0,0.0,0.0,0.0,0.0,0.0,0.0,0.0,0.0,0.0,0.0,0.0,0.0,0.0,0.0,0.0,0.0,0.0,0.0,0.0,0.0,0.0,0.0,0.0,0.0,0.0,0.0,0.0,0.0,0.0,0.0,0.0,0.0,0.0,0.0,0.0,0.0,0.0,0.0,0.0,0.0,0.0,0.0,0.0,0.0,0.0,0.0,0.0,0.0,0.0,0.0,0.0,0.0,0.0,0.0,0.0,0.0,0.0,0.0,0.0,0.0,0.0,0.0,0.0,0.0,0.0,0.0,0.0,0.0,0.0,0.0,0.0,0.0,0.0,0.0,0.0,0.0,0.0,0.0,0.0,0.0,0.0,0.0,0.0,0.0,0.0,0.0,0.0,0.0,0.0,0.0,0.0,0.0,0.0,0.0,0.0,0.0,0.0,0.0,0.0,0.0,0.0,0.0,0.0,0.0,0.0,0.0,0.0,0.0,0.0,0.0,0.0,0.0,0.0,0.0,0.0,0.0,0.0,0.0,0.0,0.0,0.0,0.0,0.0,0.0,0.0,0.0,0.0,0.0,0.0,0.0,0.0,0.0,0.0,0.0,0.0,0.0,0.0,0.0,0.0,0.0,0.0,0.0,0.0,0.0,0.0,0.0,0.0,0.0,0.0,0.0,0.0,0.0,0.0,0.0,0.0,0.0,0.0,0.0,0.0,0.0,0.0,0.0,0.0,0.0,0.0,0.0,0.0,0.0,0.0,0.0,0.0,0.0,0.0,0.0,0.0,0.0,0.0,0.0,0.0,0.0,0.0,0.0,0.0,0.0,0.0,0.0,0.0,0.0,0.0,0.0,0.0,0.0,0.0,0.0,0.0,0.0,0.0,0.0,0.0,0.0,0.0,0.0,0.0,0.0,0.0,0.0,0.0,0.0,0.0,0.0,0.0,0.0,0.0,0.0,0.0,0.0,0.0,0.0,0.0,0.0,0.0,0.0,0.0,0.0,0.0,0.0,0.0,0.0,0.0,0.0,0.0,0.0,0.0,0.0,0.0,0.0,0.0,0.0,0.0,0.0,0.0,0.0,0.0,0.0,0.0,0.0,0.0,0.0,0.0,0.0,0.0,0.0,0.0,0.0,0.0,0.0,0.0,0.0,0.0,0.0,0.0,0.0,0.0,0.0,0.0,0.0,0.0,0.0,0.0,0.0,0.0,0.0,0.0,0.0,0.0,0.0,0.0,0.0,0.0,0.0,0.0,0.0,0.0,0.0,0.0,0.0,0.0,0.0,0.0,0.0,0.0,0.0,0.0,0.0,0.0,0.0,0.0,0.0,0.0,0.0,0.0,0.0,0.0,0.0,0.0,0.0,0.0,0.0,0.0,0.0,0.0,0.0,0.0,0.0,0.0,0.0,0.0,0.0,0.0,0.0,0.0,0.0,0.0,0.0,0.0,0.0,0.0,0.0,0.0,0.0,0.0,0.0,0.0,0.0,0.0,0.0,0.0,0.0,0.0,0.0,0.0,0.0,0.0,0.0,0.0,0.0,0.0,0.0,0.0,0.0,0.0,0.0,0.0,0.0,0.0,0.0,0.0,0.0,0.0,0.0,0.0,0.0,0.0,0.0,0.0,0.0,0.0,0.0,0.0,0.0,0.0,0.0,0.0,0.0,0.0,0.0,0.0,0.0,0.0,0.0,0.0,0.0,0.0,0.0,0.0,0.0,0.0,0.0,0.0,0.0,0.0,0.0,0.0,0.0,0.0,0.0,0.0,0.0,0.0,0.0,0.0,0.0,0.0,0.0,0.0,0.0,0.0,0.0,0.0,0.0,0.0,0.0,0.0,0.0,0.0,0.0,0.0,0.0,0.0,0.0,0.0,0.0,0.0,0.0,0.0,0.0,0.0,0.0,0.0,0.0,0.0,0.0,0.0,0.0,0.0,0.0,0.0,0.0,0.0,0.0,0.0,0.0,0.0,0.0,0.0,0.0,0.0,0.0,0.0,0.0,0.0,0.0,0.0,0.0,0.0,0.0,0.0,0.0,0.0,0.0,0.0,0.0,0.0,0.0,0.0,0.0,0.0,0.0,0.0,0.0,0.0,0.0,0.0,0.0,0.0,0.0,0.0,0.0,0.0,0.0,0.0,0.0,0.0,0.0,0.0,0.0,0.0,0.0,0.0,0.0,0.0,0.0,0.0,0.0,0.0,0.0,0.0,0.0,0.0,0.0,0.0,0.0,0.0,0.0,0.0,0.0,0.0,0.0,0.0,0.0,0.0,0.0,0.0,0.0,0.0,0.0,0.0,0.0,0.0,0.0,0.0,0.0,0.0,0.0,0.0,0.0,0.0,0.0,0.0,0.0,0.0,0.0,0.0,0.0,0.0,0.0,0.0,0.0,0.0,0.0,0.0,0.0,0.0,0.0,0.0,0.0,0.0,0.0,0.0,0.0,0.0,0.0,0.0,0.0,0.0,0.0,0.0,0.0,0.0,0.0,0.0,0.0,0.0,0.0,0.0,0.0,0.0,0.0,0.0,0.0,0.0,0.0,0.0,0.0,0.0,0.0,0.0,0.0,0.0,0.0,0.0,0.0,0.0,0.0,0.0,0.0,0.0,0.0,0.0,0.0,0.0,0.0,0.0,0.0,0.0,0.0,0.0,0.0,0.0,0.0,0.0,0.0,0.0,0.0,0.0,0.0,0.0,0.0,0.0,0.0,0.0,0.0,0.0,0.0,0.0,0.0,0.0,0.0,0.0,0.0,0.0,0.0,0.0,0.0,0.0,0.0,0.0,0.0,0.0,0.0,0.0,0.0,0.0,0.0,0.0,0.0,0.0,0.0,0.0,0.0,0.0,0.0,0.0,0.0,0.0,0.0,0.0,0.0,0.0,0.0,0.0,0.0,0.0,0.0,0.0,0.0,0.0,0.0,0.0,0.0,0.0,0.0,0.0,0.0,0.0,0.0,0.0,0.0,0.0,0.0,0.0,0.0,0.0,0.0,0.0,0.0,0.0,0.0,0.0,0.0,0.0,0.0,0.0,0.0,0.0,0.0,0.0,0.0,0.0,0.0,0.0,0.0,0.0,0.0,0.0,0.0,0.0,0.0,0.0,0.0,0.0,0.0,0.0,0.0,0.0,0.0,0.0,0.0,0.0,0.0,0.0,0.0,0.0,0.0,0.0,0.0,0.0,0.0,0.0,0.0,0.0,0.0,0.0,0.0,0.0,0.0,0.0,0.0,0.0,0.0,0.0,0.0,0.0,0.0,0.0,0.0,0.0,0.0,0.0,0.0,0.0,0.0,0.0,0.0,0.0,0.0,0.0,0.0,0.0,0.0,0.0,0.0,0.0,0.0,0.0,0.0,0.0,0.0,0.0,0.0,0.0,0.0,0.0,0.0,0.0,0.0,0.0,0.0,0.0,0.0,0.0,0.0,0.0,0.0,0.0,0.0,0.0,0.0,0.0,0.0,0.0,0.0,0.0,0.0,0.0,0.0,0.0,0.0,0.0,0.0,0.0,0.0,0.0,0.0,0.0,0.0,0.0,0.0,0.0,0.0,0.0,0.0,0.0,0.0,0.0,0.0,0.0,0.0,0.0,0.0,0.0,0.0,0.0,0.0,0.0,0.0,0.0,0.0,0.0,0.0,0.0,0.0,0.0,0.0,0.0,0.0,0.0,0.0,0.0,0.0,0.0,0.0,0.0,0.0,0.0,0.0,0.0,0.0,0.0,0.0,0.0,0.0,0.0,0.0,0.0,0.0,0.0,0.0,0.0,0.0,0.0,0.0,0.0,0.0,0.0,0.0,0.0,0.0,0.0,0.0,0.0,0.0,0.0,0.0,0.0,0.0,0.0,0.0,0.0,0.0,0.0,0.0,0.0,0.0,0.0,0.0,0.0,0.0,0.0,0.0,0.0,0.0,0.0,0.0,0.0,0.0,0.0,0.0,0.0,0.0,0.0,0.0,0.0,0.0,0.0,0.0,0.0,0.0,0.0,0.0,0.0,0.0,0.0,0.0,0.0,0.0,0.0,0.0,0.0,0.0,0.0,0.0,0.0,0.0,0.0,0.0,0.0,0.0,0.0,0.0,0.0,0.0,0.0,0.0,0.0,0.0,0.0,0.0,0.0,0.0,0.0,0.0,0.0,0.0,0.0,0.0,0.0,0.0,0.0,0.0,0.0,0.0,0.0,0.0,0.0,0.0,0.0,0.0,0.0,0.0,0.0,0.0,0.0,0.0,0.0,0.0,0.0,0.0,0.0,0.0,0.0,0.0,0.0,0.0,0.0,0.0,0.0,0.0,0.0,0.0,0.0,0.0,0.0,0.0,0.0,0.0,0.0,0.0,0.0,0.0,0.0,0.0,0.0,0.0,0.0,0.0,0.0,0.0,0.0,0.0,0.0,0.0,0.0,0.0,0.0,0.0,0.0,0.0,0.0,0.0,0.0,0.0,0.0,0.0,0.0,0.0,0.0,0.0,0.0,0.0,0.0,0.0,0.0,0.0,0.0,0.0,0.0,0.0,0.0,0.0,0.0,0.0,0.0,0.0,0.0,0.0,0.0,0.0,0.0,0.0,0.0,0.0,0.0,0.0,0.0,0.0,0.0,0.0,0.0,0.0,0.0,0.0,0.0,0.0,0.0,0.0,0.0,0.0,0.0,0.0,0.0,0.0,0.0,0.0,0.0,0.0,0.0,0.0,0.0,0.0,0.0,0.0,0.0,0.0,0.0,0.0,0.0,0.0,0.0,0.0,0.0,0.0,0.0,0.0,0.0,0.0,0.0,0.0,0.0,0.0,0.0,0.0,0.0,0.0,0.0,0.0,0.0,0.0,0.0,0.0,0.0,0.0,0.0,0.0,0.0,0.0,0.0,0.0,0.0,0.0,0.0,0.0,0.0,0.0,0.0,0.0,0.0,0.0,0.0,0.0,0.0,0.0,0.0,0.0,0.0,0.0,0.0,0.0,0.0,0.0,0.0,0.0,0.0,0.0,0.0,0.0,0.0,0.0,0.0,0.0,0.0,0.0,0.0,0.0,0.0,0.0,0.0,0.0,0.0,0.0,0.0,0.0,0.0,0.0,0.0,0.0,0.0,0.0,0.0,0.0,0.0,0.0,0.0,0.0,0.0,0.0,0.0,0.0,0.0,0.0,0.0,0.0,0.0,0.0,0.0,0.0,0.0,0.0,0.0,0.0,0.0,0.0,0.0,0.0,0.0,0.0,0.0,0.0,0.0,0.0,0.0,0.0,0.0,0.0,0.0,0.0,0.0,0.0,0.0,0.0,0.0,0.0,0.0,0.0,0.0,0.0,0.0,0.0,0.0,0.0,0.0,0.0,0.0,0.0,0.0,0.0,0.0,0.0,0.0,0.0,0.0,0.0,0.0,0.0,0.0,0.0,0.0,0.0,0.0,0.0,0.0,0.0,0.0,0.0,0.0,0.0,0.0,0.0,0.0,0.0,0.0,0.0,0.0,0.0,0.0,0.0,0.0,0.0,0.0,0.0,0.0,0.0,0.0,0.0,0.0,0.0,0.0,0.0,0.0,0.0,0.0,0.0,0.0,0.0,0.0,0.0,0.0,0.0,0.0,0.0,0.0,0.0,0.0,0.0,0.0,0.0,0.0,0.0,0.0,0.0,0.0,0.0,0.0,0.0,0.0,0.0,0.0,0.0,0.0,0.0,0.0,0.0,0.0,0.0,0.0,0.0,0.0,0.0,0.0,0.0,0.0,0.0,0.0,0.0,0.0,0.0,0.0,0.0,0.0,0.0,0.0,0.0,0.0,0.0,0.0,0.0,0.0,0.0,0.0,0.0,0.0,0.0,0.0,0.0,0.0,0.0,0.0,0.0,0.0,0.0,0.0,0.0,0.0,0.0,0.0,0.0,0.0,0.0,0.0,0.0,0.0,0.0,0.0,0.0,0.0,0.0,0.0,0.0,0.0,0.0,0.0,0.0,0.0,0.0,0.0,0.0,0.0,0.0,0.0,0.0,0.0,0.0,0.0,0.0,0.0,0.0,0.0,0.0,0.0,0.0,0.0,0.0,0.0,0.0,0.0,0.0,0.0,0.0,0.0,0.0,0.0,0.0,-2.4659,0.0,0.0,0.0,0.0,0.0,0.0,0.0,0.0,0.0,0.0,0.0,0.0,0.0,0.0,0.0,0.0,0.0,0.0,0.0,0.0,0.0,0.0,0.0,0.0,0.0,0.0,0.0,0.0,0.0,0.0,0.0,0.0,0.0,0.0,0.0,0.0,0.0,0.0,0.0,0.0,0.0,0.0,0.0,0.0,0.0,0.0,0.0,0.0,0.0,0.0,0.0,0.0,0.0,0.0,0.0,0.0,0.0,0.0,0.0,0.0,0.0,0.0,0.0,0.0,0.0,0.0,0.0,0.0,0.0,0.0,0.0,0.0,0.0,0.0,0.0,0.0,0.0,0.0,0.0,0.0,0.0,0.0,0.0,0.0,0.0,0.0,0.0,0.0,0.0,0.0,0.0,0.0,0.0,0.0,0.0,0.0,0.0,0.0,0.0,0.0,0.0,0.0,0.0,0.0,0.0,0.0,0.0,0.0,0.0,0.0,0.0,0.0,0.0,0.0,0.0,0.0,-2.5165,0.0,0.0,0.0,0.0,0.0,0.0,0.0,0.0,0.0,0.0,0.0,0.0,0.0,0.0,0.0,0.0,0.0,0.0,0.0,0.0,0.0,0.0,0.0,0.0,0.0,0.0,0.0,0.0,0.0,0.0,0.0,0.0,0.0,0.0,0.0,0.0,0.0,0.0,0.0,0.0,0.0,0.0,0.0,0.0,0.0,0.0,0.0,0.0,0.0,0.0,0.0,0.0,0.0,0.0,0.0,0.0,0.0,0.0,0.0,0.0,0.0,0.0,0.0,0.0,0.0,0.0,0.0,0.0,0.0,0.0,0.0,0.0,0.0,0.0,0.0,0.0,0.0,0.0,0.0,0.0,0.0,0.0,0.0,0.0,0.0,0.0,0.0,0.0,0.0,0.0,0.0,0.0,0.0,0.0,0.0,0.0,0.0,0.0,0.0,0.0,0.0,0.0,0.0,0.0,0.0,0.0,0.0,0.0,-2.5857,-2.6487,-2.7078,-2.7259,-2.7295,-2.7293,-2.7263,-2.7798,-2.8531,0.0,0.0,0.0,0.0,0.0,0.0,0.0,0.0,0.0,0.0,0.0,0.0,0.0,0.0,0.0,0.0,0.0,0.0,0.0,0.0,0.0,0.0,0.0,0.0,0.0,0.0,0.0,0.0,0.0,0.0,0.0,0.0,0.0,0.0,0.0,0.0,0.0,0.0,0.0,-0.8439,-0.8038,-0.7968,-0.8138,-0.781,0.0,0.0,0.0,0.0,0.0,0.0,0.0,0.0,0.0,0.0,0.0,0.0,0.0,0.0,0.0,0.0,0.0,0.0,0.0,0.0,0.0,0.0,0.0,0.0,0.0,0.0,0.0,0.0,0.0,0.0,0.0,0.0,0.0,0.0,0.0,0.0,0.0,0.0,0.0,0.0,0.0,0.0,0.0,-1.9016,-2.0216,0.0,0.0,0.0,0.0,0.0,0.0,0.0,0.0,0.0,0.0,0.0,0.0,0.0,0.0,-2.2164,-2.4409,-2.5819,-2.6317,-2.749,-2.8618,-2.9716,-2.9791,-2.9873,-2.9962,-2.9106,0.0,-2.8649,-2.8101,0.0,0.0,0.0,0.0,0.0,0.0,0.0,0.0,0.0,0.0,0.0,0.0,0.0,0.0,0.0,0.0,0.0,0.0,0.0,0.0,0.0,0.0,0.0,0.0,0.0,0.0,0.0,0.0,0.0,0.0,0.0,0.0,0.0,0.0,0.0,0.0,-0.6155,-0.6986,-0.7746,-0.7491,-0.7554,-0.7798,-0.8138,-0.7989,-0.7559,-0.8534,0.0,0.0,0.0,0.0,0.0,0.0,0.0,0.0,0.0,0.0,0.0,0.0,0.0,0.0,0.0,0.0,0.0,0.0,0.0,0.0,0.0,0.0,0.0,0.0,0.0,0.0,0.0,0.0,0.0,0.0,0.0,0.0,0.0,0.0,0.0,0.0,0.0,0.0,0.0,-1.7805,-1.9177,-1.9828,-1.939,-1.8655,0.0,0.0,0.0,0.0,0.0,0.0,0.0,0.0,0.0,-2.2148,-2.4059,-2.4925,-2.4632,-2.6663,-2.7862,-2.8094,-2.8833,-2.9459,-3.0,-3.0182,-3.041,-3.0576,-3.0224,-3.0017,-2.9872,-2.9051,-2.8794,-2.8822,0.0,0.0,0.0,0.0,-2.6068,-2.6809,0.0,0.0,0.0,0.0,0.0,0.0,0.0,0.0,0.0,0.0,0.0,0.0,0.0,0.0,0.0,-0.5415,0.0,0.0,0.0,0.0,0.0,0.0,0.0,0.0,0.0,0.0,0.0,-0.5441,-0.6079,-0.6548,-0.6957,-0.7015,-0.7279,-0.7817,-0.8537,-0.855,-0.8154,-0.9207,-0.9123,0.0,0.0,0.0,0.0,0.0,0.0,0.0,0.0,0.0,0.0,0.0,0.0,0.0,0.0,0.0,0.0,0.0,0.0,0.0,0.0,0.0,0.0,0.0,0.0,0.0,0.0,0.0,0.0,0.0,0.0,0.0,0.0,0.0,0.0,0.0,0.0,0.0,0.0,-1.8652,-1.9973,-2.0439,-2.0069,-1.9475,0.0,0.0,0.0,0.0,0.0,0.0,-2.1831,-2.2574,-2.3176,-2.3613,-2.5834,-2.6998,-2.6925,-2.8376,-2.922,-2.935,-2.9456,-2.9632,-2.987,-3.0156,-3.0368,-3.0568,-3.0733,-3.079,-3.0666,-2.9854,-2.9383,-2.9219,-2.9239,-2.8361,-2.7058,-2.6987,-2.7545,-2.826,0.0,0.0,0.0,0.0,0.0,0.0,0.0,0.0,0.0,0.0,0.0,0.0,0.0,0.0,-0.5732,-0.5508,-0.5305,-0.5004,0.0,0.0,0.0,0.0,0.0,0.0,0.0,0.0,0.0,-0.5794,-0.6499,-0.697,-0.7124,-0.7274,-0.7774,-0.8534,-0.8988,-0.8867,-0.8393,-0.9684,-1.0019,-0.9644,0.0,0.0,0.0,0.0,0.0,0.0,0.0,0.0,0.0,0.0,0.0,0.0,0.0,0.0,0.0,0.0,0.0,0.0,0.0,0.0,0.0,0.0,0.0,0.0,0.0,0.0,0.0,0.0,0.0,0.0,0.0,0.0,0.0,0.0,0.0,0.0,0.0,0.0,0.0,-2.3051,-2.4276,0.0,0.0,0.0,0.0,-2.1684,-2.2077,-2.2957,-2.4327,-2.481,-2.5617,-2.6839,-2.7727,-2.8151,-2.8047,-2.8419,-2.8934,-2.9457,-2.9049,-2.9194,-2.9902,-3.0103,-3.0189,-3.0231,-3.0426,-3.0401,-3.0274,-3.0666,-3.0714,-3.0549,-2.9911,-2.9104,-2.8344,-2.8452,-2.8937,-2.9609,0.0,0.0,0.0,0.0,0.0,0.0,0.0,0.0,0.0,0.0,0.0,0.0,0.0,-0.6374,-0.6155,-0.4994,-0.5347,-0.5328,-0.473,0.0,0.0,0.0,0.0,0.0,0.0,0.0,-0.5461,-0.5519,-0.5792,-0.6116,-0.6499,-0.6982,-0.7462,-0.7867,-0.8867,-0.9255,-0.9166,-1.0533,-1.085,-1.0471,-1.0532,-1.0166,0.0,0.0,0.0,0.0,0.0,0.0,0.0,0.0,0.0,0.0,0.0,0.0,0.0,0.0,0.0,0.0,0.0,0.0,0.0,0.0,0.0,0.0,0.0,0.0,0.0,0.0,0.0,0.0,0.0,0.0,0.0,0.0,0.0,0.0,0.0,0.0,0.0,-2.2219,-2.2328,0.0,0.0,-2.2049,-2.2221,-2.2031,-2.2982,-2.3847,-2.4423,-2.5198,-2.5734,-2.5986,-2.7182,-2.7821,-2.7821,-2.8295,-2.8807,-2.935,-2.9291,-2.9396,-2.9653,-2.983,-2.9946,-3.006,-3.0231,-3.0333,-3.0333,-3.0501,-3.0485,-3.0384,-3.0269,-2.9963,-2.9568,-2.9748,-3.0054,-3.05,0.0,0.0,0.0,0.0,0.0,0.0,0.0,0.0,0.0,0.0,0.0,-0.6829,-0.5925,-0.6379,-0.6232,-0.5126,-0.5427,-0.5331,-0.468,0.0,0.0,0.0,0.0,0.0,0.0,-0.5275,-0.5427,-0.5487,-0.5575,-0.5772,-0.601,-0.6491,-0.6973,-0.7306,-0.8456,-0.9147,-0.9586,-1.0944,-1.129,-1.0916,-1.1134,-1.0592,-0.9691,0.0,0.0,0.0,0.0,0.0,0.0,0.0,0.0,0.0,0.0,0.0,0.0,0.0,0.0,0.0,0.0,0.0,0.0,0.0,0.0,0.0,0.0,0.0,0.0,0.0,0.0,0.0,0.0,0.0,0.0,0.0,0.0,0.0,0.0,0.0,-2.1934,-2.2575,-2.2674,-2.2719,-2.2719,-2.3117,-2.3414,-2.3491,-2.4552,-2.5377,-2.5885,-2.6667,-2.7086,-2.7049,-2.8218,-2.8632,-2.8342,-2.8996,-2.9403,-2.9547,-2.9864,-3.002,-2.9974,-3.0057,-2.9823,-2.9339,-2.9876,-2.9783,-2.9358,-2.9992,-3.0189,-3.0146,-3.0401,-3.0401,-3.0231,-3.0443,-3.0494,-3.0445,0.0,0.0,0.0,0.0,0.0,0.0,0.0,0.0,0.0,0.0,-0.6869,-0.6374,-0.6604,-0.6149,-0.5873,-0.587,-0.5348,-0.491,-0.4432,-0.4513,0.0,0.0,0.0,0.0,-0.5011,-0.5032,-0.5245,-0.5603,-0.5955,-0.5953,-0.581,-0.6029,-0.6456,-0.7003,-0.7858,-0.8648,-0.9461,-1.085,-1.1281,-1.1038,-1.0769,-1.0243,-0.9725,0.0,0.0,0.0,0.0,0.0,0.0,0.0,0.0,0.0,0.0,0.0,0.0,0.0,0.0,0.0,0.0,0.0,0.0,0.0,0.0,0.0,0.0,0.0,0.0,0.0,0.0,0.0,0.0,0.0,0.0,0.0,0.0,0.0,-1.9257,-2.1661,-2.3642,-2.4405,-2.5753,-2.6457,-2.6068,-2.6418,-2.6525,-2.6215,-2.6594,-2.7472,-2.8767,-2.9252,-2.9667,-3.0134,-3.0814,-3.0647,-2.9522,-3.0356,-3.0541,-3.0007,-3.0744,-3.1011,-3.0895,-3.0925,-2.9897,-2.8126,-2.9392,-2.8909,-2.745,-2.9216,-2.9973,-3.0017,-3.0342,-3.0359,-3.0189,-3.0384,-3.007,-2.9483,0.0,0.0,0.0,0.0,0.0,0.0,0.0,0.0,0.0,0.0,-0.6067,-0.5753,-0.5083,-0.5185,-0.5084,-0.4556,-0.4495,-0.4415,-0.4216,0.0,0.0,0.0,0.0,0.0,-0.5338,-0.5477,-0.5643,-0.5908,-0.5771,-0.5791,-0.5966,-0.6768,-0.7057,-0.7041,-0.807,-0.8389,-0.83,-0.9647,-1.0117,-1.0117,-1.1019,-1.0866,-1.0142,0.0,0.0,0.0,0.0,0.0,0.0,0.0,0.0,0.0,0.0,0.0,0.0,0.0,0.0,0.0,0.0,0.0,0.0,0.0,0.0,0.0,0.0,0.0,0.0,0.0,0.0,0.0,0.0,0.0,0.0,0.0,0.0,-2.0292,-2.0869,-2.192,-2.2902,-2.3772,-2.42,-2.4523,-2.4664,-2.5154,-2.5513,-2.5615,-2.6113,-2.6736,-2.7281,-2.6609,-2.6343,-2.6619,-2.6823,-2.7093,-2.736,-2.8621,-2.9636,-3.0387,-3.076,-3.0911,-3.0911,-3.1438,-3.0939,-2.9626,-3.0066,-2.9968,-2.9531,-2.9664,-2.9766,-2.9897,-3.0189,-3.006,-2.9738,-2.9897,-2.9572,-2.8732,0.0,0.0,0.0,0.0,0.0,0.0,0.0,0.0,0.0,0.0,-0.5132,-0.4782,-0.4237,-0.4439,-0.4495,-0.4164,-0.4276,-0.4276,-0.4056,0.0,0.0,0.0,0.0,-0.5039,-0.5396,-0.5472,-0.5635,-0.5732,-0.5517,-0.5488,-0.5712,-0.6291,-0.6434,-0.6284,-0.7258,-0.7699,-0.7835,-0.9072,-0.9713,-0.9956,-1.0885,-1.1016,-1.058,-1.0766,-1.0458,-0.9966,-1.0132,-1.0401,-1.0599,-1.0509,0.0,0.0,0.0,0.0,0.0,0.0,0.0,0.0,0.0,0.0,0.0,0.0,0.0,0.0,0.0,0.0,0.0,0.0,0.0,0.0,0.0,0.0,0.0,0.0,-1.9169,-2.09,-2.1657,-2.2272,-2.2951,-2.3669,-2.3897,-2.4073,-2.4261,-2.4892,-2.5356,-2.5309,-2.6078,-2.6827,-2.7459,-2.712,-2.6754,-2.6469,-2.7216,-2.7428,-2.6972,-2.8555,-2.9579,-3.0131,-3.0558,-3.0776,-3.0899,-3.1342,-3.0786,0.0,-2.9892,-2.9611,-2.8812,-2.9175,-2.9348,0.0,0.0,0.0,0.0,0.0,-2.8764,-2.8196,0.0,0.0,0.0,0.0,0.0,0.0,0.0,0.0,0.0,0.0,0.0,-0.38,-0.392,-0.3957,-0.4097,-0.43,-0.4379,-0.4295,0.0,0.0,0.0,-0.4704,-0.4768,-0.4971,-0.526,-0.5277,-0.5386,-0.5424,-0.5303,-0.5237,-0.5295,-0.5295,-0.5295,-0.5438,-0.6212,-0.7001,-0.7816,-0.8995,-0.9757,-1.0143,-1.0563,-1.076,-1.0853,-1.1213,-1.1169,-1.088,-1.1063,-1.1063,-1.0952,-1.074,0.0,0.0,0.0,0.0,0.0,0.0,0.0,0.0,0.0,0.0,0.0,0.0,0.0,0.0,0.0,0.0,0.0,0.0,0.0,0.0,0.0,0.0,0.0,0.0,-1.9446,-2.1244,-2.188,-2.2641,-2.3305,-2.3859,-2.415,-2.4337,-2.4394,-2.5213,-2.5614,-2.5235,-2.6238,-2.7367,-2.8405,0.0,0.0,0.0,0.0,-2.9491,-2.7555,-2.9305,-2.9993,-2.9665,-3.0254,-3.0615,-3.0822,-3.1031,-3.0096,-2.8453,-2.9378,-2.8633,-2.6879,-2.8276,-2.8826,-2.8795,-2.9393,-2.9332,-2.8857,-2.799,-2.7728,-2.7735,0.0,0.0,0.0,0.0,0.0,0.0,0.0,0.0,0.0,-0.4039,-0.3906,-0.38,-0.392,-0.4089,-0.4233,-0.43,-0.423,-0.4156,0.0,0.0,-0.4151,-0.4704,-0.4768,-0.4934,-0.5228,-0.533,-0.5454,-0.5679,-0.5653,-0.5666,-0.5714,-0.5714,-0.6025,-0.6567,-0.6827,-0.7222,-0.7884,-0.914,-0.9585,-0.9532,-1.0344,-1.0566,-1.0374,-1.0572,-1.0541,-1.0356,-1.0766,-1.1095,-1.1375,-1.1145,-1.138,-1.1813,-1.2367,0.0,0.0,0.0,0.0,0.0,0.0,0.0,0.0,0.0,0.0,0.0,0.0,0.0,0.0,0.0,0.0,0.0,0.0,0.0,0.0,-1.9333,-2.0686,-2.1906,-2.2469,-2.2787,-2.309,-2.3437,-2.3424,-2.3484,-2.3734,-2.4771,-2.5379,-2.5266,-2.6335,-2.7167,-2.7657,-2.6953,0.0,-2.6816,-2.7215,-2.7363,-2.7184,-2.8615,-2.9637,-3.0162,0.0,0.0,-3.0822,-3.1471,-3.1031,-2.9725,-3.0003,-2.9546,-2.858,-2.8525,-2.8182,-2.7815,-2.8255,-2.8304,-2.7859,-2.58,-2.5828,-2.674,0.0,0.0,0.0,0.0,0.0,0.0,0.0,0.0,0.0,0.0,-0.3553,-0.3519,-0.3343,-0.3505,-0.3636,-0.367,-0.3893,0.0,0.0,-0.4663,-0.4798,-0.5554,-0.5848,-0.6023,-0.6163,-0.6722,-0.7133,-0.722,-0.7062,-0.698,-0.6979,-0.7141,-0.73,-0.7546,-0.7697,-0.7974,-0.8523,-0.9126,-0.9479,-0.9674,-1.0085,-1.0256,-1.0269,-1.0639,-1.0741,-1.0719,-1.1215,-1.143,-1.1475,-1.155,-1.2157,-1.2856,-1.321,-1.372,-1.3902,0.0,0.0,0.0,0.0,0.0,0.0,0.0,0.0,0.0,0.0,0.0,0.0,0.0,0.0,-1.5642,0.0,0.0,-1.7637,-1.8649,-1.967,-2.0673,-2.1643,-2.2639,-2.3145,-2.3067,-2.309,-2.3198,-2.345,-2.4653,-2.5497,-2.556,-2.6906,-2.7777,-2.7887,-2.7613,-2.7394,-2.7123,-2.7453,-2.7524,-2.7394,-2.8329,-2.9149,-2.9685,-2.967,-2.9732,-2.9931,-3.0375,-3.0247,-2.9691,-2.9682,-2.9268,-2.8557,-2.7739,-2.7088,-2.6692,-2.6544,-2.6582,-2.6628,-2.5606,-2.5289,-2.537,0.0,0.0,0.0,0.0,0.0,0.0,0.0,0.0,0.0,0.0,-0.333,-0.3229,-0.2853,-0.2893,-0.2958,0.0,0.0,0.0,0.0,-0.537,-0.5536,-0.6605,-0.7053,-0.7304,-0.7334,-0.817,-0.8709,-0.8747,-0.8426,-0.8338,-0.8218,-0.8383,-0.8465,-0.8548,-0.8712,-0.9013,-0.9384,-0.9384,-0.9554,-0.9922,-0.9922,-0.9992,-1.0121,-1.0657,-1.093,-1.1037,-1.1632,-1.1558,-1.1335,-1.1855,-1.2806,-1.368,-1.3825,-1.4832,-1.5566,-1.3436,-1.3397,0.0,0.0,0.0,0.0,0.0,0.0,0.0,0.0,0.0,-1.4303,-1.4598,-1.4986,-1.5527,-1.6277,-1.6407,-1.6749,-1.7895,-1.8631,-1.9459,-2.0778,-2.2393,-2.3243,-2.2678,-2.3156,-2.3586,-2.3781,-2.4946,-2.5741,-2.5868,-2.7272,-2.8105,-2.8147,-2.8591,-2.8546,-2.7815,-2.8237,-2.8239,-2.7769,-2.8292,-2.8651,-2.8958,-2.8651,-2.8716,-2.9035,-2.9135,-2.9184,-2.9156,-2.8914,-2.8401,-2.768,-2.6664,-2.5964,-2.5481,-2.4993,-2.498,-2.5217,-2.5439,-2.4867,-2.4066,0.0,0.0,0.0,0.0,0.0,0.0,0.0,0.0,0.0,0.0,0.0,0.0,0.0,0.0,0.0,0.0,0.0,0.0,-0.4788,-0.5235,-0.5922,-0.7065,-0.7572,-0.7905,-0.8147,-0.8417,-0.8597,-0.8856,-0.8835,-0.8656,-0.8412,-0.8412,-0.8835,-0.9597,-0.968,-0.998,-1.0433,-1.0433,-1.0252,-0.9916,-1.0067,-0.9997,-0.969,-1.0115,-1.0415,-1.0588,-1.1037,-1.1037,-1.1037,-1.1929,-1.2372,-1.2592,-1.3317,-1.4106,-1.4379,-1.219,0.0,-1.2681,-1.1024,-1.1251,-1.2089,-1.247,-1.3469,-1.4309,0.0,0.0,-1.6864,-1.623,-1.7159,-1.8171,-1.8633,-1.8568,-1.873,-1.9479,-1.9663,-2.0008,-2.0921,-2.2305,-2.3018,-2.2308,-2.3891,-2.5052,-2.5115,-2.5704,-2.6154,-2.6141,-2.6796,-2.7304,-2.7561,-2.7613,-2.7801,-2.8013,-2.8146,-2.8119,-2.8051,-2.8118,-2.8262,-2.8417,-2.8352,-2.8444,-2.8651,-2.8651,-2.8651,-2.861,-2.8048,-2.7112,-2.6038,-2.5977,-2.528,-2.4253,-2.4439,-2.4279,-2.38,-2.3551,-2.3374,-2.3267,0.0,0.0,0.0,0.0,0.0,0.0,0.0,0.0,0.0,0.0,0.0,0.0,0.0,0.0,0.0,0.0,0.0,0.0,-0.5023,-0.5543,-0.6365,-0.7526,-0.813,-0.8489,-0.8569,-0.925,-0.9711,-0.9933,-0.9762,-0.9634,-0.955,-0.9634,-0.9736,-0.9785,-0.9868,-0.9917,-0.9717,-0.9717,-0.961,-0.9382,-0.9458,-0.9539,-0.962,-0.9771,-0.9992,-1.0104,-1.0115,-1.0156,0.0,0.0,-1.1288,-1.1979,-1.2622,-1.3135,-1.3263,-1.2237,-1.2231,0.0,-1.2233,-1.2728,0.0,0.0,-1.4908,-1.5649,-1.5918,-1.676,-1.7455,-1.7164,-1.7617,-1.8203,-1.8734,-1.8297,-1.8265,0.0,-1.98,-1.9952,-2.0579,-2.2611,-2.3628,-2.2592,-2.3968,-2.4671,-2.3742,-2.5011,-2.5678,-2.5344,-2.676,-2.7623,-2.7679,-2.7988,-2.8321,-2.8638,-2.8284,-2.8236,-2.8559,-2.8252,-2.821,-2.8444,-2.8249,-2.8197,-2.8341,-2.8341,-2.8052,-2.7591,-2.7591,-2.6724,-2.5355,-2.4922,-2.4206,-2.3323,-2.2676,-2.2262,-2.2089,-2.2834,-2.2725,-2.2249,0.0,0.0,0.0,0.0,0.0,0.0,0.0,0.0,0.0,0.0,0.0,0.0,0.0,0.0,0.0,0.0,0.0,0.0,0.0,-0.5643,-0.6569,-0.7932,-0.8528,-0.897,-0.9089,-0.9882,-1.04,-1.0637,-1.0388,-1.0305,-1.0226,-1.0393,-1.0223,-0.9816,-0.9897,-0.9697,-0.9187,-0.9109,-0.9058,-0.8927,-0.9003,-0.9155,-0.9392,-0.9387,-0.9466,-0.9532,-0.9335,-0.9491,0.0,0.0,-1.0455,-1.1312,-1.1794,-1.2179,-1.2325,-1.1878,-1.1732,-1.1955,-1.2688,0.0,0.0,-1.5083,-1.5597,-1.6076,-1.6775,-1.7107,-1.7282,-1.7524,-1.7612,-1.7875,-1.8527,-1.8033,0.0,-1.9419,-1.9594,-1.9734,-2.0195,-2.2495,-2.3638,-2.216,-2.3729,-2.4092,-2.209,-2.4128,-2.5471,-2.5368,-2.6665,-2.7506,-2.7588,-2.7665,-2.7893,-2.8453,-2.8027,-2.8079,-2.8769,-2.8159,-2.8014,-2.8213,-2.8014,-2.7802,-2.7603,-2.751,-2.7149,-2.6544,-2.6593,-2.5663,-2.4128,-2.3735,-2.3095,-2.2152,-2.1279,-2.0985,-2.1112,-2.2051,-2.2002,-2.1423,0.0,0.0,0.0,0.0,0.0,0.0,0.0,0.0,0.0,0.0,0.0,0.0,0.0,0.0,0.0,0.0,0.0,0.0,0.0,-0.522,-0.6435,-0.8299,-0.8778,-0.9275,-0.9948,-0.9964,-1.0158,-1.039,-1.039,-1.0233,-1.0004,-1.0004,-0.9999,-0.9994,-0.9821,-0.9616,-0.934,-0.9187,-0.898,-0.8699,-0.8927,-0.8927,-0.878,-0.8927,-0.8896,-0.8816,-0.9146,0.0,0.0,0.0,-1.0126,-1.061,-1.0928,-1.1335,0.0,-1.0586,-1.0409,-1.0599,0.0,0.0,-1.2846,-1.4495,-1.492,-1.5204,-1.6104,-1.6473,-1.672,-1.7126,-1.7342,-1.7749,-1.8552,-1.8682,-1.882,-1.9204,-1.934,-1.9403,-1.9785,-2.1657,-2.2351,-2.0729,-2.3087,-2.3629,0.0,-2.3463,-2.5807,-2.6873,-2.6271,-2.6239,-2.6985,-2.5918,-2.5849,-2.7024,-2.7066,-2.7472,-2.8441,-2.7689,-2.7323,-2.7347,-2.731,-2.6985,-2.6414,-2.6077,-2.5775,-2.5521,-2.4625,-2.3276,-2.176,-2.2491,-2.1829,-2.0451,-2.0933,-2.106,-2.1071,-2.085,-2.0733,-2.066,0.0,0.0,0.0,0.0,0.0,0.0,0.0,0.0,0.0,0.0,0.0,0.0,0.0,0.0,0.0,0.0,0.0,0.0,0.0,-0.4995,-0.6049,-0.7351,-0.7835,-0.8253,-0.8755,-0.8764,-0.9009,-0.9443,-0.9443,-0.9448,-0.9368,-0.9368,-0.9216,-0.8921,-0.8765,-0.8494,-0.8358,-0.8121,-0.8082,-0.8102,-0.8327,-0.8479,-0.8537,-0.8702,-0.8617,-0.8308,0.0,0.0,0.0,-0.8259,-0.8438,-0.8857,-0.9336,-0.9334,-0.9069,-0.8592,-0.9162,-1.0118,0.0,0.0,-1.3147,-1.4442,-1.5043,-1.5531,-1.6465,-1.6714,-1.6973,-1.7596,-1.7405,-1.73,-1.7777,-1.7699,-1.7805,-1.8787,-1.9153,-1.9525,-2.0197,-2.0885,-2.1127,-2.0843,-2.1563,0.0,0.0,0.0,0.0,-2.3901,-2.4786,-2.5286,-2.5075,-2.472,-2.4648,-2.5075,-2.5075,-2.5241,-2.5551,-2.5898,-2.5758,-2.5206,-2.517,-2.5451,-2.5975,-2.5075,-2.4732,-2.4755,-2.429,-2.3074,-2.1483,-2.1691,-2.1061,-1.9933,-1.9704,-1.9775,-2.0052,-2.0052,-2.0254,-2.0429,0.0,0.0,0.0,0.0,0.0,0.0,0.0,0.0,0.0,0.0,0.0,0.0,0.0,0.0,0.0,0.0,0.0,0.0,0.0,0.0,-0.5754,-0.6819,-0.7017,-0.7269,-0.7534,-0.7606,-0.7801,-0.812,-0.834,-0.8413,-0.8408,-0.834,-0.8201,-0.7992,-0.7769,-0.7732,-0.7795,-0.7488,-0.7565,-0.7949,-0.7951,-0.8147,-0.8416,-0.8355,-0.8135,0.0,0.0,0.0,0.0,-0.7029,-0.7193,-0.7529,-0.772,-0.7671,-0.7522,-0.7935,-0.862,-0.9591,-1.1085,-1.2134,-1.3165,-1.4437,-1.5261,-1.5838,-1.6358,-1.6732,-1.709,-1.7703,-1.7465,-1.7216,-1.7461,-1.7275,-1.7465,-1.8422,-1.8728,-1.9221,-2.0207,-2.0534,-2.0635,-2.071,-2.1169,0.0,0.0,0.0,0.0,-2.2975,-2.3854,-2.4155,-2.3464,-2.3037,-2.3133,-2.3845,-2.3868,-2.402,-2.4411,-2.4743,-2.4577,-2.399,-2.3772,-2.4146,-2.5004,-2.3724,-2.2943,-2.2565,-2.265,-2.1467,-1.9651,-2.047,-2.0128,-1.9177,-1.9106,-1.9226,-1.9512,-1.9494,-1.9758,-1.9945,0.0,0.0,0.0,0.0,0.0,0.0,0.0,0.0,0.0,0.0,0.0,0.0,0.0,0.0,0.0,0.0,0.0,0.0,0.0,0.0,0.0,-0.6795,-0.6397,-0.6328,-0.658,-0.6676,-0.672,-0.6587,-0.7073,-0.7245,-0.7241,-0.7073,-0.7089,-0.7257,-0.704,-0.7285,-0.7753,-0.7383,-0.754,-0.8053,-0.7786,-0.801,-0.834,-0.7929,0.0,0.0,0.0,0.0,0.0,0.0,0.0,0.0,-0.6473,-0.6614,-0.7154,-0.8629,-0.8854,-0.9221,-1.2123,-1.2755,-1.2999,-1.456,-1.5518,-1.6012,-1.5889,-1.6388,-1.7038,-1.7372,-1.7406,-1.7406,0.0,0.0,-1.7483,-1.8027,-1.8082,-1.849,-1.9646,-2.042,-2.0702,0.0,0.0,0.0,0.0,0.0,0.0,-2.4026,0.0,-2.2722,-2.2159,-2.1101,-2.1362,-2.3272,-2.3368,-2.3801,-2.47,-2.4011,-2.37,-2.37,-2.3062,-2.3136,-2.3677,-2.2026,-2.06,-1.9368,-1.9783,-1.8589,-1.6558,-1.8874,-1.9143,-1.8154,-1.9111,-1.9502,-1.9424,-1.9102,-1.9187,-1.9222,0.0,0.0,0.0,0.0,0.0,0.0,0.0,0.0,0.0,0.0,0.0,0.0,0.0,0.0,0.0,0.0,0.0,0.0,0.0,0.0,0.0,0.0,0.0,0.0,0.0,0.0,0.0,-0.6606,-0.6701,-0.6747,-0.6747,-0.6701,-0.678,-0.6954,-0.6888,-0.7057,-0.7445,-0.73,-0.7445,-0.7803,0.0,-0.8089,-0.8355,0.0,0.0,0.0,0.0,0.0,0.0,0.0,0.0,0.0,0.0,-0.8997,-0.9095,-0.8963,-0.9974,-1.1173,-1.1603,-1.2766,-1.4159,-1.5122,-1.5471,-1.5823,-1.6434,-1.6874,-1.7054,-1.686,-1.6536,-1.61,0.0,0.0,0.0,-1.6641,-1.6542,0.0,-1.7852,-1.7905,0.0,0.0,0.0,-2.0488,-2.1489,-2.288,0.0,0.0,-2.2537,-2.2199,-2.148,-2.0938,-2.0781,-2.1298,-2.1308,-2.1425,-2.1691,-2.1502,-2.1886,-2.2713,-2.1527,-2.1517,-2.2371,-2.0607,-2.0068,-2.037,-1.9414,-1.8524,-1.77,-1.8553,-1.8742,-1.8486,-1.8864,-1.9102,-1.9039,-1.8248,-1.7821,-1.745,0.0,0.0,0.0,0.0,0.0,0.0,0.0,0.0,0.0,0.0,0.0,0.0,0.0,0.0,0.0,0.0,0.0,0.0,0.0,0.0,0.0,0.0,0.0,0.0,0.0,0.0,0.0,0.0,0.0,0.0,-0.5963,-0.575,-0.5773,-0.5871,-0.586,-0.6264,-0.685,-0.685,0.0,0.0,0.0,0.0,0.0,0.0,0.0,0.0,0.0,0.0,0.0,0.0,0.0,-0.8272,-0.9325,-0.9325,-0.918,-1.0114,0.0,-1.0966,-1.2105,-1.3053,-1.3988,-1.4848,-1.5471,-1.5871,-1.6021,-1.6415,-1.6544,-1.6154,-1.5944,0.0,0.0,0.0,0.0,0.0,0.0,0.0,-1.7307,-1.7189,-1.7216,0.0,-1.8678,0.0,-2.1161,-2.2255,-2.2544,0.0,-2.2231,-2.1913,-2.0605,-2.0265,-2.0217,-2.0323,-2.0255,-2.0333,-2.0498,-2.0333,-2.0712,-2.1461,-2.0557,-2.0479,-2.1048,-1.9726,-1.9123,-1.8992,0.0,-1.8313,-1.725,-1.8251,-1.8514,-1.827,-1.827,-1.8342,-1.8199,-1.7173,-1.6632,-1.6193,0.0,0.0,0.0,0.0,0.0,0.0,0.0,0.0,0.0,0.0,0.0,0.0,0.0,0.0,0.0,0.0,0.0,0.0,0.0,0.0,0.0,0.0,0.0,0.0,0.0,0.0,0.0,0.0,0.0,0.0,0.0,0.0,0.0,0.0,0.0,0.0,0.0,0.0,0.0,0.0,0.0,0.0,0.0,0.0,0.0,0.0,0.0,0.0,0.0,0.0,-0.8527,-0.8037,-0.9146,-0.8954,-0.871,-1.1259,-1.0845,-1.0075,-1.2649,-1.3222,-1.3307,-1.4238,-1.5258,-1.5976,-1.5415,-1.5607,-1.5718,-1.5145,0.0,-1.5238,-1.438,0.0,-1.5031,-1.5677,0.0,-1.6111,-1.6879,-1.7243,-1.7507,-1.7733,-1.8601,-1.9496,-2.0271,-2.0934,-2.1469,-2.1633,-2.2173,-2.1748,-1.9927,-1.9755,-1.986,-2.0017,-1.9891,-2.002,-2.0264,-2.002,-2.002,-2.0264,-1.9942,-1.9863,-1.9854,-1.9275,-1.8229,-1.6971,0.0,0.0,-1.6253,-1.7868,-1.8244,-1.7701,-1.7567,-1.7423,-1.7171,-1.5961,-1.5457,-1.5081,0.0,0.0,0.0,0.0,0.0,0.0,0.0,0.0,0.0,0.0,0.0,0.0,0.0,0.0,0.0,0.0,0.0,0.0,0.0,0.0,0.0,0.0,0.0,0.0,0.0,0.0,0.0,0.0,0.0,0.0,0.0,0.0,0.0,0.0,0.0,0.0,0.0,0.0,0.0,0.0,0.0,0.0,0.0,0.0,0.0,0.0,0.0,0.0,0.0,0.0,-0.9287,-1.0043,-1.0575,-1.0692,-1.0495,-1.0526,-1.1165,-1.1781,-1.0955,-1.2322,-1.4043,-1.3797,-1.4633,-1.5534,-1.5863,-1.5423,0.0,0.0,0.0,-1.366,-1.3584,-1.4049,0.0,-1.5677,0.0,0.0,0.0,0.0,-1.6633,0.0,0.0,0.0,0.0,0.0,0.0,0.0,0.0,0.0,-2.1165,-2.08,-2.0573,-2.0472,-2.0121,-1.9942,-1.9942,-1.9942,-1.9942,-1.9942,-1.9715,-1.9645,-1.9627,-1.9053,-1.8635,-1.8368,0.0,0.0,-1.7008,-1.7486,-1.755,-1.7414,-1.7495,-1.69,-1.5987,-1.5202,-1.3993,-1.2755,0.0,0.0,0.0,0.0,0.0,0.0,0.0,0.0,0.0,0.0,0.0,0.0,0.0,0.0,0.0,0.0,0.0,0.0,0.0,0.0,0.0,0.0,0.0,0.0,0.0,0.0,0.0,0.0,0.0,0.0,0.0,0.0,0.0,0.0,0.0,0.0,0.0,0.0,0.0,0.0,0.0,0.0,0.0,0.0,0.0,0.0,0.0,0.0,0.0,0.0,-0.8849,-0.994,-1.0379,-1.0293,-1.0049,-1.026,-1.0479,-1.0656,-1.048,-1.1471,-1.2635,-1.2987,-1.394,-1.471,-1.4023,0.0,0.0,0.0,0.0,-1.2315,-1.2757,0.0,0.0,0.0,0.0,0.0,0.0,0.0,0.0,0.0,0.0,0.0,0.0,0.0,0.0,0.0,0.0,0.0,-2.1204,-2.0902,-2.0495,-2.0261,-1.9984,-1.9851,-1.9715,-1.9627,-1.9627,-1.9715,-1.9548,-1.9469,-1.946,-1.8811,-1.8357,-1.8073,-1.7818,0.0,-1.6193,-1.675,-1.667,-1.6193,-1.6093,-1.5724,-1.5099,-1.3966,-1.2981,-1.2283,0.0,0.0,0.0,0.0,0.0,0.0,0.0,0.0,0.0,0.0,0.0,0.0,0.0,0.0,0.0,0.0,0.0,0.0,0.0,0.0,0.0,0.0,0.0,0.0,0.0,0.0,0.0,0.0,0.0,0.0,0.0,0.0,0.0,0.0,0.0,0.0,0.0,0.0,0.0,0.0,0.0,0.0,0.0,0.0,0.0,0.0,0.0,0.0,0.0,0.0,-0.8148,-0.8947,-0.9346,-0.9137,-0.8975,-0.9721,-0.9547,-0.9244,-1.0154,-1.0764,-1.1312,-1.2046,-1.3156,-1.3692,-1.2317,-1.2291,0.0,0.0,-1.0672,-1.1122,-1.1888,0.0,0.0,0.0,0.0,0.0,0.0,0.0,0.0,0.0,0.0,0.0,0.0,0.0,0.0,0.0,0.0,0.0,-2.114,-2.0775,-2.0382,-1.9989,-1.9889,-1.9732,-1.9487,-1.9311,-1.9311,-1.9557,-1.9228,-1.9094,-1.9006,-1.8366,-1.7854,-1.7411,-1.7287,0.0,0.0,-1.5889,-1.5745,-1.5061,-1.4723,-1.4652,-1.4464,-1.2982,-1.2296,-1.2091,0.0,0.0,0.0,0.0,0.0,0.0,0.0,0.0,0.0,0.0,0.0,0.0,0.0,0.0,0.0,0.0,0.0,0.0,0.0,0.0,0.0,0.0,0.0,0.0,0.0,0.0,0.0,0.0,0.0,0.0,0.0,0.0,0.0,0.0,0.0,0.0,0.0,0.0,0.0,0.0,0.0,0.0,0.0,0.0,0.0,0.0,0.0,0.0,0.0,0.0,0.0,-0.7578,-0.7947,-0.8105,-0.8093,-0.8112,0.0,0.0,-0.9197,-1.048,-1.1715,-1.1227,-1.2157,-1.2968,-1.2437,0.0,0.0,-1.0369,-0.9922,-0.9922,-1.0879,-1.158,0.0,0.0,0.0,0.0,0.0,0.0,0.0,0.0,0.0,0.0,0.0,0.0,0.0,0.0,0.0,0.0,0.0,-2.1195,-2.0793,-2.0156,-1.986,-1.9471,-1.9082,-1.9002,-1.9152,-1.9301,-1.8632,-1.8315,-1.8297,-1.7515,-1.7078,-1.7052,0.0,0.0,0.0,-1.5412,-1.5243,-1.4629,-1.4404,-1.4392,-1.4258,-1.2975,-1.2017,-1.1311,0.0,0.0,0.0,0.0,0.0,0.0,0.0,0.0,0.0,0.0,0.0,0.0,0.0,0.0,0.0,0.0,0.0,0.0,0.0,0.0,0.0,0.0,0.0,0.0,0.0,0.0,0.0,-0.8137,-0.8883,0.0,0.0,0.0,0.0,0.0,0.0,0.0,0.0,0.0,0.0,0.0,0.0,0.0,0.0,0.0,0.0,0.0,0.0,0.0,0.0,0.0,0.0,0.0,-0.715,-0.721,0.0,0.0,-0.8289,-0.9201,-0.8606,-0.9594,-1.0725,-1.0449,-1.1343,-1.1888,-1.0678,0.0,-1.0583,-0.9423,-0.9094,-0.9332,-1.0177,-1.0607,-1.1195,0.0,0.0,0.0,0.0,0.0,0.0,0.0,0.0,0.0,0.0,0.0,0.0,0.0,0.0,0.0,0.0,-2.0638,-2.049,-1.9534,-1.9431,-1.9245,-1.886,-1.8683,-1.8674,-1.8754,-1.8285,-1.8056,-1.8047,-1.7346,-1.7012,-1.6918,0.0,0.0,0.0,-1.4007,-1.369,-1.2691,-1.3348,-1.344,-1.3144,-1.2099,-1.1442,-1.0862,0.0,0.0,0.0,0.0,0.0,0.0,0.0,0.0,0.0,0.0,0.0,0.0,0.0,0.0,0.0,0.0,0.0,0.0,0.0,0.0,0.0,0.0,0.0,0.0,0.0,0.0,0.0,-0.9204,-0.994,-1.0316,0.0,0.0,0.0,0.0,0.0,0.0,0.0,0.0,0.0,0.0,0.0,0.0,0.0,0.0,0.0,0.0,0.0,0.0,0.0,0.0,0.0,0.0,0.0,0.0,0.0,0.0,-0.8001,-0.892,-0.8587,-0.9179,-1.0035,-1.0072,-1.0716,-1.0912,0.0,0.0,-1.0133,-0.875,-0.8641,-0.8894,-0.9454,-0.9582,-1.0012,-1.1431,0.0,-1.2584,0.0,0.0,0.0,0.0,0.0,0.0,0.0,0.0,0.0,0.0,0.0,0.0,0.0,-1.9582,-1.9665,-1.8806,-1.8946,-1.8836,-1.8371,-1.8282,-1.8193,-1.8273,-1.759,-1.7204,-1.7044,-1.6526,-1.5942,-1.5433,0.0,0.0,0.0,-1.3071,-1.2736,-1.1706,-1.2441,-1.2665,-1.2433,-1.1434,-1.0895,-1.0554,0.0,0.0,0.0,0.0,0.0,0.0,0.0,0.0,0.0,0.0,0.0,0.0,0.0,0.0,0.0,0.0,0.0,0.0,0.0,0.0,0.0,0.0,0.0,0.0,0.0,0.0,-0.9599,-0.9176,-0.988,-1.0308,-1.0522,-1.0624,-1.0769,-1.0922,0.0,0.0,0.0,0.0,0.0,0.0,0.0,0.0,0.0,0.0,0.0,0.0,0.0,0.0,0.0,0.0,0.0,0.0,0.0,-0.7252,-0.738,0.0,-0.7668,-0.8462,-0.9134,-0.9647,-1.0035,-1.024,-1.0228,-1.0033,0.0,0.0,-0.9306,-0.8614,-0.8517,-0.8517,-0.8511,-0.8511,-0.8799,-0.9754,-1.0251,0.0,0.0,0.0,0.0,0.0,0.0,0.0,0.0,0.0,0.0,0.0,0.0,0.0,0.0,-1.8196,-1.828,-1.828,-1.828,-1.8086,-1.77,-1.77,-1.7781,-1.7951,-1.6349,-1.525,-1.4737,-1.4433,-1.3525,0.0,0.0,0.0,0.0,-1.2849,-1.2868,-1.2338,-1.2123,-1.2254,-1.2504,-1.1144,-1.0636,-1.0376,0.0,0.0,0.0,0.0,0.0,0.0,0.0,0.0,0.0,0.0,0.0,0.0,0.0,0.0,0.0,0.0,0.0,0.0,0.0,0.0,0.0,0.0,0.0,0.0,0.0,0.0,-1.0175,-0.9684,-1.0081,-1.0286,-1.0385,-1.0581,-1.0912,-1.1318,-1.1318,0.0,0.0,0.0,0.0,0.0,0.0,0.0,0.0,0.0,0.0,0.0,0.0,0.0,0.0,0.0,0.0,0.0,0.0,0.0,0.0,-0.726,-0.7991,-0.8669,-0.8386,-0.9008,-0.9729,-0.9562,-0.9708,-0.9642,-0.9108,0.0,-0.9146,-0.8608,-0.8517,-0.8517,-0.8517,-0.8517,-0.8733,-0.9339,-0.9631,0.0,0.0,0.0,0.0,0.0,0.0,0.0,0.0,0.0,0.0,0.0,0.0,0.0,0.0,-1.6451,-1.6534,-1.6534,-1.7302,-1.7335,-1.6535,-1.7041,-1.7041,-1.6445,-1.586,-1.4998,-1.3983,-1.4226,0.0,0.0,0.0,0.0,0.0,-1.1993,-1.1665,-1.0886,-1.1299,-1.1408,-1.123,-1.0722,-1.0467,-0.9941,0.0,0.0,0.0,0.0,0.0,0.0,0.0,0.0,0.0,0.0,0.0,0.0,0.0,0.0,0.0,0.0,0.0,0.0,0.0,0.0,0.0,0.0,0.0,0.0,0.0,-1.0873,-1.0648,-1.0446,-1.0548,-1.049,-1.031,-1.0645,-1.0937,-1.1267,-1.1267,0.0,0.0,0.0,0.0,0.0,0.0,0.0,-1.326,0.0,0.0,0.0,0.0,0.0,0.0,0.0,0.0,0.0,0.0,0.0,0.0,0.0,-0.793,-0.8425,0.0,-0.8912,-0.9544,-0.9392,-0.942,0.0,0.0,0.0,-0.8929,-0.8576,-0.8651,-0.8721,-0.8549,-0.8657,-0.8813,-0.8926,-0.9319,0.0,0.0,0.0,0.0,0.0,0.0,0.0,0.0,0.0,0.0,0.0,0.0,0.0,0.0,0.0,-1.4866,-1.4622,-1.5545,-1.5801,-1.5289,-1.5711,-1.5628,-1.5039,-1.4803,-1.409,-1.2941,-1.3391,0.0,0.0,0.0,0.0,0.0,-1.1483,-1.1069,-1.031,-1.0815,-1.0722,-1.0381,-1.0381,-0.9946,-0.9244,0.0,0.0,0.0,0.0,0.0,0.0,0.0,0.0,0.0,0.0,0.0,0.0,0.0,0.0,0.0,0.0,0.0,0.0,0.0,0.0,0.0,0.0,0.0,0.0,0.0,-1.1357,-1.0971,-1.121,-1.1135,-1.0847,-1.0358,-1.0664,-1.0897,-1.0922,-1.0922,0.0,0.0,0.0,0.0,0.0,0.0,0.0,0.0,0.0,0.0,0.0,0.0,0.0,0.0,0.0,0.0,0.0,0.0,0.0,0.0,0.0,0.0,0.0,0.0,-0.9177,0.0,0.0,0.0,0.0,0.0,0.0,0.0,-0.8554,-0.8904,-0.9071,-0.8646,-0.8942,-0.9104,-0.8641,-0.9324,0.0,0.0,0.0,0.0,0.0,0.0,0.0,0.0,0.0,0.0,0.0,0.0,0.0,0.0,0.0,-1.3542,-1.2619,-1.3372,-1.3873,-1.388,-1.3957,-1.3937,-1.3898,-1.3275,-1.2517,-1.1658,-1.2052,0.0,0.0,0.0,0.0,0.0,-1.1068,-1.0982,-1.0549,-1.0549,-1.0294,-0.9951,-0.9951,-0.9336,-0.8364,0.0,0.0,0.0,0.0,0.0,0.0,0.0,0.0,0.0,0.0,0.0,0.0,0.0,0.0,0.0,0.0,0.0,0.0,0.0,0.0,0.0,0.0,0.0,0.0,0.0,-1.1422,-1.1073,-1.0294,-1.0729,-1.0828,-1.059,-1.04,-1.0689,-1.1326,-1.1023,0.0,0.0,0.0,0.0,0.0,0.0,0.0,0.0,0.0,0.0,0.0,-0.9655,-0.9202,0.0,0.0,0.0,0.0,0.0,0.0,0.0,0.0,-0.7881,-0.8207,-0.8501,0.0,-0.8778,-0.8778,-0.8698,-0.8618,0.0,0.0,0.0,0.0,0.0,0.0,0.0,-0.9432,-0.9599,-0.912,-0.9534,0.0,0.0,0.0,0.0,0.0,0.0,0.0,0.0,0.0,0.0,0.0,0.0,0.0,0.0,0.0,-1.2772,-1.1688,-1.186,-1.2277,-1.3039,-1.3711,-1.3566,-1.265,-1.3098,-1.2349,-1.0498,-1.125,0.0,0.0,0.0,0.0,-1.0207,-1.0549,-1.0549,-1.012,-1.012,-1.0125,-0.9951,-0.9157,-0.8719,-0.8277,0.0,0.0,0.0,0.0,0.0,0.0,0.0,0.0,0.0,0.0,0.0,0.0,0.0,0.0,0.0,0.0,0.0,0.0,0.0,0.0,0.0,0.0,0.0,0.0,-1.2396,-1.1743,-1.1165,-1.0701,-1.0762,-1.067,-1.031,-1.0108,-1.0409,-1.1124,-1.1147,0.0,0.0,0.0,0.0,0.0,-1.3415,0.0,0.0,0.0,0.0,0.0,-0.9194,-0.8895,0.0,-0.8597,-0.8226,-0.7788,0.0,0.0,0.0,0.0,-0.7471,-0.7694,-0.8243,-0.8447,-0.85,-0.8647,-0.8607,-0.8505,0.0,0.0,0.0,0.0,0.0,0.0,0.0,0.0,0.0,0.0,0.0,0.0,0.0,0.0,0.0,0.0,0.0,0.0,0.0,0.0,0.0,0.0,0.0,0.0,0.0,0.0,-1.1935,-1.1348,-1.1262,-1.1516,-1.2026,-1.2448,-1.2123,-1.1253,-1.1968,-1.147,-0.9967,-1.0533,0.0,0.0,0.0,0.0,-0.9676,-0.9909,-1.0028,-1.0038,-1.0038,-0.9689,-0.9244,-0.8719,-0.7834,-0.677,0.0,0.0,0.0,0.0,0.0,0.0,0.0,0.0,0.0,0.0,0.0,0.0,0.0,0.0,0.0,0.0,0.0,0.0,0.0,0.0,0.0,0.0,0.0,-1.3078,-1.3611,-1.2195,-1.1453,-1.1499,-1.1079,-1.0605,-1.0148,-0.9995,-1.0188,-1.0695,-1.1058,-1.1308,0.0,0.0,0.0,0.0,-1.3865,0.0,0.0,0.0,0.0,0.0,0.0,0.0,0.0,-0.8527,-0.8315,-0.7895,-0.7322,0.0,0.0,0.0,0.0,0.0,-0.7792,-0.8182,-0.8362,-0.8746,-0.8654,-0.8504,-0.8826,0.0,0.0,0.0,0.0,0.0,0.0,0.0,0.0,0.0,0.0,0.0,0.0,0.0,0.0,0.0,0.0,0.0,0.0,0.0,0.0,0.0,0.0,0.0,0.0,0.0,0.0,-1.1262,-1.1262,-1.1262,-1.1262,-1.1094,-1.0758,-1.0184,-1.0758,-1.0559,-0.9721,-1.01,-1.0033,0.0,0.0,0.0,-0.9323,-0.9228,-0.9545,-0.9951,-0.9859,-0.9248,-0.8456,-0.8101,-0.6681,-0.4999,0.0,0.0,0.0,0.0,0.0,0.0,0.0,0.0,0.0,0.0,0.0,0.0,0.0,0.0,0.0,0.0,0.0,0.0,0.0,0.0,0.0,0.0,-1.3507,-1.2969,-1.2813,-1.2594,-1.2141,-1.1415,-1.1483,-1.1443,-1.1223,-1.0311,-1.0149,-1.0538,-1.0352,-1.0872,-1.192,-1.235,-1.2728,-1.3212,-1.342,0.0,0.0,0.0,0.0,0.0,0.0,0.0,0.0,-0.8521,-0.7931,-0.7106,-0.7184,0.0,0.0,0.0,0.0,0.0,-0.719,-0.7396,-0.7631,-0.8468,-0.8446,-0.8356,-0.8821,0.0,0.0,0.0,0.0,0.0,0.0,0.0,0.0,0.0,0.0,0.0,0.0,0.0,0.0,0.0,0.0,0.0,0.0,0.0,0.0,0.0,0.0,0.0,0.0,0.0,0.0,-1.1262,-1.1262,-1.1262,-1.1262,-1.1094,-1.0837,-1.0418,-1.0831,-1.0557,-0.9872,-1.0169,-1.0033,0.0,0.0,-0.8761,-0.951,-0.8922,-0.9191,-0.9951,-0.9069,-0.8632,-0.8277,-0.6236,-0.5351,-0.4732,0.0,0.0,0.0,0.0,0.0,0.0,0.0,0.0,0.0,0.0,0.0,0.0,0.0,0.0,0.0,0.0,0.0,0.0,0.0,0.0,0.0,-1.3999,-1.3657,-1.3346,-1.302,-1.2728,-1.2254,-1.1646,-1.1328,-1.1228,-1.1377,-1.1243,-1.1079,-1.095,-1.1538,-1.2132,-1.2717,-1.3157,-1.337,-1.3482,0.0,0.0,0.0,0.0,0.0,0.0,0.0,0.0,0.0,0.0,-0.8081,-0.7339,-0.6987,0.0,0.0,0.0,0.0,0.0,-0.6798,-0.7003,-0.7216,-0.8332,-0.8349,-0.8358,0.0,0.0,0.0,0.0,0.0,0.0,0.0,0.0,0.0,0.0,0.0,0.0,0.0,0.0,0.0,0.0,0.0,0.0,0.0,0.0,0.0,0.0,0.0,0.0,0.0,0.0,0.0,0.0,-1.1089,-1.1003,-1.0733,-1.0651,-1.0447,-1.0046,-1.0204,-0.9926,-0.9426,-0.988,-0.9685,-0.8803,0.0,-0.8021,-0.8089,-0.8162,-0.8279,-0.8448,-0.8452,-0.7742,-0.6325,-0.4289,-0.3491,-0.3312,0.0,0.0,0.0,0.0,0.0,0.0,0.0,0.0,0.0,0.0,0.0,0.0,0.0,0.0,0.0,0.0,0.0,0.0,0.0,0.0,-1.4099,-1.3824,-1.3786,-1.359,-1.3132,-1.2706,-1.2218,-1.1693,-1.1282,-1.1129,-1.1326,-1.1868,-1.184,-1.1395,-1.2392,-1.2965,-1.3275,-1.3635,-1.3709,-1.3501,0.0,0.0,0.0,0.0,0.0,0.0,0.0,0.0,0.0,0.0,0.0,0.0,0.0,0.0,0.0,-0.5233,-0.5,-0.5156,-0.6203,-0.6474,-0.6836,-0.8079,-0.8214,0.0,0.0,0.0,0.0,0.0,0.0,0.0,0.0,0.0,0.0,0.0,0.0,0.0,0.0,0.0,0.0,0.0,0.0,0.0,0.0,0.0,0.0,0.0,0.0,0.0,0.0,0.0,0.0,0.0,-1.0472,-1.0386,-1.0294,-0.9941,-0.9785,-0.9807,-0.9724,-0.9531,-0.9256,-0.9558,-0.9161,-0.8273,-0.7658,-0.7175,-0.6936,-0.7225,-0.7264,-0.7122,-0.7658,-0.6505,-0.4289,-0.2778,-0.2154,-0.1974,0.0,0.0,0.0,0.0,0.0,0.0,0.0,0.0,0.0,0.0,0.0,0.0,0.0,0.0,0.0,0.0,0.0,0.0,0.0,0.0,-1.3999,-1.432,-1.4002,-1.3362,-1.2382,-1.2578,-1.2194,-1.1146,-1.1829,-1.1894,-1.1326,-1.1504,-1.1532,-1.1499,-1.144,-1.2043,-1.3011,-1.2997,-1.3019,-1.2949,-1.2083,0.0,0.0,0.0,0.0,0.0,0.0,0.0,0.0,0.0,0.0,0.0,0.0,0.0,-0.465,-0.4449,-0.4359,-0.4498,-0.5087,-0.5554,-0.6171,-0.717,-0.7723,0.0,-0.9602,-0.9015,0.0,-1.0263,0.0,0.0,0.0,0.0,0.0,0.0,0.0,0.0,0.0,0.0,0.0,0.0,0.0,0.0,0.0,0.0,0.0,0.0,0.0,0.0,0.0,0.0,0.0,0.0,0.0,-0.9226,-1.0294,-0.8973,-0.8952,-1.0225,-1.0101,-0.9927,-0.9885,-0.9052,-0.8544,-0.8364,-0.658,-0.6316,-0.7034,-0.6228,-0.6316,-0.7034,-0.6245,-0.4736,-0.2956,-0.2422,-0.1885,-0.1436,0.0,0.0,0.0,0.0,0.0,0.0,0.0,0.0,0.0,0.0,0.0,0.0,0.0,0.0,0.0,0.0,0.0,0.0,0.0,0.0,-1.4531,-1.3972,-1.3887,-1.3504,-1.2679,-1.3185,-1.2978,-1.2113,-1.2218,-1.2393,-1.2545,-1.2596,-1.2664,-1.2771,-1.2928,-1.3058,-1.3092,-1.2976,-1.2625,-1.2053,-1.0911,-1.0058,0.0,0.0,0.0,0.0,0.0,0.0,0.0,0.0,-0.7988,-0.6992,-0.6644,-0.5698,-0.4698,-0.4547,-0.4364,-0.4498,-0.5484,-0.5818,-0.6289,-0.7943,-0.8106,0.0,0.0,-0.9239,-0.8995,-1.0701,0.0,0.0,0.0,0.0,0.0,0.0,0.0,0.0,0.0,0.0,0.0,0.0,0.0,0.0,0.0,0.0,0.0,0.0,0.0,0.0,0.0,0.0,0.0,0.0,0.0,-0.7555,-0.7654,-0.8002,-0.8181,-0.8093,-0.8632,-0.8986,-0.9069,-0.8097,-0.7305,-0.6691,-0.5983,-0.5539,-0.5359,-0.563,-0.5539,-0.527,-0.4654,-0.3762,-0.2868,-0.2333,-0.1525,-0.0538,0.0,0.0,0.0,0.0,0.0,0.0,0.0,0.0,0.0,0.0,0.0,0.0,0.0,0.0,0.0,0.0,0.0,0.0,0.0,-1.4894,-1.4599,-1.38,-1.3825,-1.3746,-1.339,-1.383,-1.3605,-1.2672,-1.2577,-1.274,-1.3096,-1.3308,-1.3161,-1.2744,-1.3277,-1.3122,-1.241,-1.2292,-1.1847,-1.1107,-1.0155,-0.9458,0.0,0.0,0.0,0.0,0.0,0.0,0.0,0.0,-0.77,-0.6961,-0.6447,-0.5589,-0.4764,-0.4561,-0.4495,-0.4761,-0.555,-0.5789,-0.6291,-0.7988,0.0,0.0,-0.9538,-0.9221,-0.8998,-1.0533,0.0,0.0,0.0,0.0,0.0,0.0,0.0,0.0,0.0,0.0,0.0,0.0,0.0,0.0,0.0,0.0,0.0,0.0,0.0,0.0,0.0,0.0,0.0,0.0,0.0,-0.6062,-0.6068,-0.677,-0.6949,-0.6779,-0.7132,-0.7573,-0.8009,-0.7126,-0.6334,-0.5719,-0.5364,-0.4921,-0.4387,-0.501,-0.4921,-0.421,-0.3585,-0.3227,-0.2778,-0.1883,-0.0897,-0.009,0.0,0.0,0.0,0.0,0.0,0.0,0.0,0.0,0.0,0.0,0.0,0.0,0.0,0.0,0.0,0.0,0.0,0.0,-1.3841,-1.3844,-1.3917,-1.3917,-1.3895,-1.4084,-1.4506,-1.4506,-1.3853,-1.2595,-1.2932,-1.2968,-1.2752,-1.334,-1.2668,-1.1057,-1.1859,-1.165,-1.077,-1.0778,-1.0616,-1.0354,-0.9802,-0.9487,-0.9321,0.0,0.0,0.0,0.0,0.0,0.0,0.0,-0.7327,-0.6484,-0.6408,-0.5683,-0.4697,-0.437,-0.4697,-0.509,-0.509,-0.5396,-0.5956,0.0,0.0,0.0,-0.9236,-0.8988,-0.8626,-0.9812,0.0,0.0,0.0,0.0,0.0,0.0,0.0,0.0,0.0,0.0,0.0,0.0,0.0,0.0,0.0,0.0,0.0,0.0,0.0,0.0,0.0,0.0,0.0,0.0,0.0,0.0,-0.6068,-0.5092,-0.5359,-0.6779,-0.5802,-0.5977,-0.7034,-0.616,-0.5719,-0.563,-0.4743,-0.43,-0.43,-0.43,-0.43,-0.421,-0.3224,-0.2867,-0.2688,-0.0717,-0.0179,-0.0179,0.0,0.0,0.0,0.0,0.0,0.0,0.0,0.0,0.0,0.0,0.0,0.0,0.0,0.0,0.0,0.0,0.0,0.0,0.0,-1.4547,-1.4349,-1.3923,-1.416,-1.4387,-1.4506,-1.4396,-1.4325,-1.4308,-1.3203,-1.3284,-1.4449,-1.2895,-1.2211,-1.2208,-1.2003,-1.1318,-1.0352,-1.0741,-1.0411,-0.9519,-0.9119,-0.9016,-0.9029,0.0,0.0,0.0,0.0,0.0,0.0,0.0,0.0,0.0,-0.5536,-0.4894,-0.44,-0.4362,-0.4431,-0.4669,-0.519,-0.5545,0.0,0.0,0.0,0.0,0.0,-0.8905,0.0,0.0,0.0,0.0,0.0,0.0,0.0,0.0,0.0,0.0,0.0,0.0,0.0,0.0,0.0,0.0,0.0,0.0,0.0,0.0,0.0,0.0,0.0,0.0,0.0,0.0,0.0,0.0,-0.3853,-0.4383,-0.4472,-0.4293,-0.4823,-0.5445,-0.6071,-0.5186,-0.4743,-0.4743,-0.4387,-0.43,-0.4297,-0.3942,-0.3765,-0.3764,-0.3136,-0.2238,-0.1253,-0.0716,0.0448,0.1702,0.0,0.0,0.0,0.0,0.0,0.0,0.0,0.0,0.0,0.0,-1.8007,-1.7843,0.0,0.0,0.0,0.0,0.0,0.0,0.0,0.0,-1.4185,-1.3653,-1.4047,-1.4332,-1.4547,-1.4175,-1.4242,-1.483,-1.3603,-1.327,-1.3801,-1.2405,-1.1682,-1.1446,-1.1229,-1.058,-0.9714,-1.0066,-0.9842,-0.9122,-0.895,-0.895,-0.9081,0.0,0.0,0.0,0.0,0.0,0.0,0.0,0.0,0.0,-0.5027,-0.4633,-0.4519,-0.4635,-0.496,-0.5362,-0.6097,-0.6479,0.0,0.0,0.0,0.0,0.0,0.0,0.0,0.0,0.0,0.0,0.0,0.0,0.0,0.0,0.0,0.0,0.0,0.0,0.0,0.0,0.0,0.0,0.0,0.0,0.0,0.0,0.0,0.0,0.0,0.0,0.0,0.0,0.0,0.0,-0.3051,-0.3673,-0.376,-0.3227,-0.3937,-0.4561,-0.4921,-0.4389,-0.4212,-0.43,-0.43,-0.43,-0.43,-0.4032,-0.3583,-0.2955,-0.2508,-0.1431,-0.0089,0.0358,0.1342,0.2418,0.0,0.0,0.0,0.0,0.0,0.0,0.0,0.0,0.0,0.0,-1.7633,-1.739,0.0,0.0,0.0,0.0,0.0,0.0,0.0,0.0,-1.3682,-1.3314,-1.3708,-1.4218,-1.4706,-1.3961,-1.3931,-1.4609,-1.391,-1.2998,-1.1846,-1.1864,-1.1114,-0.9716,-0.9939,-0.9675,-0.9095,-0.9168,-0.9174,-0.907,-0.9094,-0.9162,-0.9315,-0.8803,0.0,0.0,0.0,0.0,0.0,0.0,0.0,0.0,-0.4897,-0.4723,-0.4722,-0.5122,-0.5783,-0.6583,-0.7191,0.0,0.0,0.0,0.0,0.0,0.0,0.0,0.0,0.0,0.0,0.0,0.0,0.0,0.0,0.0,0.0,0.0,0.0,0.0,0.0,0.0,0.0,0.0,0.0,0.0,0.0,0.0,0.0,0.0,0.0,0.0,0.0,0.0,0.0,-0.3227,-0.3227,-0.3227,-0.3227,0.0,-0.3227,-0.3497,-0.3859,-0.3859,-0.4034,-0.43,-0.43,-0.4297,-0.421,-0.4119,-0.322,-0.1966,-0.1341,-0.0358,0.0984,0.2059,0.2418,0.2418,0.0,0.0,0.0,0.0,0.0,0.0,0.0,0.0,0.0,0.0,0.0,0.0,0.0,0.0,0.0,0.0,0.0,0.0,0.0,0.0,-1.3252,-1.3286,-1.4089,-1.469,-1.4911,-1.4582,-1.4402,-1.4517,-1.325,-1.2815,-1.3137,-1.1591,-1.0725,-1.0564,-0.9916,-0.934,-0.8807,-0.943,-0.9518,-0.9082,-0.8926,-0.8867,-0.8728,-0.7687,-0.7321,0.0,0.0,0.0,0.0,0.0,0.0,0.0,-0.45,-0.4403,-0.4404,-0.4466,-0.5179,-0.5775,-0.5406,-0.6457,0.0,0.0,0.0,0.0,0.0,0.0,0.0,0.0,0.0,0.0,0.0,0.0,0.0,0.0,0.0,0.0,0.0,0.0,0.0,0.0,0.0,0.0,0.0,0.0,0.0,0.0,0.0,0.0,0.0,0.0,0.0,0.0,-0.3139,-0.3227,-0.3227,-0.3406,-0.3497,0.0,-0.3497,-0.3587,-0.3678,-0.3857,-0.4034,-0.43,-0.43,-0.4121,-0.3676,-0.2506,-0.161,-0.0894,0.0358,0.1342,0.2149,0.2418,0.2688,0.3047,0.0,0.0,0.0,0.0,0.0,0.0,0.0,0.0,0.0,0.0,0.0,0.0,0.0,0.0,0.0,0.0,0.0,0.0,0.0,0.0,0.0,-1.3561,-1.44,-1.481,-1.4556,-1.4209,-1.3926,-1.3717,-1.2637,-1.2178,-1.2305,-1.1047,-1.0399,-1.0228,-0.9587,-0.9202,-0.9088,-0.9508,-0.9391,-0.8823,-0.8703,-0.8431,-0.7967,-0.7125,-0.6802,-0.6732,-0.6342,0.0,0.0,0.0,0.0,0.0,0.0,0.0,-0.4541,-0.4755,-0.5194,-0.5689,0.0,0.0,0.0,0.0,0.0,0.0,0.0,0.0,0.0,0.0,0.0,0.0,0.0,0.0,0.0,0.0,0.0,0.0,0.0,0.0,0.0,0.0,0.0,0.0,0.0,0.0,0.0,0.0,0.0,0.0,0.0,0.0,0.0,-0.3051,-0.3138,-0.3227,-0.3406,-0.3497,-0.3587,-0.3587,-0.3136,-0.2957,-0.3136,-0.3676,-0.4034,-0.43,-0.4032,-0.3583,-0.2864,-0.179,-0.0536,0.0715,0.1342,0.2238,0.3136,0.2957,0.2957,0.3227,0.0,0.0,0.0,0.0,0.0,0.0,0.0,0.0,0.0,0.0,0.0,0.0,0.0,0.0,0.0,0.0,0.0,0.0,0.0,0.0,0.0,0.0,-1.4432,-1.4592,-1.383,-1.3582,-1.3275,-1.2974,-1.2309,-1.1642,-1.0953,-1.0725,-1.0335,-0.9787,-0.9462,-0.9352,-0.9484,-0.9484,-0.9087,-0.849,-0.8425,-0.7907,-0.719,-0.6736,-0.6544,-0.6474,-0.6276,-0.5881,-0.5484,-0.5425,0.0,0.0,0.0,0.0,-0.4692,-0.5017,-0.5421,-0.58,0.0,0.0,0.0,0.0,0.0,0.0,0.0,0.0,0.0,0.0,0.0,0.0,0.0,0.0,0.0,0.0,0.0,0.0,0.0,0.0,0.0,0.0,0.0,0.0,0.0,0.0,0.0,0.0,0.0,0.0,0.0,0.0,-0.2962,-0.3138,-0.3138,-0.3317,-0.3497,-0.3408,-0.3406,-0.3406,-0.2418,-0.2149,-0.2597,-0.3136,-0.3585,-0.403,-0.3674,-0.2865,-0.1787,-0.1163,0.0268,0.2234,0.2148,0.2777,0.3767,0.3317,0.3138,0.3139,0.0,0.0,0.0,0.0,0.0,0.0,0.0,0.0,0.0,0.0,-1.5359,-1.5295,0.0,0.0,0.0,0.0,0.0,0.0,0.0,0.0,0.0,0.0,-1.3547,-1.3873,-1.3208,-1.3408,-1.3353,-1.3186,-1.2661,-1.2037,0.0,0.0,0.0,-1.064,0.0,-0.9874,-0.9484,-0.9484,-0.9087,-0.849,-0.7967,-0.7312,-0.6465,-0.6148,-0.5885,-0.5815,-0.6079,-0.5749,-0.5223,-0.5359,-0.4964,0.0,0.0,0.0,-0.4341,-0.4439,-0.5017,-0.5584,0.0,0.0,0.0,0.0,0.0,0.0,0.0,0.0,0.0,0.0,0.0,0.0,0.0,0.0,0.0,0.0,0.0,0.0,0.0,0.0,0.0,0.0,0.0,0.0,0.0,0.0,0.0,0.0,0.0,0.0,0.0,-0.2875,-0.2875,-0.2963,-0.3139,-0.3227,-0.3227,-0.2867,-0.2688,-0.2598,-0.1432,-0.1611,-0.2777,-0.1611,-0.1879,-0.3047,-0.3047,-0.1969,-0.0268,0.0447,0.1431,0.2508,0.3136,0.3317,0.3317,0.3227,0.305,0.2963,0.0,0.0,0.0,0.0,0.0,0.0,0.0,0.0,0.0,0.0,0.0,-1.521,0.0,0.0,0.0,0.0,0.0,0.0,0.0,0.0,0.0,-1.2613,-1.3172,-1.324,-1.2666,-1.2658,-1.2553,-1.2279,-1.1932,0.0,0.0,-1.1559,-1.1108,0.0,0.0,0.0,0.0,-0.9253,-0.8676,-0.7451,-0.712,-0.6531,-0.5943,-0.5815,-0.5632,-0.5492,-0.5686,-0.5368,-0.4851,-0.4855,-0.4538,-0.4094,-0.4094,0.0,0.0,0.0,-0.4463,0.0,-0.4858,0.0,0.0,0.0,0.0,0.0,0.0,0.0,0.0,0.0,0.0,0.0,0.0,0.0,0.0,0.0,0.0,0.0,0.0,0.0,0.0,0.0,0.0,0.0,0.0,0.0,0.0,0.0,0.0,0.0,-0.2873,-0.2334,-0.2334,-0.2873,-0.2962,-0.305,-0.3227,-0.2508,-0.1701,-0.0896,-0.0358,-0.0537,-0.1254,-0.0448,-0.1075,-0.2867,-0.2061,-0.0806,0.0626,0.1254,0.2151,0.3136,0.3317,0.3317,0.3227,0.305,0.3406,0.3851,0.0,0.0,0.0,0.0,0.0,0.0,0.0,0.0,0.0,0.0,0.0,0.0,0.0,0.0,0.0,0.0,0.0,0.0,0.0,0.0,0.0,-1.2597,-1.2719,-1.2554,-1.2058,-1.1926,-1.1802,-1.1622,0.0,0.0,-1.1649,-1.1422,-1.0861,0.0,-1.0592,-0.9946,0.0,0.0,0.0,0.0,-0.6589,-0.6125,-0.5494,-0.5599,-0.5545,-0.5449,-0.5581,0.0,0.0,0.0,0.0,0.0,0.0,0.0,0.0,0.0,0.0,0.0,0.0,0.0,0.0,0.0,0.0,0.0,0.0,0.0,0.0,0.0,0.0,0.0,0.0,0.0,0.0,0.0,0.0,0.0,0.0,0.0,0.0,0.0,0.0,0.0,0.0,0.0,0.0,0.0,0.0,0.0,-0.2154,-0.1436,-0.1346,-0.2154,-0.2154,-0.2242,-0.2419,-0.1522,-0.0448,0.0718,0.0807,0.0538,0.0,0.0538,-0.0269,-0.206,-0.0986,0.0179,0.1433,0.1793,0.2511,0.3406,0.3229,0.3139,0.3139,0.3318,0.3851,0.4648,0.0,0.0,0.0,0.0,0.0,0.0,0.0,0.0,0.0,0.0,0.0,0.0,0.0,-1.5342,-1.5109,-1.4523,0.0,0.0,0.0,0.0,0.0,-1.1864,-1.2003,0.0,-1.1365,-1.156,-1.1622,0.0,0.0,0.0,-1.0426,-1.0524,-0.999,-0.9018,-0.9764,-0.9497,-0.8289,0.0,0.0,0.0,0.0,0.0,-0.5159,-0.5494,0.0,0.0,0.0,0.0,0.0,0.0,0.0,0.0,0.0,0.0,0.0,0.0,0.0,0.0,0.0,0.0,0.0,0.0,0.0,0.0,0.0,0.0,0.0,0.0,0.0,0.0,0.0,0.0,0.0,0.0,0.0,0.0,0.0,0.0,0.0,0.0,0.0,0.0,0.0,0.0,0.0,0.0,0.0,0.0,-0.0179,-0.009,-0.009,-0.0179,-0.0179,-0.0179,-0.0179,0.0538,0.1256,0.1705,0.1974,0.1345,0.0,0.1166,0.1076,-0.0179,-0.009,0.0807,0.2154,0.2154,0.2511,0.2957,0.2962,0.2873,0.3053,0.4117,0.4559,0.4736,0.0,0.0,0.0,0.0,0.0,0.0,0.0,0.0,0.0,0.0,0.0,0.0,0.0,-1.4824,-1.4765,-1.4529,-1.3992,0.0,0.0,0.0,0.0,-1.1373,-1.1373,-1.1428,-1.1498,-1.1638,-1.1739,0.0,0.0,-1.1129,-1.0749,-1.0293,-0.9491,-0.8405,-0.9682,-0.9275,-0.7718,-0.8146,0.0,0.0,0.0,0.0,0.0,0.0,0.0,0.0,0.0,0.0,0.0,0.0,0.0,0.0,0.0,0.0,0.0,0.0,0.0,0.0,0.0,0.0,0.0,0.0,0.0,0.0,0.0,0.0,0.0,0.0,0.0,0.0,0.0,0.0,0.0,0.0,0.0,0.0,0.0,0.0,0.0,0.0,0.0,0.0,0.0,0.0,0.0,0.0,0.0,0.0,0.0,0.0517,0.0515,0.0,0.0,0.0269,0.0897,0.0897,0.1256,0.2064,0.1974,0.1615,0.0897,0.1525,0.1436,0.0897,0.0897,0.1436,0.2243,0.2334,0.2603,0.2872,0.2873,0.3318,0.4028,0.4472,0.562,0.6943,0.0,0.0,0.0,0.0,0.0,0.0,0.0,0.0,0.0,0.0,0.0,0.0,0.0,0.0,-1.3923,-1.3683,-1.3194,-1.2578,-1.1959,-1.1745,-1.1553,-1.1302,-1.1302,-1.1432,-1.1689,-1.179,0.0,0.0,0.0,0.0,0.0,-0.9381,-0.8453,-0.7531,-0.8624,-0.8476,0.0,0.0,0.0,-0.6214,0.0,0.0,-0.5887,0.0,0.0,0.0,0.0,0.0,0.0,0.0,0.0,0.0,0.0,0.0,0.0,0.0,0.0,0.0,0.0,0.0,0.0,0.0,0.0,0.0,0.0,0.0,0.0,0.0,0.0,0.0,0.0,0.0,0.0,0.0,0.0,0.0,0.0,0.0,0.0,0.0,0.0,0.0,0.0,0.0,0.0,0.0,0.0,0.0,0.0984,0.1464,0.1544,0.0985,0.0987,0.1256,0.1794,0.1436,0.1525,0.2064,0.1885,0.1705,0.1436,0.1615,0.1525,0.1436,0.1525,0.1705,0.1974,0.2244,0.2691,0.3227,0.3406,0.4206,0.5267,0.562,0.6854,0.8269,0.0,0.0,0.0,0.0,0.0,0.0,0.0,0.0,0.0,-1.3974,0.0,0.0,0.0,0.0,0.0,-1.215,-1.1739,-1.1593,-1.1717,-1.1532,-1.1498,-1.1703,0.0,0.0,0.0,0.0,0.0,0.0,0.0,0.0,0.0,0.0,-0.6934,-0.6261,-0.6556,-0.6848,-0.7115,0.0,-0.7051,-0.6885,0.0,-0.662,-0.6441,0.0,0.0,0.0,-0.6512,-0.6192,0.0,0.0,0.0,0.0,0.0,0.0,0.0,0.0,0.0,0.0,0.0,0.0,0.0,0.0,0.0,0.0,0.0,0.0,0.0,0.0,0.0,0.0,0.0,0.0,0.0,0.0,0.0,0.0,0.0,0.0,0.0,0.0,0.0,0.0,0.0,0.0,0.0,0.0,0.0,0.2868,0.2875,0.2875,0.2875,0.2875,0.2875,0.2784,0.2513,0.2513,0.2243,0.1794,0.1794,0.1615,0.1436,0.1436,0.1436,0.1436,0.1705,0.1615,0.1525,0.2063,0.2955,0.4016,0.4467,0.5354,0.659,0.7738,0.8181,0.8444,0.0,0.0,0.0,0.0,0.0,0.0,0.0,0.0,0.0,0.0,0.0,0.0,-1.2371,-1.2485,-1.257,-1.2512,-1.2062,-1.1843,-1.1836,-1.1723,-1.1635,-1.1703,-1.1765,0.0,0.0,0.0,0.0,0.0,0.0,0.0,0.0,0.0,0.0,0.0,-0.6247,-0.6427,-0.6539,-0.7078,0.0,0.0,-0.7129,-0.6895,0.0,0.0,0.0,0.0,0.0,-0.6068,-0.5855,0.0,-0.5187,-0.4575,0.0,0.0,0.0,0.0,0.0,0.0,0.0058,0.0,0.0,0.0,0.0,0.0,0.0,0.0,0.0,0.0,0.0,0.0,0.0,0.0,0.0,0.0,0.0,0.0,0.0,0.0,0.0,0.0,0.0,0.0,0.0,0.0,0.0,0.0,0.232,0.2305,0.2597,0.2784,0.2875,0.2875,0.2694,0.2603,0.2513,0.2154,0.1885,0.1794,0.1615,0.1436,0.1436,0.1436,0.1436,0.1436,0.1436,0.1883,0.2509,0.3045,0.4022,0.5174,0.5354,0.6325,0.7738,0.8089,0.8711,0.951,0.0,0.0,0.0,0.0,0.0,0.0,0.0,0.0,0.0,0.0,0.0,0.0,-1.2058,-1.2059,-1.2116,-1.2195,-1.1959,-1.1777,-1.172,-1.1492,-1.1361,-1.1361,-1.1149,-1.0798,0.0,0.0,0.0,0.0,0.0,0.0,0.0,0.0,0.0,0.0,0.0,0.0,0.0,0.0,0.0,0.0,-0.7177,0.0,0.0,-0.718,-0.7204,0.0,0.0,0.0,-0.6474,-0.5958,-0.5304,0.0,0.0,0.0,0.0,0.0,0.0,0.0,0.0,0.0,0.0,0.0,0.0,0.0,0.0785,0.1058,0.0,0.0,0.0,0.0,0.0,0.0,0.0,0.0,0.0,0.0,0.0,0.0,0.0,0.0,0.0,0.0,0.0,0.0,0.0,0.2694,0.2428,0.2416,0.2689,0.2784,0.2873,0.2694,0.2603,0.2424,0.2243,0.1974,0.1705,0.1615,0.1436,0.1436,0.1436,0.1436,0.1436,0.1436,0.1436,0.2151,0.3489,0.3755,0.4732,0.606,0.6328,0.739,0.8715,0.889,0.9419,1.0038,0.0,0.0,0.0,0.0,0.0,0.0,0.0,0.0,0.0,0.0,-1.2043,-1.1976,-1.1847,-1.1607,-1.1499,-1.1368,-1.1431,-1.1452,-1.1313,-1.1012,-1.0811,-1.0811,-1.0182,-0.9689,-0.9265,0.0,0.0,0.0,0.0,0.0,0.0,0.0,0.0,0.0,0.0,0.0,0.0,0.0,0.0,-0.721,-0.7044,-0.7363,0.0,0.0,-0.7792,0.0,-0.7328,-0.7161,-0.7058,-0.6508,-0.5395,0.0,0.0,0.0,0.0,0.0,0.0,0.0,0.0,0.0,0.0,0.0,0.0,0.0,0.1461,0.1661,0.1852,0.0,0.0,0.0,0.0,0.0,0.0,0.0,0.0,0.0,0.0,0.0,0.0,0.0,0.0,0.0,0.0,0.0,0.2875,0.2873,0.2873,0.2873,0.2784,0.2784,0.2694,0.2513,0.2424,0.2243,0.1794,0.1794,0.1615,0.1436,0.1436,0.1436,0.1436,0.1436,0.1436,0.1436,0.1524,0.2596,0.4289,0.4378,0.5354,0.6681,0.7397,0.8372,0.9432,0.9864,1.0038,1.0038,-1.3569,0.0,0.0,0.0,0.0,0.0,0.0,0.0,0.0,0.0,0.0,-1.1282,0.0,0.0,-1.039,-1.0692,-1.0411,-1.0227,-1.0242,-1.0158,-1.0113,-1.0113,-0.9689,-0.92,-0.8433,-0.7953,0.0,0.0,0.0,0.0,0.0,0.0,0.0,0.0,0.0,0.0,0.0,0.0,0.0,-0.6349,-0.7017,0.0,-0.7363,-0.779,-0.7651,-0.7299,-0.7259,-0.7064,-0.6832,0.0,-0.4804,-0.3295,0.0,0.0,0.0,0.0,0.0,0.0,0.0,0.0,0.0,0.0,0.0,0.0,0.1016,0.1041,0.1213,0.0,0.0,0.0,0.0,0.0,0.0,0.0,0.0,0.0,0.0,0.0,0.0,0.0,0.0,0.0,0.0,0.0,0.2784,0.2604,0.2603,0.2424,0.2064,0.2334,0.2513,0.2244,0.2064,0.1885,0.1794,0.1615,0.1436,0.1436,0.1436,0.1436,0.1436,0.1436,0.1436,0.1436,0.224,0.3223,0.4378,0.5092,0.6511,0.8189,0.8368,0.8986,0.9868,0.9951,1.0038,1.0038,-1.3588,0.0,0.0,0.0,0.0,0.0,0.0,0.0,0.0,0.0,0.0,0.0,0.0,0.0,0.0,0.0,0.0,0.0,0.0,0.0,0.0,-0.9181,-0.8513,-0.7904,-0.73,-0.6813,-0.6333,0.0,0.0,0.0,0.0,0.0,0.0,0.0,0.0,0.0,0.0,0.0,-0.5547,-0.6088,-0.6766,0.0,-0.7312,-0.7838,-0.7851,-0.7719,-0.7337,-0.6952,-0.6418,-0.542,-0.4242,0.0,0.0,-0.1121,0.0,0.0,0.0,0.0066,0.0,0.0,0.0,0.0973,0.0,0.0,0.0,0.112,0.1221,0.0,0.0,0.0,0.0,0.0,0.0,0.0,0.0,0.0,0.0,0.0,0.0,0.0,0.0,0.0,0.0,0.3229,0.2871,0.2424,0.2334,0.2243,0.1974,0.2243,0.2243,0.1974,0.1884,0.1705,0.1615,0.1436,0.1436,0.1436,0.1436,0.1436,0.1436,0.1436,0.1436,0.1436,0.1973,0.2953,0.4378,0.4823,0.6419,0.8636,0.8636,0.899,0.9694,0.9951,1.0038,1.0038,-1.3425,0.0,0.0,0.0,0.0,0.0,0.0,0.0,0.0,0.0,0.0,0.0,0.0,0.0,0.0,0.0,0.0,0.0,0.0,0.0,0.0,0.0,-0.733,-0.6618,-0.6288,-0.5954,-0.5693,0.0,0.0,0.0,0.0,0.0,0.0,0.0,0.0,0.0,0.0,0.0,0.0,-0.5576,0.0,-0.6644,-0.7299,-0.7738,-0.7984,-0.7916,-0.7105,-0.6534,-0.5884,-0.4516,0.0,-0.2762,-0.1912,-0.0838,0.0,0.0,0.0,0.0,0.0,0.0,0.0,0.0,0.0,0.1139,0.0,0.0,0.0,0.1458,0.0,0.0,0.0,0.0,0.0,0.0,0.0,0.0,0.0,0.0,0.0,0.0,0.0,0.0,0.0,0.3493,0.3183,0.242,0.2511,0.2511,0.2243,0.2154,0.1974,0.1705,0.1705,0.1615,0.1436,0.1436,0.1436,0.1436,0.1436,0.1436,0.1436,0.1436,0.1436,0.1436,0.1614,0.2685,0.4289,0.4554,0.6239,0.8636,0.8636,0.8903,0.9519,0.9864,1.0038,1.0038,-1.2615,-1.2672,0.0,0.0,0.0,0.0,0.0,0.0,0.0,0.0,0.0,0.0,0.0,0.0,0.0,0.0,0.0,0.0,-0.7766,0.0,0.0,0.0,0.0,0.0,-0.5958,-0.5624,-0.5428,-0.5428,0.0,0.0,0.0,0.0,0.0,0.0,-0.4688,0.0,0.0,0.0,-0.3803,0.0,-0.4269,-0.5313,0.0,-0.7324,-0.7302,-0.6749,-0.5826,-0.5231,-0.4792,0.0,-0.2675,-0.1738,0.0,-0.0888,0.0,0.0,0.0,0.0,0.0,0.0,0.0,0.0,0.0898,0.0,0.0,0.0,0.0953,0.0953,0.0,0.0,0.0,0.0,0.0,0.0,0.0,0.0,0.0,0.0,0.0,0.0,0.0,0.0,0.0,0.0,0.4034,0.3124,0.3669,0.3489,0.2243,0.1974,0.1705,0.1436,0.1436,0.1436,0.1436,0.1436,0.1436,0.1436,0.1436,0.1436,0.1436,0.1436,0.1436,0.1436,0.2331,0.3312,0.4378,0.5617,0.7122,0.8636,0.8636,0.9161,0.9951,0.9951,1.0038,1.0038,-1.2305,-1.23,0.0,0.0,0.0,0.0,0.0,0.0,0.0,0.0,0.0,0.0,0.0,0.0,0.0,0.0,0.0,-0.876,0.0,0.0,0.0,0.0,0.0,0.0,0.0,-0.5561,-0.5428,-0.5428,-0.4957,0.0,0.0,0.0,0.0,0.0,-0.3145,0.0,-0.2637,0.0,0.0,0.0,0.0,0.0,0.0,-0.6255,-0.6637,-0.5719,-0.509,-0.4503,-0.3676,0.0,-0.1836,0.0,0.0,0.0,0.0,0.0,0.0,0.0,0.0,0.0,0.0,0.0,0.0,0.0,0.0,0.0,0.1002,0.0,0.0,0.0,0.0,0.0,0.0,0.0,0.0,0.0,0.0,0.0,0.0,0.0,0.0,0.0,0.0,0.0,0.0,0.0,0.0,0.2877,0.1698,0.1583,0.1525,0.1436,0.1436,0.1436,0.1436,0.1436,0.1436,0.1436,0.1436,0.1436,0.1436,0.1436,0.1436,0.1436,0.242,0.34,0.4376,0.5534,0.7041,0.8636,0.8636,0.9161,1.0038,1.0038,1.0038,1.0038,-1.1937,0.0,0.0,0.0,0.0,0.0,0.0,0.0,0.0,0.0,0.0,0.0,-0.9082,-0.8742,0.0,0.0,0.0,-0.9036,0.0,0.0,-0.7664,0.0,0.0,0.0,0.0,0.0,0.0,-0.4821,0.0,0.0,0.0,0.0,0.0,0.0,0.0,-0.1751,-0.1585,0.0,0.0,-0.1379,-0.1229,-0.1504,-0.2408,-0.4791,-0.5358,-0.48,-0.4127,-0.3401,-0.2581,-0.1254,-0.0918,0.0,-0.0267,0.0,0.0,0.0,0.0,0.0,0.0,0.0,0.0,0.0,0.0,0.0,0.0,0.0,0.0,0.0,0.0,0.0,0.0,0.0,0.0,0.0,0.0,0.0,0.0,0.0,0.0,0.0,0.0,0.0,0.0,0.0,0.0,0.0,0.3443,0.2756,0.1789,0.156,0.1436,0.1436,0.1436,0.1436,0.1436,0.1436,0.1436,0.1436,0.1436,0.1436,0.1436,0.1436,0.1524,0.1883,0.2598,0.358,0.4734,0.5714,0.7044,0.8636,0.8899,0.9423,1.0038,1.0038,1.0038,1.0038,-1.1175,-1.163,0.0,0.0,0.0,0.0,0.0,0.0,0.0,0.0,0.0,0.0,0.0,0.0,0.0,0.0,0.0,-0.8991,-0.8535,0.0,-0.7741,0.0,0.0,-0.5628,0.0,0.0,0.0,0.0,0.0,0.0,0.0,0.0,0.0,0.0,0.0,-0.0912,-0.0455,-0.0406,-0.0261,-0.0185,-0.0098,-0.1002,-0.239,0.0,-0.3355,-0.3815,-0.2312,0.0,0.0,-0.0377,0.0,0.0,0.0,0.0,0.0,0.0,0.0,0.0,0.0,0.0,0.0,0.0462,0.0,0.0,0.0,0.0,0.225,0.0,0.0,0.0,0.0,0.0,0.4082,0.4378,0.0,0.0,0.0,0.0,0.0,0.0,0.0,0.0,0.0,0.0,0.0,0.4873,0.474,0.4203,0.2919,0.1904,0.1436,0.1436,0.1436,0.1436,0.1436,0.1436,0.1436,0.1436,0.1436,0.1436,0.1436,0.1436,0.1973,0.2867,0.2867,0.3937,0.5719,0.6684,0.7658,0.8723,0.9602,0.9951,1.0038,1.0038,1.0038,1.0038,0.0,0.0,0.0,0.0,0.0,0.0,0.0,-0.7884,0.0,0.0,0.0,0.0,0.0,0.0,-0.9723,0.0,0.0,-0.9575,-0.8477,-0.8259,0.0,0.0,0.0,-0.5947,0.0,0.0,0.0,0.0,0.0,0.0,0.0,0.0,0.0,0.0,0.0,0.0411,0.0,0.0,0.0,0.0,0.0,0.0191,-0.0573,0.0,0.0,-0.2316,-0.1814,-0.111,0.0,-0.0094,0.0,0.0,0.0,0.0,0.0,0.0,0.0,0.0,0.0,0.0,0.0625,0.0698,0.0,0.0,0.0,0.0,0.0,0.0,0.0,0.0,0.0,0.0,0.4416,0.4709,0.5056,0.0,0.0,0.0,0.0,0.0,0.0,0.0,0.0,0.0,0.0,0.5259,0.4324,0.3354,0.0,0.166,0.1348,0.1348,0.1404,0.1436,0.1436,0.1436,0.1436,0.1436,0.1436,0.1436,0.1436,0.1436,0.1973,0.2957,0.3578,0.4559,0.5808,0.6691,0.7489,0.8113,0.8811,0.9253,0.9607,0.9864,1.0038,1.0038,-0.9391,0.0,0.0,0.0,0.0,0.0,0.0,0.0,0.0,0.0,-0.8941,0.0,-1.0269,0.0,-0.9839,0.0,-0.9656,-0.925,-0.8607,-0.7937,0.0,-0.7594,-0.6926,0.0,0.0,0.0,0.0,0.0,0.0,-0.0949,0.0,0.0,0.0,0.0,0.0,0.0,0.1127,0.0,0.1353,0.0,0.0,0.075,0.0,0.0,-0.1486,-0.1009,0.0,-0.0606,0.0,0.0,0.0,0.0,0.0,0.0,0.0,0.0,0.0,0.0,0.0,0.0287,0.0,0.0837,0.1067,0.0,0.2373,0.0,0.0,0.0,0.0,0.0,0.0,0.0,0.0,0.4694,0.4807,0.4921,0.0,0.5452,0.0,0.0,0.0,0.0,0.0,0.0,0.5632,0.4841,0.3982,0.3005,0.0,0.0,0.1303,0.1303,0.1388,0.1436,0.1436,0.1436,0.1436,0.1436,0.1436,0.1436,0.1436,0.1793,0.2509,0.3491,0.438,0.5359,0.6251,0.7051,0.7672,0.8113,0.864,0.9165,0.9607,0.9864,1.0038,1.0038,0.0,0.0,0.0,0.0,-0.7937,0.0,0.0,0.0,-0.9096,0.0,-0.9826,-0.9817,-1.0416,-0.954,-0.9165,-0.967,-0.8587,0.0,-0.8637,-0.7334,0.0,0.0,-0.6953,-0.6252,-0.625,0.0,0.0,0.0,0.0,0.0,0.0,0.0,0.0,0.0,0.0986,0.0,0.0976,0.1224,0.132,0.1274,0.0901,0.0668,0.04,0.0095,0.0,0.0,0.0,0.0,0.0,0.0,0.0,0.0,0.0,0.0,0.0,0.0,0.0,0.0,0.0,0.0,0.0199,0.0943,0.0,0.0,0.0,0.0,0.5165,0.0,0.0,0.0,0.0,0.0,0.0,0.4426,0.4268,0.4392,0.0,0.0,0.0,0.0,0.0,0.0,0.0,0.6508,0.6141,0.3922,0.3743,0.0,0.0,0.0,0.1293,0.1302,0.138,0.1426,0.1436,0.1431,0.1431,0.1436,0.1436,0.1524,0.1614,0.2509,0.3491,0.4378,0.5272,0.6251,0.7143,0.7584,0.8113,0.8636,0.9082,0.9607,1.0038,1.0038,1.0038,1.0125,-0.8001,-0.7981,-0.8041,0.0,-0.7981,-0.8217,0.0,0.0,0.0,0.0,-0.945,-0.9499,-0.9515,-0.9485,-0.9125,-0.8458,-0.8307,0.0,0.0,0.0,0.0,-0.8018,-0.6972,-0.6015,-0.5163,-0.3571,0.0,-0.0925,0.0,0.0,0.0582,0.0,0.0,0.0,0.0,0.0,0.0918,0.1183,0.1242,0.1146,0.0695,0.0444,0.0,0.0,0.0,0.0,0.0,0.0,0.0,0.0,0.0,0.0,0.0,0.0,0.0,0.0,0.0,0.0,0.0,0.0303,0.0604,0.0794,0.1216,0.1756,0.0,0.0,0.0,0.0,0.0,0.0,0.0,0.0,0.0,0.0,0.4208,0.0,0.0,0.0,0.0,0.0,0.0,0.0,0.0,0.5649,0.5322,0.4757,0.398,0.0,0.0,0.0,0.0,0.1299,0.1259,0.13,0.1433,0.1369,0.1712,0.251,0.251,0.2865,0.3576,0.3844,0.4469,0.5361,0.563,0.6251,0.7139,0.7228,0.758,0.8025,0.8552,0.9248,1.0038,1.0038,1.0038,1.0038,-0.7669,0.0,0.0,-0.7288,0.0,0.0,-0.8807,0.0,0.0,-0.9525,-0.9453,0.0,-0.9386,-0.9307,-0.8972,-0.8311,-0.8,0.0,0.0,0.0,0.0,-0.7316,-0.6628,-0.5774,-0.4708,-0.3134,0.0,-0.0964,0.0,0.0,0.0902,0.0,0.0,0.0,0.0,0.0872,0.0,0.1034,0.1004,0.0806,0.053,0.0,0.0,0.0093,0.0,0.0,0.0,0.0,0.0,0.0,0.0,0.0,0.0,0.0,0.0,0.0,0.0,0.0,0.0,0.0404,0.0808,0.111,0.1541,0.211,0.2842,0.3648,0.4503,0.0,0.0,0.0,0.0,0.0,0.0,0.0,0.0,0.0,0.0,0.0,0.0,0.0,0.0,0.0,0.0,0.522,0.4816,0.4439,0.0,0.0,0.0,0.0,0.0,0.1887,0.2202,0.2294,0.2137,0.2158,0.2516,0.3175,0.3175,0.357,0.4289,0.4734,0.5184,0.5719,0.6163,0.6609,0.7139,0.7139,0.7492,0.8201,0.8899,0.951,1.0038,1.0038,1.0038,1.0038,0.0,0.0,0.0,0.0,0.0,0.0,0.0,-0.8734,0.0,-0.9942,0.0,-0.9072,-0.9331,-0.9,-0.8711,-0.8667,0.0,-0.7329,-0.7746,-0.7068,-0.6465,-0.6205,-0.5744,-0.5218,-0.4388,-0.2799,0.0,0.0,0.0,0.0904,0.1331,0.0,0.0,0.0,0.0,0.0,0.0,0.0822,0.0669,0.0,0.0367,0.0191,0.0,0.0,0.0,0.0,0.0,0.0,0.0,0.0,0.0,0.0,0.0,0.0,0.0,0.0,0.0,0.0101,0.0101,0.0505,0.1111,0.1613,0.2183,0.2928,0.4388,0.5363,0.6276,0.7171,0.788,0.8201,0.0,0.0,0.0,0.0,0.0,0.0,0.0,0.0,0.0,0.0,0.0,0.0,0.0,0.0,0.0,0.0,0.0,0.0,0.0,0.0,0.0,0.2634,0.3352,0.0,0.3113,0.0,0.349,0.3872,0.3828,0.4112,0.4734,0.5539,0.5897,0.5897,0.6786,0.7139,0.7139,0.7139,0.7757,0.8811,0.9689,1.0038,1.0038,1.0038,1.0038,1.0125,0.0,0.0,0.0,0.0,0.0,-0.7745,-0.8673,-0.9452,-0.9719,-0.882,-0.8802,-0.8564,-0.7981,-0.8087,-0.8038,-0.7791,-0.7674,0.0,0.0,0.0,0.0,-0.5114,-0.3798,-0.2984,-0.2777,-0.0795,0.0298,0.0,0.0932,0.1247,0.133,0.1016,0.0,0.0,0.0,0.0,0.0975,0.0656,0.0,0.0719,0.0275,0.0,0.0,0.0,0.0,0.0,0.0,0.0,0.0,0.0,0.0,0.0,0.0,0.0,0.0,0.0,0.0303,0.0707,0.0707,0.1414,0.2118,0.2219,0.324,0.4204,0.449,0.5198,0.6045,0.7005,0.7269,0.7492,0.7962,0.0,0.0,0.0,0.0,0.0,0.0,0.0,0.0,0.0,0.0,0.0,0.0,0.0,0.0,0.0,0.0,0.0,0.0,0.0,0.0,0.0,0.306,0.0,0.0,0.0,0.4101,0.5489,0.5035,0.5368,0.6605,0.6782,0.6874,0.6874,0.7051,0.7139,0.7139,0.7496,0.8288,0.9257,0.9777,1.0038,1.0038,1.0038,1.0038,1.0038,0.0,0.0,0.0,0.0,0.0,0.0,0.0,-0.8781,0.0,-0.8709,-0.8438,-0.8276,-0.7845,-0.7953,-0.7684,-0.7058,-0.6819,-0.6412,-0.5467,-0.5279,-0.4733,-0.3613,-0.2818,0.0,-0.1158,0.0099,0.0797,0.087,0.1183,0.1335,0.133,0.101,0.0,0.0,0.0,0.0857,0.0,0.0,0.0,0.054,0.019,0.0,0.0,0.0,0.0,0.0,0.0,0.0,0.0,0.0,0.0,0.0,0.0,0.0202,0.0404,0.0404,0.0808,0.1211,0.1211,0.2218,0.3224,0.3224,0.4302,0.5317,0.5317,0.5888,0.652,0.7051,0.7496,0.7839,0.7741,0.7134,0.0,0.0,0.0,0.0,0.0,0.0,0.0,0.0,0.0,0.0,0.0,0.0,0.0,0.0,0.0,0.0,0.0,0.0,0.0,0.0,0.0,0.0,0.0,0.0,0.0,0.6547,0.6116,0.6376,0.7323,0.7143,0.7139,0.7139,0.7139,0.7139,0.7139,0.7933,0.864,0.9349,0.9777,1.0038,1.0038,1.0038,1.0038,1.0038,0.0,-0.6973,0.0,0.0,-0.7273,0.0,-0.721,-0.798,-0.855,-0.8619,-0.8233,-0.8038,-0.8038,-0.7839,-0.7301,-0.6426,-0.6021,-0.5394,-0.446,-0.4149,-0.3394,-0.2075,-0.1801,-0.1085,0.0189,0.0691,0.0988,0.0,0.1195,0.1282,0.133,0.1037,0.0877,0.0,0.0,0.0,0.0,0.0,0.0453,0.037,0.0099,0.0,0.0,0.0,0.0,0.0,0.0,0.0,0.0,0.0101,0.0101,0.0,0.0101,0.0505,0.0808,0.0909,0.1312,0.1815,0.2016,0.3122,0.4223,0.4403,0.5453,0.6347,0.6318,0.6872,0.7408,0.7408,0.8032,0.8394,0.7664,0.7438,0.0,0.0,0.0,0.0,0.0,0.0,0.0,0.0,0.0,0.0,0.0,0.0,0.0,0.0,0.0,0.0,0.0,0.0,0.0,0.0,0.0,0.6132,0.6448,0.0,0.6831,0.0,0.6947,0.7047,0.7415,0.7231,0.7139,0.7139,0.7139,0.7228,0.7492,0.8372,0.899,0.9519,0.9864,1.0038,1.0038,1.0038,1.0038,1.0038,0.0,0.0,0.0,0.0,0.0,0.0,0.0,-0.7767,-0.7832,-0.8004,-0.8038,-0.8038,-0.8038,-0.7138,-0.6499,-0.6345,-0.5444,-0.4409,-0.3274,-0.2841,-0.2059,-0.0935,0.0,0.0604,0.0702,0.1209,0.1512,0.0,0.0,0.1363,0.0,0.1051,0.0,0.0,0.0,0.0,0.0,0.0357,0.0281,0.04,0.0101,0.0,0.0,0.0,0.0,0.0,0.0,0.0,0.0101,0.0606,0.0404,0.0101,0.0606,0.0808,0.0909,0.1412,0.1916,0.252,0.3524,0.4228,0.4912,0.5806,0.6649,0.7356,0.7126,0.7792,0.8476,0.8476,0.8568,0.8544,0.8206,0.776,0.7178,0.0,0.0,0.0,0.0,0.0,0.0,0.0,0.0,0.0,0.0,0.4311,0.0,0.0,0.0,0.0,0.0,0.0,0.0,0.5186,0.0,0.5438,0.6294,0.6255,0.0,0.7635,0.7072,0.6878,0.7143,0.7139,0.7139,0.7139,0.7139,0.758,0.846,0.899,0.9519,0.9951,0.9951,1.0038,1.0038,1.0038,1.0038,1.0038,0.0,0.0,0.0,0.0,0.0,0.0,0.0,-0.724,-0.692,-0.7024,-0.7036,-0.7036,-0.7036,-0.6132,-0.518,-0.4483,-0.3773,-0.2864,-0.1794,-0.118,-0.0599,0.0195,0.0599,0.0909,0.1313,0.1516,0.1617,0.0,0.0,0.0,0.0,0.0,0.0,0.0,0.0,0.0521,0.054,0.0378,0.0393,0.0404,0.0101,0.0,0.0,0.0,0.0,0.0,0.0,0.0202,0.0505,0.0707,0.0707,0.0606,0.111,0.1514,0.1817,0.2017,0.2923,0.3929,0.4329,0.5529,0.6799,0.7064,0.7791,0.8389,0.8215,0.8418,0.8568,0.8568,0.8568,0.8564,0.8472,0.8325,0.7898,0.0,0.0,0.0,0.0,0.0,0.0,0.0,0.0,0.0,0.0,0.0,0.4669,0.0,0.0,0.0,0.0,0.0,0.0,0.5884,0.0,0.6445,0.7663,0.7129,0.72,0.8031,0.7512,0.7235,0.7323,0.7143,0.7139,0.7139,0.7408,0.7933,0.8636,0.9082,0.9607,1.0038,1.0038,1.0038,1.0038,1.0038,1.0038,1.0038,-0.766,0.0,-0.721,0.0,-0.7053,-0.7176,-0.6783,-0.626,-0.5897,-0.5899,-0.5674,-0.5532,-0.5932,-0.4826,-0.3796,-0.3049,-0.2195,-0.1392,-0.0578,0.0,0.0401,0.0789,0.1001,0.0,0.1617,0.1516,0.1516,0.1617,0.1175,0.0,0.0,0.0,0.0,0.0,0.0359,0.0372,0.0373,0.0296,0.0303,0.0303,0.0101,0.0,0.0,0.0,0.0101,0.0202,0.0202,0.0606,0.101,0.1212,0.1514,0.1715,0.1815,0.2319,0.2923,0.3025,0.4128,0.5331,0.5632,0.6802,0.8024,0.8169,0.8581,0.8966,0.8787,0.8653,0.8568,0.8568,0.8568,0.8568,0.8568,0.8568,0.8329,0.7602,0.0,0.0,0.0,0.0,0.0,0.0,0.0,0.6318,0.7098,0.6005,0.0,0.0,0.0,0.0,0.0,0.0,0.0,0.0,0.0,0.0,0.0,0.7292,0.7303,0.8113,0.768,0.7415,0.7415,0.7143,0.7139,0.7139,0.776,0.8288,0.8636,0.9257,0.9694,1.0038,1.0038,1.0038,1.0038,1.0038,1.0125,1.0467,-0.8031,-0.8028,-0.7624,-0.6625,-0.6429,-0.6015,-0.4933,-0.4751,-0.4828,-0.4745,-0.3888,-0.3624,-0.4724,-0.342,-0.2361,-0.2319,-0.0879,0.0096,0.0255,0.0569,0.0788,0.0,0.0,0.1617,0.1617,0.1314,0.1314,0.1617,0.0,0.0,0.1343,0.0,0.0537,0.0359,0.0097,0.0202,0.0404,0.0101,0.0,0.0,0.0,0.0,0.0,0.0,0.0303,0.0808,0.0808,0.111,0.1714,0.2219,0.3123,0.3825,0.2722,0.3123,0.4124,0.4632,0.5529,0.6623,0.7723,0.7919,0.7969,0.8859,0.8962,0.8779,0.8609,0.8568,0.8568,0.8568,0.8568,0.8568,0.8568,0.8568,0.8329,0.7602,0.0,0.0,0.0,0.0,0.0,0.0,0.5616,0.5409,0.6298,0.0,0.0,0.0,0.0,0.0,0.0,0.0,0.0,0.5374,0.4793,0.0,0.649,0.6317,0.681,0.7944,0.7595,0.7326,0.7139,0.7139,0.7139,0.7139,0.8197,0.8636,0.8636,0.9598,1.0038,1.0038,1.0038,1.0038,1.0038,1.0038,1.0554,1.1235,-0.6557,-0.6667,-0.6755,-0.6113,-0.5586,-0.5196,-0.481,-0.4177,-0.3601,-0.3437,-0.2493,-0.1816,-0.1814,-0.1513,-0.1202,0.0,0.0,0.047,0.0,0.0847,0.0948,0.108,0.106,0.1047,0.1047,0.0952,0.0952,0.1047,0.0,0.0,0.0,0.0269,0.0185,0.0097,0.0,0.0,0.0101,0.0,0.0,0.0,0.0404,0.0505,0.0606,0.0908,0.1211,0.1312,0.1312,0.1715,0.232,0.3222,0.3927,0.463,0.5024,0.5225,0.5427,0.5827,0.6528,0.7325,0.7822,0.8409,0.8929,0.9047,0.8958,0.8775,0.8605,0.8568,0.8568,0.8568,0.8568,0.8568,0.8568,0.8568,0.8329,0.7602,0.7898,0.0,0.0,0.0,0.0,0.0,0.6447,0.6294,0.0,0.6431,0.0,0.0,0.0,0.0,0.0,0.0,0.0,0.0,0.6628,0.0,0.7624,0.6946,0.6972,0.7595,0.7323,0.7143,0.7139,0.7139,0.7319,0.7584,0.8285,0.8811,0.917,0.9777,1.0038,1.0038,1.0038,1.0038,1.0038,1.0038,1.0467,1.1154,-0.544,-0.5551,-0.557,-0.4895,-0.452,-0.4095,-0.3619,-0.2882,-0.2401,-0.2154,-0.1494,-0.0808,-0.0303,-0.0303,0.0,0.0303,0.058,0.0864,0.0907,0.0966,0.096,0.1009,0.0879,0.0766,0.0766,0.0,0.0,0.0766,0.0662,0.0376,0.0,0.0094,0.0097,0.0,0.0,0.0,0.0,0.0,0.0,0.0,0.0606,0.0808,0.0808,0.1412,0.1714,0.1916,0.2317,0.2821,0.3426,0.4526,0.5427,0.6129,0.6822,0.7024,0.7027,0.6924,0.7528,0.823,0.8428,0.8859,0.9234,0.9125,0.8909,0.8698,0.8593,0.8568,0.8568,0.8568,0.8568,0.8568,0.8568,0.8568,0.8418,0.7963,0.8272,0.841,0.7955,0.0,0.0,0.0,0.0,0.0,0.0,0.7082,0.0,0.0,0.0,0.0,0.0,0.0,0.0,0.7086,0.7143,0.0,0.7824,0.7111,0.704,0.7507,0.7231,0.7139,0.7139,0.7316,0.7496,0.7852,0.8552,0.8995,0.9349,0.9781,1.0038,1.0038,1.0038,1.0038,1.0038,1.0299,1.0895,1.1671,-0.4672,-0.4698,0.0,0.0,-0.3115,0.0,-0.169,-0.1269,-0.1091,-0.1032,-0.088,-0.0505,0.0,0.0303,0.0505,0.0808,0.0,0.0,0.0,0.0905,0.0804,0.0808,0.0704,0.0703,0.0703,0.0502,0.0503,0.0707,0.0707,0.0505,0.0,0.0303,0.0202,0.0,0.0,0.0,0.0,0.0,0.0,0.0101,0.0606,0.0909,0.101,0.1513,0.2017,0.2723,0.3725,0.4429,0.5033,0.6124,0.722,0.8021,0.8124,0.8425,0.8623,0.7928,0.8432,0.9133,0.9236,0.918,0.9096,0.9096,0.8832,0.8568,0.8568,0.8568,0.8568,0.8568,0.8568,0.8568,0.8568,0.8568,0.8568,0.8568,0.8568,0.8552,0.8499,0.0,0.0,0.0,0.0,0.0,0.0,0.7529,0.7537,0.0,0.0,0.0,0.0,0.0,0.5844,0.665,0.6678,0.6845,0.7243,0.7009,0.7072,0.7507,0.7231,0.7139,0.7139,0.7584,0.7848,0.794,0.8907,0.9345,0.9349,0.9777,1.0038,1.0038,1.0038,1.0038,1.012,1.0809,1.1671,1.2534,0.0,0.0,-0.3378,-0.2852,-0.2352,-0.181,-0.1389,-0.1102,-0.0704,-0.0298,0.0,0.0202,0.0606,0.0707,0.0707,0.0808,0.0957,0.1043,0.0906,0.0574,0.038,0.0504,0.0291,0.0189,0.0189,0.0095,0.0097,0.0202,0.0202,0.0101,0.0,0.0101,0.0101,0.0,0.0,0.0,0.0,0.0,0.0202,0.0707,0.1211,0.1614,0.2119,0.2624,0.3429,0.423,0.4531,0.5229,0.6226,0.7223,0.7822,0.8124,0.8924,0.9023,0.8825,0.8832,0.8829,0.8928,0.9133,0.918,0.9096,0.9096,0.8832,0.8568,0.8568,0.8568,0.8568,0.8568,0.8568,0.8568,0.8568,0.8568,0.8568,0.8568,0.8568,0.8373,0.7817,0.759,0.0,0.0,0.7001,0.7297,0.7468,0.7983,0.8081,0.0,0.0,0.0,0.0,0.709,0.733,0.8097,0.8122,0.795,0.7763,0.7681,0.7476,0.7231,0.7139,0.7139,0.7139,0.7584,0.8025,0.846,0.9082,0.9519,0.9864,0.9951,1.0038,1.0038,1.0554,1.0722,1.0814,1.1499,1.2272,1.2875,-0.2124,-0.2224,-0.2298,-0.1841,-0.1583,-0.1313,-0.0909,-0.0606,-0.0303,0.0,0.0202,0.0505,0.0606,0.0606,0.0606,0.0404,0.0583,0.0676,0.0605,0.0292,0.0097,0.0202,0.0098,0.0,0.0,0.0,0.0,0.0,0.0,0.0,0.0,0.0,0.0,0.0,0.0,0.0,0.0,0.0,0.0202,0.0505,0.1312,0.1815,0.2219,0.3428,0.4332,0.4935,0.5932,0.6625,0.7322,0.8322,0.8726,0.8825,0.9229,0.913,0.8825,0.8832,0.8733,0.863,0.8931,0.8979,0.8866,0.8893,0.871,0.8568,0.8568,0.8568,0.8568,0.8568,0.8568,0.8568,0.8568,0.8568,0.8568,0.8568,0.8288,0.7935,0.7537,0.7204,0.0,0.6911,0.7248,0.7614,0.7947,0.8337,0.8406,0.793,0.0,0.0,0.7885,0.7667,0.7817,0.8544,0.8568,0.8388,0.8028,0.7856,0.7499,0.7139,0.7139,0.7228,0.7408,0.7937,0.8464,0.8903,0.9428,0.9781,1.0038,1.0467,1.0554,1.0554,1.1327,1.1585,1.1499,1.2186,1.2699,1.3045,-0.1617,-0.1516,-0.1314,-0.0909,-0.101,-0.0909,-0.0505,-0.0101,0.0101,0.0101,0.0303,0.0505,0.0404,0.0404,0.0303,0.0,0.0202,0.0303,0.0303,0.0101,0.0,0.0,0.0,0.0,0.0,0.0,0.0,0.0,0.0,0.0,0.0,0.0,0.0,0.0,0.0,0.0,0.0101,0.0101,0.0202,0.0404,0.1311,0.1916,0.2318,0.413,0.5035,0.5534,0.7325,0.8124,0.8421,0.9327,0.9628,0.9529,0.9335,0.9031,0.8726,0.8531,0.8432,0.8432,0.8627,0.8683,0.8721,0.8653,0.8568,0.8568,0.8568,0.8568,0.8568,0.8568,0.8568,0.8568,0.8568,0.8568,0.8532,0.8422,0.7886,0.7443,0.7338,0.0,0.6802,0.7411,0.7581,0.789,0.8507,0.8568,0.8568,0.8568,0.7996,0.7914,0.0,0.7979,0.7927,0.8544,0.8564,0.8384,0.8113,0.7676,0.7323,0.7139,0.7139,0.7408,0.7852,0.8464,0.8903,0.9345,0.9951,1.0212,1.0207,1.1068,1.1327,1.1241,1.2106,1.2357,1.2272,1.296,1.313,1.3222,-0.1617,-0.1212,-0.101,-0.1111,-0.0808,-0.0505,-0.0404,0.0,0.0303,0.0303,0.0808,0.0909,0.0404,0.0404,0.0303,0.0,0.0,0.0101,0.0101,0.0,0.0,0.0,0.0,0.0,0.0,0.0,0.0,0.0,0.0,0.0,0.0,0.0,0.0,0.0,0.0,0.0202,0.0707,0.0707,0.1212,0.2017,0.2219,0.3124,0.4331,0.4634,0.5932,0.7524,0.7922,0.8623,0.9327,0.9529,0.9628,0.9628,0.9529,0.9225,0.8825,0.8726,0.8432,0.8137,0.8432,0.8586,0.8721,0.8653,0.8568,0.8568,0.8568,0.8568,0.8568,0.8568,0.8568,0.8568,0.8568,0.8568,0.8365,0.7752,0.7557,0.7273,0.6668,0.0,0.7358,0.7472,0.8024,0.8442,0.8556,0.8568,0.8568,0.8568,0.8281,0.8265,0.856,0.8277,0.8174,0.8285,0.8288,0.8028,0.7591,0.7323,0.7143,0.7139,0.7496,0.7764,0.7848,0.8732,0.9257,0.9345,1.0549,1.0982,1.0901,1.1849,1.2106,1.1929,1.2613,1.2875,1.296,1.3652,1.3913,1.3913,-0.1617,-0.1212,-0.0808,-0.0808,-0.0404,-0.0101,0.0,0.0202,0.0404,0.0404,0.0606,0.0707,0.0404,0.0303,0.0101,0.0,0.0,0.0,0.0,0.0,0.0,0.0,0.0,0.0,0.0,0.0,0.0,0.0,0.0,0.0,0.0,0.0,0.0,0.0,0.0303,0.0606,0.0808,0.111,0.1513,0.2017,0.232,0.3225,0.4429,0.5329,0.6625,0.8124,0.8623,0.9225,0.9628,0.9628,0.9628,0.9529,0.943,0.913,0.8726,0.8627,0.8432,0.8199,0.8132,0.8452,0.8629,0.8468,0.8476,0.8568,0.8568,0.8568,0.8568,0.8568,0.8568,0.8568,0.8568,0.8568,0.8459,0.8122,0.774,0.0,0.0,0.7273,0.7484,0.7484,0.8126,0.8568,0.8568,0.8568,0.8568,0.8568,0.838,0.8288,0.838,0.8204,0.8028,0.8028,0.8028,0.7852,0.7507,0.7588,0.758,0.7496,0.8025,0.8376,0.8644,0.9082,0.9689,1.0381,1.1068,1.1499,1.1843,1.2693,1.2863,1.2613,1.3464,1.3724,1.3652,1.3997,1.4088,1.4088,-0.1516,-0.101,-0.0606,-0.0404,-0.0101,0.0101,0.0303,0.0404,0.0404,0.0303,0.0404,0.0404,0.0303,0.0101,0.0,0.0,0.0,0.0,0.0,0.0,0.0,0.0,0.0,0.0,0.0,0.0,0.0,0.0,0.0,0.0,0.0,0.0,0.0101,0.0202,0.0505,0.0808,0.1212,0.1513,0.1714,0.2017,0.2723,0.3624,0.4724,0.6221,0.7422,0.8524,0.9327,0.9628,0.9628,0.9628,0.9628,0.9529,0.9335,0.9031,0.8726,0.8528,0.8531,0.8463,0.8051,0.8243,0.8444,0.829,0.8384,0.8564,0.8568,0.8568,0.8568,0.8568,0.8568,0.8568,0.8568,0.8568,0.8511,0.8341,0.0,0.0,0.0,0.7484,0.7545,0.7715,0.8227,0.8568,0.8568,0.8564,0.8476,0.8476,0.8204,0.8025,0.8113,0.794,0.7768,0.7768,0.7768,0.7768,0.7595,0.7937,0.8025,0.8025,0.8548,0.899,0.9349,0.9432,1.0038,1.0982,1.1241,1.1671,1.2363,1.3288,1.3464,1.33,1.4068,1.4243,1.4088,1.4088,1.4088,1.4088,-0.1212,-0.0606,-0.0101,-0.0404,0.0,0.0303,0.0101,0.0202,0.0303,0.0101,0.0202,0.0303,0.0101,0.0,0.0,0.0,0.0,0.0,0.0,0.0,0.0,0.0,0.0,0.0,0.0,0.0,0.0,0.0,0.0,0.0,0.0,0.0,0.0303,0.0707,0.0303,0.0908,0.222,0.1815,0.2219,0.3128,0.4232,0.5229,0.6323,0.7422,0.8524,0.9525,0.9529,0.9628,0.9628,0.9628,0.9628,0.9529,0.9335,0.9031,0.8825,0.8825,0.8726,0.8656,0.8332,0.8153,0.8077,0.8476,0.8384,0.8292,0.8564,0.8568,0.8568,0.8568,0.8568,0.8568,0.8568,0.8568,0.8345,0.7671,0.0,0.0,0.7484,0.7484,0.7732,0.841,0.8536,0.8568,0.8568,0.838,0.8201,0.8201,0.7768,0.768,0.7944,0.768,0.7507,0.7507,0.7507,0.7591,0.7764,0.7852,0.8113,0.8548,0.899,0.9257,0.9349,0.9777,1.0038,1.0125,1.0982,1.1585,1.21,1.3045,1.3652,1.4004,1.4082,1.4088,1.4088,1.4088,1.4088,1.4088,-0.0909,-0.0404,0.0,-0.0101,0.0202,0.0404,0.0303,0.0202,0.0101,0.0,0.0101,0.0101,0.0,0.0,0.0,0.0,0.0,0.0,0.0,0.0,0.0,0.0,0.0,0.0,0.0,0.0,0.0,0.0,0.0,0.0,0.0,0.0,0.0101,0.0303,0.0404,0.1009,0.1916,0.2017,0.2924,0.4234,0.4634,0.5829,0.7422,0.7822,0.8623,0.9628,0.9628,0.9628,0.9628,0.9628,0.9628,0.9529,0.9335,0.9031,0.8726,0.8627,0.8627,0.8754,0.8611,0.843,0.8351,0.8205,0.8296,0.8472,0.838,0.8476,0.8568,0.8568,0.8568,0.8568,0.8568,0.8568,0.8475,0.8199,0.0,0.8154,0.8154,0.8154,0.8256,0.8536,0.8568,0.8568,0.8568,0.8476,0.838,0.8201,0.794,0.768,0.768,0.7411,0.7411,0.768,0.768,0.7764,0.7764,0.838,0.8819,0.9082,0.9519,0.9694,0.9777,0.9951,1.0207,1.0641,1.0982,1.1408,1.1826,1.2174,1.2351,1.2357,1.2357,1.2705,1.3222,1.3222,1.3568,1.4088,-0.0707,-0.0202,0.0101,0.0,0.0202,0.0404,0.0404,0.0202,0.0,0.0101,0.0101,0.0,0.0,0.0,0.0,0.0,0.0,0.0,0.0,0.0,0.0,0.0,0.0,0.0,0.0,0.0,0.0,0.0,0.0,0.0,0.0,0.0,0.0303,0.0808,0.101,0.1513,0.242,0.2922,0.3827,0.4834,0.5534,0.6728,0.8024,0.8421,0.8924,0.9628,0.9628,0.9628,0.9628,0.9628,0.9529,0.943,0.9133,0.8928,0.8825,0.8634,0.8829,0.906,0.8965,0.8843,0.8725,0.8205,0.8296,0.8472,0.838,0.8472,0.8568,0.8568,0.8568,0.8568,0.8568,0.8568,0.8568,0.8568,0.8568,0.8568,0.8568,0.8568,0.8568,0.8568,0.8568,0.8568,0.8568,0.8564,0.8384,0.8113,0.794,0.768,0.7415,0.7319,0.7496,0.7764,0.8116,0.8292,0.8292,0.8995,0.9345,0.9519,0.9864,1.0038,1.0038,0.9951,1.0125,1.0554,1.0467,1.0804,1.1225,1.1225,1.1316,1.1322,1.1585,1.21,1.2705,1.3052,1.3568,1.4088,-0.0404,0.0,0.0303,0.0101,0.0202,0.0404,0.0404,0.0202,0.0101,0.0404,0.0202,0.0,0.0,0.0,0.0,0.0,0.0,0.0,0.0,0.0,0.0,0.0,0.0,0.0,0.0,0.0,0.0,0.0,0.0,0.0,0.0,0.0,0.0808,0.2321,0.1815,0.252,0.4033,0.4528,0.4828,0.5035,0.7126,0.8021,0.812,0.9225,0.9628,0.9628,0.9628,0.9628,0.9628,0.9628,0.943,0.9133,0.8928,0.8825,0.8825,0.9133,0.943,0.9587,0.9405,0.923,0.9011,0.8658,0.8384,0.8288,0.8564,0.8568,0.8568,0.8568,0.8568,0.8568,0.8568,0.8568,0.8568,0.8568,0.8568,0.8568,0.8568,0.8568,0.8568,0.8568,0.8568,0.8568,0.8568,0.838,0.8113,0.7944,0.768,0.7415,0.7139,0.7584,0.7764,0.7852,0.8819,0.9262,0.9349,0.9349,0.9519,1.0038,1.0038,1.0038,0.9951,0.9689,0.9602,0.9602,0.9432,0.9689,1.0294,1.0294,1.0722,1.1408,1.2357,1.2705,1.279,1.3743,1.4088,1.4088,-0.0101,0.0,0.0202,0.0505,0.0505,0.0505,0.0909,0.0707,0.0505,0.0404,0.0303,0.0202,0.0,0.0,0.0,0.0,0.0,0.0,0.0,0.0,0.0,0.0,0.0,0.0,0.0,0.0,0.0,0.0,0.0,0.0,0.0,0.0,0.0303,0.0707,0.0505,0.1412,0.2924,0.342,0.4724,0.6534,0.7627,0.8421,0.9126,0.943,0.9628,0.9628,0.9628,0.9628,0.9628,0.9628,0.9529,0.943,0.9133,0.8928,0.8825,0.9133,0.943,0.9587,0.9405,0.923,0.9039,0.8627,0.8476,0.8472,0.838,0.8472,0.8568,0.8568,0.8568,0.8568,0.8568,0.8568,0.8568,0.8568,0.8568,0.8568,0.8568,0.8568,0.8568,0.8568,0.8568,0.8564,0.838,0.8288,0.8028,0.768,0.7411,0.7319,0.7584,0.776,0.8116,0.8819,0.917,0.9432,0.9777,0.9777,0.9864,1.0038,1.0038,1.0038,1.0038,1.0554,1.0636,1.0376,1.0895,1.1154,1.0982,1.0982,1.1149,1.1322,1.1585,1.21,1.2705,1.3045,1.3568,1.4088,0.0,0.0101,0.0202,0.0404,0.0404,0.0505,0.101,0.0707,0.0505,0.0505,0.0404,0.0202,0.0,0.0,0.0,0.0,0.0,0.0,0.0,0.0,0.0,0.0,0.0,0.0,0.0,0.0,0.0,0.0,0.0,0.0,0.0,0.0,0.0202,0.0606,0.111,0.2016,0.3423,0.4622,0.6024,0.763,0.8326,0.9023,0.9628,0.9628,0.9628,0.9628,0.9628,0.9529,0.943,0.9529,0.9529,0.943,0.9236,0.9133,0.9027,0.9232,0.943,0.9604,0.9494,0.9336,0.9157,0.8794,0.8661,0.8564,0.8384,0.8476,0.8568,0.8568,0.8568,0.8568,0.8568,0.8568,0.8568,0.8568,0.8568,0.8568,0.8568,0.8568,0.8568,0.8568,0.8568,0.8476,0.8201,0.8201,0.8028,0.7507,0.7411,0.7496,0.7764,0.8201,0.8644,0.9257,0.9519,0.9694,1.0038,1.0038,1.0038,1.0038,1.0038,1.0038,1.0038,1.0722,1.0895,1.0636,1.1408,1.1585,1.1327,1.1327,1.1327,1.1327,1.1671,1.2186,1.2705,1.3137,1.3568,1.4088,0.0,0.0201,0.0302,0.0101,0.0202,0.0505,0.0808,0.0404,0.0202,0.0707,0.0303,0.0,0.0,0.0,0.0,0.0,0.0,0.0,0.0,0.0,0.0,0.0,0.0,0.0,0.0,0.0,0.0,0.0,0.0,0.0,0.0,0.0,0.0606,0.1613,0.262,0.3723,0.4926,0.6933,0.7832,0.8124,0.9126,0.9529,0.9628,0.9628,0.9628,0.9628,0.9628,0.943,0.9232,0.9529,0.943,0.9133,0.9232,0.9236,0.9236,0.9529,0.9628,0.9628,0.9529,0.9494,0.9311,0.9141,0.884,0.8589,0.8572,0.8568,0.8568,0.8568,0.8568,0.8568,0.8568,0.8568,0.8568,0.8568,0.8568,0.8568,0.8568,0.8568,0.8568,0.8564,0.8564,0.8472,0.8201,0.8113,0.7937,0.7503,0.7676,0.7848,0.7848,0.8819,0.9345,0.9345,0.9777,1.0038,1.0038,1.0038,0.9951,0.9951,0.9951,1.0038,1.0038,1.0549,1.0809,1.0809,1.1322,1.158,1.1585,1.1585,1.1585,1.1666,1.2534,1.279,1.296,1.3743,1.4088,1.4088,0.0,0.0,0.0099,0.0302,0.0404,0.0505,0.0808,0.0707,0.0606,0.0505,0.0404,0.0202,0.0,0.0,0.0,0.0,0.0,0.0,0.0,0.0,0.0,0.0,0.0,0.0,0.0,0.0,0.0,0.0,0.0,0.0,0.0,0.0,0.0606,0.1613,0.1814,0.3021,0.4832,0.5727,0.6828,0.8035,0.8726,0.9225,0.9628,0.9628,0.9628,0.9628,0.9628,0.9529,0.9529,0.9628,0.9327,0.8928,0.943,0.9331,0.9236,0.9529,0.9628,0.9529,0.9331,0.9205,0.9024,0.8847,0.8651,0.8466,0.8601,0.8568,0.8568,0.8568,0.8568,0.8568,0.8568,0.8568,0.8568,0.8568,0.8568,0.8568,0.8568,0.8568,0.8564,0.8292,0.8292,0.8116,0.768,0.7496,0.7316,0.7231,0.7584,0.8025,0.8372,0.899,0.9432,0.9868,0.9951,1.0038,1.0038,1.0038,0.9864,0.9689,0.9864,1.0207,1.0463,1.1499,1.2186,1.2528,1.3372,1.3639,1.3483,1.3483,1.3483,1.3483,1.3743,1.3828,1.3828,1.3997,1.4088,1.4088,0.0,0.0,0.0,0.0199,0.0199,0.03,0.0605,0.0505,0.0404,0.0404,0.0303,0.0202,0.0,0.0,0.0,0.0,0.0,0.0,0.0,0.0,0.0,0.0,0.0,0.0,0.0,0.0,0.0,0.0,0.0,0.0,0.0,0.0505,0.111,0.1613,0.272,0.3925,0.5229,0.6029,0.7129,0.8432,0.8726,0.9126,0.9628,0.9628,0.9628,0.9628,0.9628,0.9529,0.9331,0.913,0.9031,0.9031,0.9331,0.943,0.943,0.9529,0.9628,0.9529,0.943,0.9265,0.9057,0.8878,0.8711,0.8524,0.8625,0.8568,0.8568,0.8568,0.8568,0.8568,0.8568,0.8568,0.8564,0.8472,0.8384,0.8384,0.8296,0.83,0.8208,0.8116,0.8028,0.8028,0.7852,0.7408,0.7316,0.7753,0.8021,0.8376,0.8903,0.9345,0.9777,0.9951,1.0038,1.0212,1.0641,1.0641,1.0717,1.088,1.0289,1.0294,1.0809,1.1757,1.2534,1.3045,1.3899,1.4166,1.4088,1.4088,1.4088,1.4088,1.4088,1.4088,1.4088,1.4088,1.4088,1.4088,0.0094,0.0095,0.0095,0.0,0.0,0.0098,0.0299,0.01,0.0101,0.0302,0.0101,0.0,0.0,0.0,0.0,0.0,0.0,0.0,0.0,0.0,0.0,0.0,0.0,0.0,0.0,0.0,0.0,0.0,0.0,0.0101,0.0303,0.1211,0.1815,0.2217,0.4029,0.5131,0.5827,0.6734,0.7633,0.8528,0.8627,0.9027,0.943,0.9525,0.9529,0.9529,0.9529,0.9331,0.9034,0.863,0.8733,0.9038,0.9133,0.9331,0.9529,0.9628,0.9529,0.9529,0.943,0.9232,0.8992,0.8922,0.8775,0.8679,0.8605,0.8589,0.8564,0.8564,0.8476,0.848,0.848,0.848,0.8388,0.8201,0.8113,0.8116,0.794,0.7944,0.7944,0.794,0.794,0.794,0.8113,0.7584,0.758,0.8548,0.8636,0.8903,0.9257,0.9777,1.0038,1.0038,1.0038,1.0381,1.1322,1.1327,1.166,1.2328,1.1063,1.0727,1.1322,1.1929,1.2528,1.3215,1.3828,1.4088,1.4088,1.4088,1.4088,1.4088,1.4088,1.4088,1.4088,1.4088,1.4088,1.4088,0.037,0.0372,0.028,0.0,0.0,0.0,0.0096,0.0,0.0,0.0099,0.0,0.0,0.0,0.0,0.0,0.0,0.0,0.0,0.0,0.0,0.0,0.0,0.0,0.0,0.0,0.0,0.0,0.0,0.0,0.0505,0.1412,0.1513,0.262,0.4331,0.4634,0.5336,0.6334,0.6437,0.6836,0.7434,0.7939,0.8432,0.8924,0.9426,0.943,0.9236,0.9236,0.8935,0.8531,0.8726,0.863,0.8634,0.9034,0.9232,0.9335,0.9529,0.943,0.9232,0.8928,0.873,0.8495,0.8344,0.8483,0.857,0.8417,0.831,0.8288,0.8288,0.8116,0.8032,0.8032,0.8032,0.7944,0.7944,0.7944,0.794,0.7944,0.7944,0.794,0.8113,0.7937,0.7852,0.7852,0.776,0.7937,0.8548,0.899,0.9257,0.9262,0.9777,1.0038,1.0038,1.0038,1.0381,1.1322,1.1327,1.1746,1.2674,1.2266,1.2351,1.276,1.2778,1.3222,1.3997,1.4088,1.4088,1.4088,1.4088,1.4088,1.4088,1.4088,1.4088,1.4088,1.4088,1.4088,1.4088,0.0454,0.0364,0.0275,0.0093,0.0,0.0,0.0,0.0,0.0,0.0,0.0,0.0,0.0,0.0,0.0,0.0,0.0,0.0,0.0,0.0,0.0,0.0,0.0,0.0,0.0,0.0,0.0303,0.0908,0.0908,0.111,0.1613,0.2821,0.3929,0.4834,0.5434,0.5937,0.6437,0.6437,0.6736,0.7238,0.7437,0.8031,0.8825,0.8928,0.9034,0.9137,0.9031,0.8829,0.863,0.8627,0.8531,0.8432,0.8634,0.8832,0.9031,0.9331,0.9232,0.9031,0.9031,0.873,0.8418,0.8543,0.856,0.8649,0.8687,0.8517,0.8249,0.8239,0.8113,0.8028,0.794,0.7944,0.7856,0.768,0.7683,0.7591,0.7499,0.7408,0.7584,0.7937,0.8113,0.8376,0.8644,0.8376,0.8548,0.9336,0.934,0.9432,0.9694,0.9864,1.0038,1.0038,1.0038,1.0381,1.1322,1.1327,1.1918,1.3275,1.3039,1.3045,1.3209,1.3039,1.3392,1.4088,1.4088,1.4088,1.4088,1.4088,1.4088,1.4088,1.4088,1.4088,1.4088,1.4088,1.4088,1.4088]},{"header":{"parameterUnit":"m.s-1","parameterCategory":1,"la1":30.6,"la2":28.766,"lo1":-90.7593,"lo2":-88.6598,"dy":0.0162,"dx":0.0183,"nx":116,"ny":114,"refTime":"2023-10-17T12:00:00:Z","depth":0,"parameterNumber":3,"parameterNumberName":"V-component_of_WINDS"},"data":[0.0,0.0,0.0,0.0,0.0,0.0,0.0,0.0,0.0,0.0,0.0,0.0,0.0,0.0,0.0,0.0,0.0,0.0,0.0,0.0,0.0,0.0,0.0,0.0,0.0,0.0,0.0,0.0,0.0,0.0,0.0,0.0,0.0,0.0,0.0,0.0,0.0,0.0,0.0,0.0,0.0,0.0,0.0,0.0,0.0,0.0,0.0,0.0,0.0,0.0,0.0,0.0,0.0,0.0,0.0,0.0,0.0,0.0,0.0,0.0,0.0,0.0,0.0,0.0,0.0,0.0,0.0,0.0,0.0,0.0,0.0,0.0,0.0,0.0,0.0,0.0,0.0,0.0,0.0,0.0,0.0,0.0,0.0,0.0,0.0,0.0,0.0,0.0,0.0,0.0,0.0,0.0,0.0,0.0,0.0,0.0,0.0,0.0,0.0,0.0,0.0,0.0,0.0,0.0,0.0,0.0,0.0,0.0,0.0,0.0,0.0,0.0,0.0,0.0,0.0,0.0,0.0,0.0,0.0,0.0,0.0,0.0,0.0,0.0,0.0,0.0,0.0,0.0,0.0,0.0,0.0,0.0,0.0,0.0,0.0,0.0,0.0,0.0,0.0,0.0,0.0,0.0,0.0,0.0,0.0,0.0,0.0,0.0,0.0,0.0,0.0,0.0,0.0,0.0,0.0,0.0,0.0,0.0,0.0,0.0,0.0,0.0,0.0,0.0,0.0,0.0,0.0,0.0,0.0,0.0,0.0,0.0,0.0,0.0,0.0,0.0,0.0,0.0,0.0,0.0,0.0,0.0,0.0,0.0,0.0,0.0,0.0,0.0,0.0,0.0,0.0,0.0,0.0,0.0,0.0,0.0,0.0,0.0,0.0,0.0,0.0,0.0,0.0,0.0,0.0,0.0,0.0,0.0,0.0,0.0,0.0,0.0,0.0,0.0,0.0,0.0,0.0,0.0,0.0,0.0,0.0,0.0,0.0,0.0,0.0,0.0,0.0,0.0,0.0,0.0,0.0,0.0,0.0,0.0,0.0,0.0,0.0,0.0,0.0,0.0,0.0,0.0,0.0,0.0,0.0,0.0,0.0,0.0,0.0,0.0,0.0,0.0,0.0,0.0,0.0,0.0,0.0,0.0,0.0,0.0,0.0,0.0,0.0,0.0,0.0,0.0,0.0,0.0,0.0,0.0,0.0,0.0,0.0,0.0,0.0,0.0,0.0,0.0,0.0,0.0,0.0,0.0,0.0,0.0,0.0,0.0,0.0,0.0,0.0,0.0,0.0,0.0,0.0,0.0,0.0,0.0,0.0,0.0,0.0,0.0,0.0,0.0,0.0,0.0,0.0,0.0,0.0,0.0,0.0,0.0,0.0,0.0,0.0,0.0,0.0,0.0,0.0,0.0,0.0,0.0,0.0,0.0,0.0,0.0,0.0,0.0,0.0,0.0,0.0,0.0,0.0,0.0,0.0,0.0,0.0,0.0,0.0,0.0,0.0,0.0,0.0,0.0,0.0,0.0,0.0,0.0,0.0,0.0,0.0,0.0,0.0,0.0,0.0,0.0,0.0,0.0,0.0,0.0,0.0,0.0,0.0,0.0,0.0,0.0,0.0,0.0,0.0,0.0,0.0,0.0,0.0,0.0,0.0,0.0,0.0,0.0,0.0,0.0,0.0,0.0,0.0,0.0,0.0,0.0,0.0,0.0,0.0,0.0,0.0,0.0,0.0,0.0,0.0,0.0,0.0,0.0,0.0,0.0,0.0,0.0,0.0,0.0,0.0,0.0,0.0,0.0,0.0,0.0,0.0,0.0,0.0,0.0,0.0,0.0,0.0,0.0,0.0,0.0,0.0,0.0,0.0,0.0,0.0,0.0,0.0,0.0,0.0,0.0,0.0,0.0,0.0,0.0,0.0,0.0,0.0,0.0,0.0,0.0,0.0,0.0,0.0,0.0,0.0,0.0,0.0,0.0,0.0,0.0,0.0,0.0,0.0,0.0,0.0,0.0,0.0,0.0,0.0,0.0,0.0,0.0,0.0,0.0,0.0,0.0,0.0,0.0,0.0,0.0,0.0,0.0,0.0,0.0,0.0,0.0,0.0,0.0,0.0,0.0,0.0,0.0,0.0,0.0,0.0,0.0,0.0,0.0,0.0,0.0,0.0,0.0,0.0,0.0,0.0,0.0,0.0,0.0,0.0,0.0,0.0,0.0,0.0,0.0,0.0,0.0,0.0,0.0,0.0,0.0,0.0,0.0,0.0,0.0,0.0,0.0,0.0,0.0,0.0,0.0,0.0,0.0,0.0,0.0,0.0,0.0,0.0,0.0,0.0,0.0,0.0,0.0,0.0,0.0,0.0,0.0,0.0,0.0,0.0,0.0,0.0,0.0,0.0,0.0,0.0,0.0,0.0,0.0,0.0,0.0,0.0,0.0,0.0,0.0,0.0,0.0,0.0,0.0,0.0,0.0,0.0,0.0,0.0,0.0,0.0,0.0,0.0,0.0,0.0,0.0,0.0,0.0,0.0,0.0,0.0,0.0,0.0,0.0,0.0,0.0,0.0,0.0,0.0,0.0,0.0,0.0,0.0,0.0,0.0,0.0,0.0,0.0,0.0,0.0,0.0,0.0,0.0,0.0,0.0,0.0,0.0,0.0,0.0,0.0,0.0,0.0,0.0,0.0,0.0,0.0,0.0,0.0,0.0,0.0,0.0,0.0,0.0,0.0,0.0,0.0,0.0,0.0,0.0,0.0,0.0,0.0,0.0,0.0,0.0,0.0,0.0,0.0,0.0,0.0,0.0,0.0,0.0,0.0,0.0,0.0,0.0,0.0,0.0,0.0,0.0,0.0,0.0,0.0,0.0,0.0,0.0,0.0,0.0,0.0,0.0,0.0,0.0,0.0,0.0,0.0,0.0,0.0,0.0,0.0,0.0,0.0,0.0,0.0,0.0,0.0,0.0,0.0,0.0,0.0,0.0,0.0,0.0,0.0,0.0,0.0,0.0,0.0,0.0,0.0,0.0,0.0,0.0,0.0,0.0,0.0,0.0,0.0,0.0,0.0,0.0,0.0,0.0,0.0,0.0,0.0,0.0,0.0,0.0,0.0,0.0,0.0,0.0,0.0,0.0,0.0,0.0,0.0,0.0,0.0,0.0,0.0,0.0,0.0,0.0,0.0,0.0,0.0,0.0,0.0,0.0,0.0,0.0,0.0,0.0,0.0,0.0,0.0,0.0,0.0,0.0,0.0,0.0,0.0,0.0,0.0,0.0,0.0,0.0,0.0,0.0,0.0,0.0,0.0,0.0,0.0,0.0,0.0,0.0,0.0,0.0,0.0,0.0,0.0,0.0,0.0,0.0,0.0,0.0,0.0,0.0,0.0,0.0,0.0,0.0,0.0,0.0,0.0,0.0,0.0,0.0,0.0,0.0,0.0,0.0,0.0,0.0,0.0,0.0,0.0,0.0,0.0,0.0,0.0,0.0,0.0,0.0,0.0,0.0,0.0,0.0,0.0,0.0,0.0,0.0,0.0,0.0,0.0,0.0,0.0,0.0,0.0,0.0,0.0,0.0,0.0,0.0,0.0,0.0,0.0,0.0,0.0,0.0,0.0,0.0,0.0,0.0,0.0,0.0,0.0,0.0,0.0,0.0,0.0,0.0,0.0,0.0,0.0,0.0,0.0,0.0,0.0,0.0,0.0,0.0,0.0,0.0,0.0,0.0,0.0,0.0,0.0,0.0,0.0,0.0,0.0,0.0,0.0,0.0,0.0,0.0,0.0,0.0,0.0,0.0,0.0,0.0,0.0,0.0,0.0,0.0,0.0,0.0,0.0,0.0,0.0,0.0,0.0,0.0,0.0,0.0,0.0,0.0,0.0,0.0,0.0,0.0,0.0,0.0,0.0,0.0,0.0,0.0,0.0,0.0,0.0,0.0,0.0,0.0,0.0,0.0,0.0,0.0,0.0,0.0,0.0,0.0,0.0,0.0,0.0,0.0,0.0,0.0,0.0,0.0,0.0,0.0,0.0,0.0,0.0,0.0,0.0,0.0,0.0,0.0,0.0,0.0,0.0,0.0,0.0,0.0,0.0,0.0,0.0,0.0,0.0,0.0,0.0,0.0,0.0,0.0,0.0,0.0,0.0,0.0,0.0,0.0,0.0,0.0,0.0,0.0,0.0,0.0,0.0,0.0,0.0,0.0,0.0,0.0,0.0,0.0,0.0,0.0,0.0,0.0,0.0,0.0,0.0,0.0,0.0,0.0,0.0,0.0,0.0,0.0,0.0,0.0,0.0,0.0,0.0,0.0,0.0,0.0,0.0,0.0,0.0,0.0,0.0,0.0,0.0,0.0,0.0,0.0,0.0,0.0,0.0,0.0,0.0,0.0,0.0,0.0,0.0,0.0,0.0,0.0,0.0,0.0,0.0,0.0,0.0,0.0,0.0,0.0,0.0,0.0,0.0,0.0,0.0,0.0,0.0,0.0,0.0,0.0,0.0,0.0,0.0,0.0,0.0,0.0,0.0,0.0,0.0,0.0,0.0,0.0,0.0,0.0,0.0,0.0,0.0,0.0,0.0,0.0,0.0,0.0,0.0,0.0,0.0,0.0,0.0,0.0,0.0,0.0,0.0,0.0,0.0,0.0,0.0,0.0,0.0,0.0,0.0,0.0,0.0,0.0,0.0,0.0,0.0,0.0,0.0,0.0,0.0,0.0,0.0,0.0,0.0,0.0,0.0,0.0,0.0,0.0,0.0,0.0,0.0,0.0,0.0,0.0,0.0,0.0,0.0,0.0,0.0,0.0,0.0,0.0,0.0,0.0,0.0,0.0,0.0,0.0,0.0,0.0,0.0,0.0,0.0,0.0,0.0,0.0,0.0,0.0,0.0,0.0,0.0,0.0,0.0,0.0,0.0,0.0,0.0,0.0,0.0,0.0,0.0,0.0,0.0,0.0,0.0,0.0,0.0,0.0,0.0,0.0,0.0,0.0,0.0,0.0,0.0,0.0,0.0,0.0,0.0,0.0,0.0,0.0,0.0,0.0,0.0,0.0,0.0,0.0,0.0,0.0,0.0,0.0,0.0,0.0,0.0,0.0,0.0,0.0,0.0,0.0,0.0,0.0,0.0,0.0,0.0,0.0,0.0,0.0,0.0,0.0,0.0,0.0,0.0,0.0,0.0,0.0,0.0,0.0,0.0,0.0,0.0,0.0,0.0,0.0,0.0,0.0,0.0,0.0,0.0,0.0,0.0,0.0,0.0,0.0,0.0,0.0,0.0,0.0,0.0,0.0,0.0,0.0,0.0,0.0,0.0,0.0,0.0,0.0,0.0,0.0,0.0,0.0,0.0,0.0,0.0,0.0,0.0,0.0,0.0,0.0,0.0,0.0,0.0,0.0,0.0,0.0,0.0,0.0,0.0,0.0,0.0,0.0,0.0,0.0,0.0,0.0,0.0,0.0,0.0,0.0,0.0,0.0,0.0,0.0,0.0,0.0,0.0,0.0,0.0,0.0,0.0,0.0,0.0,0.0,0.0,0.0,0.0,0.0,0.0,0.0,0.0,0.0,0.0,0.0,0.0,0.0,0.0,0.0,0.0,0.0,0.0,0.0,0.0,0.0,0.0,0.0,0.0,0.0,0.0,0.0,0.0,0.0,0.0,0.0,0.0,0.0,0.0,0.0,0.0,0.0,0.0,0.0,0.0,0.0,0.0,0.0,0.0,0.0,0.0,0.0,0.0,0.0,0.0,0.0,0.0,0.0,0.0,0.0,0.0,0.0,0.0,0.0,0.0,0.0,0.0,0.0,0.0,0.0,0.0,0.0,0.0,0.0,0.0,0.0,0.0,0.0,0.0,0.0,0.0,0.0,0.0,0.0,0.0,0.0,0.0,0.0,0.0,0.0,0.0,0.0,0.0,0.0,0.0,0.0,0.0,0.0,0.0,0.0,0.0,0.0,0.0,0.0,0.0,0.0,0.0,0.0,0.0,0.0,0.0,0.0,0.0,0.0,0.0,0.0,0.0,0.0,0.0,0.0,0.0,0.0,0.0,0.0,0.0,0.0,0.0,0.0,0.0,0.0,0.0,0.0,0.0,0.0,0.0,0.0,0.0,1.6948,0.0,0.0,0.0,0.0,0.0,0.0,0.0,0.0,0.0,0.0,0.0,0.0,0.0,0.0,0.0,0.0,0.0,0.0,0.0,0.0,0.0,0.0,0.0,0.0,0.0,0.0,0.0,0.0,0.0,0.0,0.0,0.0,0.0,0.0,0.0,0.0,0.0,0.0,0.0,0.0,0.0,0.0,0.0,0.0,0.0,0.0,0.0,0.0,0.0,0.0,0.0,0.0,0.0,0.0,0.0,0.0,0.0,0.0,0.0,0.0,0.0,0.0,0.0,0.0,0.0,0.0,0.0,0.0,0.0,0.0,0.0,0.0,0.0,0.0,0.0,0.0,0.0,0.0,0.0,0.0,0.0,0.0,0.0,0.0,0.0,0.0,0.0,0.0,0.0,0.0,0.0,0.0,0.0,0.0,0.0,0.0,0.0,0.0,0.0,0.0,0.0,0.0,0.0,0.0,0.0,0.0,0.0,0.0,0.0,0.0,0.0,0.0,0.0,0.0,0.0,0.0,1.6187,0.0,0.0,0.0,0.0,0.0,0.0,0.0,0.0,0.0,0.0,0.0,0.0,0.0,0.0,0.0,0.0,0.0,0.0,0.0,0.0,0.0,0.0,0.0,0.0,0.0,0.0,0.0,0.0,0.0,0.0,0.0,0.0,0.0,0.0,0.0,0.0,0.0,0.0,0.0,0.0,0.0,0.0,0.0,0.0,0.0,0.0,0.0,0.0,0.0,0.0,0.0,0.0,0.0,0.0,0.0,0.0,0.0,0.0,0.0,0.0,0.0,0.0,0.0,0.0,0.0,0.0,0.0,0.0,0.0,0.0,0.0,0.0,0.0,0.0,0.0,0.0,0.0,0.0,0.0,0.0,0.0,0.0,0.0,0.0,0.0,0.0,0.0,0.0,0.0,0.0,0.0,0.0,0.0,0.0,0.0,0.0,0.0,0.0,0.0,0.0,0.0,0.0,0.0,0.0,0.0,0.0,0.0,0.0,1.7688,1.7201,1.6593,1.6218,1.6158,1.6238,1.7036,1.7286,1.7059,0.0,0.0,0.0,0.0,0.0,0.0,0.0,0.0,0.0,0.0,0.0,0.0,0.0,0.0,0.0,0.0,0.0,0.0,0.0,0.0,0.0,0.0,0.0,0.0,0.0,0.0,0.0,0.0,0.0,0.0,0.0,0.0,0.0,0.0,0.0,0.0,0.0,0.0,0.0,2.6563,2.6707,2.6687,2.6411,2.4959,0.0,0.0,0.0,0.0,0.0,0.0,0.0,0.0,0.0,0.0,0.0,0.0,0.0,0.0,0.0,0.0,0.0,0.0,0.0,0.0,0.0,0.0,0.0,0.0,0.0,0.0,0.0,0.0,0.0,0.0,0.0,0.0,0.0,0.0,0.0,0.0,0.0,0.0,0.0,0.0,0.0,0.0,0.0,1.8769,1.9693,0.0,0.0,0.0,0.0,0.0,0.0,0.0,0.0,0.0,0.0,0.0,0.0,0.0,0.0,1.7472,1.8561,1.8759,1.8087,1.907,1.9394,1.9114,1.8887,1.8757,1.8541,1.7316,0.0,1.7129,1.739,0.0,0.0,0.0,0.0,0.0,0.0,0.0,0.0,0.0,0.0,0.0,0.0,0.0,0.0,0.0,0.0,0.0,0.0,0.0,0.0,0.0,0.0,0.0,0.0,0.0,0.0,0.0,0.0,0.0,0.0,0.0,0.0,0.0,0.0,0.0,0.0,2.614,2.7506,2.8659,2.8707,2.869,2.8604,2.7696,2.613,2.4157,2.3768,0.0,0.0,0.0,0.0,0.0,0.0,0.0,0.0,0.0,0.0,0.0,0.0,0.0,0.0,0.0,0.0,0.0,0.0,0.0,0.0,0.0,0.0,0.0,0.0,0.0,0.0,0.0,0.0,0.0,0.0,0.0,0.0,0.0,0.0,0.0,0.0,0.0,0.0,0.0,1.9262,1.9601,2.0002,1.939,1.8412,0.0,0.0,0.0,0.0,0.0,0.0,0.0,0.0,0.0,1.8667,1.9137,1.9299,1.9072,1.982,1.9966,1.9672,1.9909,1.9964,1.9857,1.9507,1.9187,1.8921,1.8071,1.777,1.7861,1.7369,1.6961,1.6641,0.0,0.0,0.0,0.0,1.5355,1.5557,0.0,0.0,0.0,0.0,0.0,0.0,0.0,0.0,0.0,0.0,0.0,0.0,0.0,0.0,0.0,2.5206,0.0,0.0,0.0,0.0,0.0,0.0,0.0,0.0,0.0,0.0,0.0,2.6159,2.8,2.9537,3.0746,3.0693,3.0611,3.0499,3.0021,2.8409,2.6059,2.5643,2.4238,0.0,0.0,0.0,0.0,0.0,0.0,0.0,0.0,0.0,0.0,0.0,0.0,0.0,0.0,0.0,0.0,0.0,0.0,0.0,0.0,0.0,0.0,0.0,0.0,0.0,0.0,0.0,0.0,0.0,0.0,0.0,0.0,0.0,0.0,0.0,0.0,0.0,0.0,1.9914,2.0325,2.0798,1.9982,1.9055,0.0,0.0,0.0,0.0,0.0,0.0,1.8977,1.928,1.9447,1.9379,1.9912,2.0252,2.0382,2.0522,2.0651,2.0839,2.0245,1.9987,2.0053,1.9584,1.9253,1.9008,1.8741,1.8684,1.87,1.7585,1.7308,1.747,1.7052,1.654,1.6098,1.6216,1.6387,1.6481,0.0,0.0,0.0,0.0,0.0,0.0,0.0,0.0,0.0,0.0,0.0,0.0,0.0,0.0,2.5076,2.5106,2.5229,2.4594,0.0,0.0,0.0,0.0,0.0,0.0,0.0,0.0,0.0,2.8798,3.1245,3.2443,3.247,3.2476,3.2381,3.2128,3.109,2.9231,2.6823,2.6426,2.5274,2.3572,0.0,0.0,0.0,0.0,0.0,0.0,0.0,0.0,0.0,0.0,0.0,0.0,0.0,0.0,0.0,0.0,0.0,0.0,0.0,0.0,0.0,0.0,0.0,0.0,0.0,0.0,0.0,0.0,0.0,0.0,0.0,0.0,0.0,0.0,0.0,0.0,0.0,0.0,0.0,2.1589,2.1667,0.0,0.0,0.0,0.0,1.8034,1.869,1.9008,1.8667,1.9384,1.9746,1.9679,2.0053,2.0266,2.0377,1.9992,2.0072,2.0722,1.9871,1.9692,2.0074,1.9736,1.9605,1.9539,1.9198,1.9274,1.9473,1.87,1.8546,1.8629,1.8061,1.7661,1.7369,1.7265,1.7559,1.8145,0.0,0.0,0.0,0.0,0.0,0.0,0.0,0.0,0.0,0.0,0.0,0.0,0.0,2.5806,2.7203,2.6943,2.7831,2.7735,2.6158,0.0,0.0,0.0,0.0,0.0,0.0,0.0,2.8425,2.907,3.051,3.1462,3.1943,3.1821,3.1692,3.1553,3.0922,2.9807,2.8422,2.7986,2.6856,2.528,2.4513,2.2968,0.0,0.0,0.0,0.0,0.0,0.0,0.0,0.0,0.0,0.0,0.0,0.0,0.0,0.0,0.0,0.0,0.0,0.0,0.0,0.0,0.0,0.0,0.0,0.0,0.0,0.0,0.0,0.0,0.0,0.0,0.0,0.0,0.0,0.0,0.0,0.0,0.0,2.2909,2.2721,0.0,0.0,2.1479,2.0903,2.0276,2.1059,2.1472,2.1324,2.1712,2.2076,2.2293,2.211,2.2031,2.2031,2.1419,2.1026,2.0839,2.0415,2.0298,2.0475,2.0216,2.0009,1.9802,1.9539,1.9417,1.9417,1.9152,1.9142,1.9264,1.8823,1.8723,1.8837,1.8589,1.9055,1.9807,0.0,0.0,0.0,0.0,0.0,0.0,0.0,0.0,0.0,0.0,0.0,2.5488,2.5412,2.7632,2.9006,2.8706,2.9644,2.9483,2.7594,0.0,0.0,0.0,0.0,0.0,0.0,2.8461,2.9644,2.9971,3.0828,3.1527,3.2039,3.1905,3.1783,3.1648,3.1016,3.0392,2.9723,2.9271,2.83,2.7019,2.6231,2.4359,2.2025,0.0,0.0,0.0,0.0,0.0,0.0,0.0,0.0,0.0,0.0,0.0,0.0,0.0,0.0,0.0,0.0,0.0,0.0,0.0,0.0,0.0,0.0,0.0,0.0,0.0,0.0,0.0,0.0,0.0,0.0,0.0,0.0,0.0,0.0,0.0,2.3316,2.3893,2.3583,2.3322,2.3322,2.2816,2.2512,2.2488,2.3299,2.3561,2.3002,2.3386,2.3649,2.3721,2.3158,2.3082,2.3468,2.2654,2.2157,2.1964,2.1598,2.1413,2.1479,2.0852,2.0401,2.007,1.9868,1.9619,1.934,1.9477,1.9605,1.9671,1.9274,1.9274,1.9539,1.9208,1.9709,2.0632,0.0,0.0,0.0,0.0,0.0,0.0,0.0,0.0,0.0,0.0,2.5194,2.5806,2.8322,2.9563,3.0216,3.0196,3.0333,2.9338,2.6844,2.6612,0.0,0.0,0.0,0.0,2.9162,3.007,3.0926,3.1775,3.2526,3.2923,3.2949,3.2929,3.2828,3.2596,3.1516,3.0923,3.0704,3.0221,2.9582,2.8755,2.6993,2.5353,2.3771,0.0,0.0,0.0,0.0,0.0,0.0,0.0,0.0,0.0,0.0,0.0,0.0,0.0,0.0,0.0,0.0,0.0,0.0,0.0,0.0,0.0,0.0,0.0,0.0,0.0,0.0,0.0,0.0,0.0,0.0,0.0,0.0,0.0,2.2748,2.3331,2.4058,2.4512,2.4332,2.435,2.4738,2.4421,2.4305,2.4553,2.5347,2.5064,2.3504,2.4114,2.4347,2.3862,2.301,2.3199,2.4553,2.361,2.3435,2.4083,2.3167,2.2842,2.2966,2.1554,2.074,2.0435,2.02,1.9868,1.94,1.9799,1.9933,1.9868,1.933,1.9341,1.9605,1.9264,1.9715,2.0549,0.0,0.0,0.0,0.0,0.0,0.0,0.0,0.0,0.0,0.0,2.4796,2.5952,2.6151,2.8675,3.0378,3.0482,3.053,2.9989,2.8637,0.0,0.0,0.0,0.0,0.0,3.19,3.2728,3.3275,3.3506,3.3154,3.3269,3.3833,3.3642,3.3563,3.3486,3.2368,3.1863,3.1806,3.0831,3.068,3.0906,2.9472,2.7585,2.5583,0.0,0.0,0.0,0.0,0.0,0.0,0.0,0.0,0.0,0.0,0.0,0.0,0.0,0.0,0.0,0.0,0.0,0.0,0.0,0.0,0.0,0.0,0.0,0.0,0.0,0.0,0.0,0.0,0.0,0.0,0.0,0.0,2.5511,2.4761,2.5328,2.6,2.6402,2.6409,2.6297,2.6218,2.6507,2.6651,2.6526,2.7159,2.7207,2.6576,2.5922,2.5439,2.515,2.4904,2.461,2.4313,2.477,2.4539,2.3634,2.3179,2.2977,2.2977,2.1911,2.1363,2.1327,2.1248,2.05,1.9362,2.0009,2.0172,1.9977,1.9605,1.9802,2.0248,1.9977,2.042,2.126,0.0,0.0,0.0,0.0,0.0,0.0,0.0,0.0,0.0,0.0,2.5225,2.6446,2.6381,2.884,3.053,3.0597,3.0917,3.0424,2.8857,0.0,0.0,0.0,0.0,3.2739,3.4067,3.455,3.4603,3.425,3.3415,3.3241,3.3679,3.3536,3.3489,3.3498,3.274,3.2378,3.2326,3.1899,3.1771,3.1818,3.1389,2.9661,2.7383,2.7331,2.655,2.5463,2.5397,2.5267,2.5121,2.4756,0.0,0.0,0.0,0.0,0.0,0.0,0.0,0.0,0.0,0.0,0.0,0.0,0.0,0.0,0.0,0.0,0.0,0.0,0.0,0.0,0.0,0.0,0.0,0.0,2.5905,2.6872,2.6745,2.6898,2.6991,2.699,2.6893,2.6736,2.6592,2.7046,2.731,2.7379,2.8211,2.8393,2.77,2.7239,2.6638,2.5898,2.6053,2.5915,2.5373,2.6166,2.6285,2.562,2.5078,2.4811,2.4688,2.3511,2.2884,0.0,2.222,2.1415,2.0551,2.0715,2.0741,0.0,0.0,0.0,0.0,0.0,2.1479,2.2029,0.0,0.0,0.0,0.0,0.0,0.0,0.0,0.0,0.0,0.0,0.0,2.7039,2.789,2.956,3.0606,3.0598,3.1159,3.0559,0.0,0.0,0.0,3.2947,3.3924,3.4823,3.5728,3.5844,3.5512,3.4735,3.3963,3.3539,3.3431,3.3431,3.3431,3.3388,3.3114,3.2936,3.2873,3.3278,3.2941,3.2169,3.2753,3.1473,2.9222,2.9022,2.8537,2.7978,2.7907,2.7907,2.7803,2.6921,0.0,0.0,0.0,0.0,0.0,0.0,0.0,0.0,0.0,0.0,0.0,0.0,0.0,0.0,0.0,0.0,0.0,0.0,0.0,0.0,0.0,0.0,0.0,0.0,2.6889,2.7938,2.8386,2.7959,2.7408,2.6849,2.6587,2.6443,2.639,2.6802,2.7228,2.766,2.8886,2.9092,2.7913,0.0,0.0,0.0,0.0,2.7024,2.7078,2.7568,2.8091,2.8522,2.7723,2.7324,2.7149,2.558,2.4809,2.4517,2.3369,2.2674,2.2355,2.1894,2.1624,2.1502,2.0677,2.073,2.1353,2.2165,2.2554,2.2761,0.0,0.0,0.0,0.0,0.0,0.0,0.0,0.0,0.0,2.5146,2.6135,2.7039,2.789,2.9562,3.0607,3.0598,3.0095,2.9573,0.0,0.0,2.9534,3.2947,3.3924,3.5104,3.6621,3.7336,3.7614,3.7443,3.7269,3.6813,3.6074,3.6074,3.6003,3.5869,3.5124,3.5105,3.5562,3.4715,3.4271,3.4083,3.3314,3.2279,3.1232,3.1145,3.1053,3.095,3.083,3.0693,3.0423,2.9613,2.8705,2.8,2.8443,0.0,0.0,0.0,0.0,0.0,0.0,0.0,0.0,0.0,0.0,0.0,0.0,0.0,0.0,0.0,0.0,0.0,0.0,0.0,0.0,2.6609,2.7576,2.8292,2.8122,2.789,2.764,2.7321,2.7306,2.7255,2.7063,2.7998,2.8686,2.8811,3.0029,3.0572,3.005,2.9158,0.0,2.7647,2.7694,2.7603,2.7423,2.8367,2.8495,2.7881,0.0,0.0,2.7149,2.6058,2.558,2.5613,2.5287,2.4248,2.2835,2.3306,2.3232,2.2725,2.2175,2.2113,2.236,2.2626,2.3154,2.3658,0.0,0.0,0.0,0.0,0.0,0.0,0.0,0.0,0.0,0.0,2.5279,2.6289,2.6745,2.7551,2.8578,2.9893,2.9569,0.0,0.0,3.0742,3.163,3.4101,3.5419,3.6479,3.7327,3.8123,3.8485,3.8489,3.8101,3.7659,3.7203,3.7172,3.7121,3.7092,3.6602,3.6342,3.6197,3.5607,3.507,3.4591,3.4046,3.3545,3.3071,3.2502,3.2572,3.299,3.2804,3.273,3.2631,3.2169,3.1464,3.0846,3.1121,3.0107,2.8662,0.0,0.0,0.0,0.0,0.0,0.0,0.0,0.0,0.0,0.0,0.0,0.0,0.0,0.0,2.6556,0.0,0.0,2.7158,2.7518,2.7833,2.8194,2.8591,2.8461,2.8203,2.7735,2.764,2.7524,2.7335,2.8361,2.8946,2.889,3.0412,3.1258,3.1107,3.0802,3.0158,2.9213,2.944,2.9132,2.812,2.8954,2.9022,2.8417,2.8403,2.8338,2.8157,2.7591,2.7354,2.7326,2.6726,2.5781,2.4606,2.4326,2.4177,2.4034,2.4111,2.404,2.3871,2.3774,2.4422,2.5149,0.0,0.0,0.0,0.0,0.0,0.0,0.0,0.0,0.0,0.0,2.4876,2.5834,2.6055,2.5894,2.6476,0.0,0.0,0.0,0.0,3.2528,3.353,3.5206,3.6711,3.7578,3.7731,3.8438,3.888,3.9052,3.8403,3.8002,3.7849,3.7812,3.7794,3.7775,3.7738,3.7185,3.6287,3.6287,3.5656,3.4602,3.4602,3.4561,3.4442,3.3543,3.364,3.4221,3.4023,3.4049,3.4124,3.3947,3.3578,3.3232,3.3172,3.2734,3.174,2.9313,2.9396,0.0,0.0,0.0,0.0,0.0,0.0,0.0,0.0,0.0,2.8223,2.7454,2.76,2.7726,2.736,2.7305,2.7601,2.85,2.8282,2.8313,2.913,2.9051,2.8703,2.813,2.7966,2.7861,2.7721,2.8571,2.9095,2.8983,3.0556,3.1489,3.1398,3.1893,3.1565,3.0355,3.0816,3.0416,2.9007,2.9425,2.954,2.9212,2.954,2.9477,2.9162,2.9008,2.8931,2.8903,2.7922,2.7188,2.6613,2.5414,2.5073,2.537,2.5769,2.5755,2.555,2.5329,2.5863,2.6611,0.0,0.0,0.0,0.0,0.0,0.0,0.0,0.0,0.0,0.0,0.0,0.0,0.0,0.0,0.0,0.0,0.0,0.0,2.9398,3.0868,3.275,3.5117,3.6009,3.6797,3.7524,3.8365,3.9185,3.9948,3.9853,3.9452,3.8746,3.8746,3.8652,3.849,3.8469,3.7907,3.6994,3.6994,3.6051,3.4583,3.4539,3.458,3.4647,3.4423,3.4334,3.4363,3.4221,3.4221,3.4221,3.3921,3.3762,3.368,3.3379,3.3032,3.2487,3.1346,0.0,3.0242,2.7985,2.6032,2.4787,2.5427,2.6434,2.7054,0.0,0.0,3.0424,2.8112,2.913,3.0392,3.0111,3.0152,3.012,2.9852,2.9707,2.9523,2.9196,2.9069,2.8808,2.8424,2.8726,2.8946,2.8891,2.9569,2.9954,2.994,3.069,3.0998,3.0744,3.0802,3.0606,3.0172,3.0183,3.0154,2.995,3.0021,2.9913,2.9685,2.9747,2.9713,2.954,2.954,2.954,2.9498,2.8792,2.8446,2.8168,2.7018,2.6523,2.6467,2.6322,2.6496,2.6901,2.7093,2.7246,2.7363,0.0,0.0,0.0,0.0,0.0,0.0,0.0,0.0,0.0,0.0,0.0,0.0,0.0,0.0,0.0,0.0,0.0,0.0,2.8129,3.0278,3.2368,3.4301,3.5567,3.6406,3.6749,3.7449,3.8239,3.911,3.9153,3.9003,3.8662,3.8641,3.8334,3.7837,3.7816,3.7338,3.6583,3.6583,3.5864,3.4711,3.4691,3.4689,3.4687,3.4645,3.4561,3.4386,3.3343,3.2963,0.0,0.0,3.2551,3.247,3.3314,3.2716,3.1629,3.1265,3.0658,0.0,2.882,2.8091,0.0,0.0,2.8945,2.9902,2.9317,3.0392,3.1168,3.0031,3.0514,3.1213,3.1489,3.0908,3.07,0.0,3.0783,3.0288,3.1091,3.0696,3.0243,2.998,2.9598,2.8886,2.7676,2.8645,2.9281,2.8899,3.0514,3.1498,3.1423,3.1775,3.1871,3.1666,3.1275,3.0949,3.0625,3.0297,2.9988,2.9713,2.9898,2.9974,2.9865,2.9865,3.0083,3.0375,2.9203,2.8784,2.8785,2.8046,2.748,2.7187,2.7754,2.8112,2.8273,2.77,2.7815,2.8222,0.0,0.0,0.0,0.0,0.0,0.0,0.0,0.0,0.0,0.0,0.0,0.0,0.0,0.0,0.0,0.0,0.0,0.0,0.0,2.9723,3.1929,3.3688,3.4851,3.5646,3.612,3.6559,3.7186,3.8033,3.8101,3.8124,3.8165,3.812,3.7822,3.7284,3.7263,3.6831,3.6176,3.6196,3.5665,3.4831,3.4812,3.4772,3.4749,3.473,3.4425,3.3799,3.2555,3.2042,0.0,0.0,3.1246,3.1507,3.2184,3.1727,3.0894,3.0545,2.9784,2.9042,2.9007,0.0,0.0,2.9602,3.0611,3.1551,3.1716,3.1671,3.1665,3.1777,3.1773,3.1918,3.2581,3.1873,0.0,3.2967,3.1974,3.1427,3.2636,3.2126,3.1368,3.0783,2.9965,2.8584,2.621,2.7756,2.8917,2.8799,3.0675,3.1781,3.1736,3.2391,3.2659,3.2302,3.1819,3.146,3.1123,3.0596,3.0305,3.0387,3.0305,3.0341,3.0522,3.0553,3.0822,3.1217,3.0323,2.9915,2.9796,2.931,2.8647,2.81,2.8888,2.915,2.9058,2.8352,2.8415,2.8951,0.0,0.0,0.0,0.0,0.0,0.0,0.0,0.0,0.0,0.0,0.0,0.0,0.0,0.0,0.0,0.0,0.0,0.0,0.0,2.8868,3.1278,3.3599,3.3639,3.4315,3.5873,3.5929,3.6321,3.7149,3.7149,3.7212,3.7335,3.7335,3.7316,3.7297,3.7303,3.6852,3.6116,3.6176,3.5684,3.4889,3.4831,3.4831,3.4889,3.4831,3.379,3.2335,3.2162,0.0,0.0,0.0,3.0265,3.1256,2.9423,2.9917,0.0,2.9485,2.8407,2.7793,0.0,0.0,2.7391,2.9394,2.9924,3.0328,3.1777,3.1984,3.2119,3.2899,3.2962,3.3033,3.3642,3.3704,3.3605,3.3431,3.333,3.3271,3.3091,3.272,3.1773,2.9881,2.955,2.8284,0.0,2.735,2.9557,3.0778,3.1447,3.1549,3.1043,3.1864,3.1921,3.1087,3.0999,3.1188,3.1449,3.1023,3.1293,3.2303,3.1279,3.1043,3.148,3.1634,3.183,3.2084,3.2678,3.2482,3.1661,3.1098,3.0323,2.948,2.9212,2.912,2.9136,2.9366,2.9473,2.9643,0.0,0.0,0.0,0.0,0.0,0.0,0.0,0.0,0.0,0.0,0.0,0.0,0.0,0.0,0.0,0.0,0.0,0.0,0.0,2.6625,2.8765,3.1217,3.2326,3.341,3.4472,3.451,3.5153,3.6513,3.6513,3.6532,3.6553,3.6553,3.6289,3.578,3.5818,3.5723,3.5494,3.5529,3.5358,3.5092,3.502,3.4983,3.4889,3.4264,3.3318,3.2127,0.0,0.0,0.0,2.8108,2.8259,2.8745,2.9167,2.8942,2.833,2.7252,2.7786,2.8574,0.0,0.0,2.953,2.9941,3.0843,3.1844,3.2667,3.2804,3.2956,3.3623,3.2907,3.2366,3.3085,3.2261,3.1957,3.3376,3.2353,3.2176,3.4459,3.2315,3.1029,3.2249,3.1228,0.0,0.0,0.0,0.0,2.9124,3.1021,3.2219,3.2384,3.2656,3.271,3.2384,3.2384,3.2453,3.2557,3.1981,3.2094,3.285,3.2508,3.2139,3.1792,3.2384,3.2671,3.2703,3.2977,3.265,3.185,3.1709,3.0932,2.9832,3.0054,3.0451,3.0877,3.0877,3.1188,3.1609,0.0,0.0,0.0,0.0,0.0,0.0,0.0,0.0,0.0,0.0,0.0,0.0,0.0,0.0,0.0,0.0,0.0,0.0,0.0,0.0,2.7071,2.9536,3.0392,3.1175,3.1996,3.2621,3.3458,3.4486,3.5077,3.5381,3.5362,3.5077,3.4829,3.4617,3.4687,3.4876,3.5162,3.5229,3.5212,3.5127,3.4786,3.4601,3.4395,3.3203,3.203,0.0,0.0,0.0,0.0,2.6465,2.6846,2.7382,2.7836,2.7201,2.6451,2.7003,2.755,2.8054,2.8506,2.9475,3.046,3.096,3.1996,3.3019,3.3353,3.356,3.3905,3.4557,3.3911,3.3248,3.3363,3.249,3.2166,3.3579,3.2601,3.2631,3.5355,3.3345,3.2081,3.3305,3.2597,0.0,0.0,0.0,0.0,2.9539,3.1228,3.2347,3.2443,3.2748,3.3038,3.3276,3.3308,3.3366,3.3445,3.2834,3.2763,3.3171,3.3328,3.3082,3.2439,3.2954,3.2766,3.2077,3.3111,3.2588,3.0995,3.1978,3.1594,3.0393,3.0875,3.1374,3.1841,3.2126,3.272,3.3359,0.0,0.0,0.0,0.0,0.0,0.0,0.0,0.0,0.0,0.0,0.0,0.0,0.0,0.0,0.0,0.0,0.0,0.0,0.0,0.0,0.0,2.8578,2.7989,2.7965,2.8789,3.0428,3.1278,3.1327,3.2921,3.3723,3.3704,3.2921,3.2997,3.378,3.3846,3.4273,3.4971,3.5111,3.5098,3.4883,3.4063,3.369,3.3449,3.18,0.0,0.0,0.0,0.0,0.0,0.0,0.0,0.0,2.5721,2.512,2.5581,2.8446,2.766,2.6591,2.9817,3.0232,3.0255,3.2321,3.3278,3.3758,3.3881,3.4358,3.4934,3.5618,3.5688,3.5297,0.0,0.0,3.3946,3.3904,3.383,3.4232,3.5626,3.5368,3.4454,0.0,0.0,0.0,0.0,0.0,0.0,3.2029,0.0,3.2301,3.1646,3.2338,3.3053,3.3703,3.3684,3.3834,3.4153,3.3662,3.338,3.338,3.3871,3.382,3.3348,3.3436,3.2335,3.0549,3.3252,3.2523,2.9566,3.2042,3.2337,3.1286,3.165,3.1824,3.2009,3.3085,3.3913,3.4677,0.0,0.0,0.0,0.0,0.0,0.0,0.0,0.0,0.0,0.0,0.0,0.0,0.0,0.0,0.0,0.0,0.0,0.0,0.0,0.0,0.0,0.0,0.0,0.0,0.0,0.0,0.0,3.0424,3.0863,3.1073,3.1073,3.0863,3.1226,3.2027,3.2061,3.2504,3.3239,3.3271,3.3239,3.3137,0.0,3.2746,3.2599,0.0,0.0,0.0,0.0,0.0,0.0,0.0,0.0,0.0,0.0,2.8107,2.7993,2.7584,2.8562,2.9686,2.9268,3.063,3.2371,3.3375,3.3752,3.4127,3.5243,3.5576,3.5555,3.515,3.4092,3.2827,0.0,0.0,0.0,3.2138,3.1441,0.0,3.3399,3.3149,0.0,0.0,0.0,3.5847,3.5941,3.7519,0.0,0.0,3.5038,3.5184,3.5399,3.5019,3.493,3.5098,3.5115,3.5135,3.5224,3.5088,3.4688,3.4153,3.4958,3.4941,3.4284,3.4466,3.39,3.2918,3.3626,3.3076,3.1769,3.2297,3.23,3.2019,3.2025,3.2429,3.3143,3.3785,3.4233,3.462,0.0,0.0,0.0,0.0,0.0,0.0,0.0,0.0,0.0,0.0,0.0,0.0,0.0,0.0,0.0,0.0,0.0,0.0,0.0,0.0,0.0,0.0,0.0,0.0,0.0,0.0,0.0,0.0,0.0,0.0,2.964,2.8906,2.9021,2.9858,2.9462,3.0117,3.155,3.155,0.0,0.0,0.0,0.0,0.0,0.0,0.0,0.0,0.0,0.0,0.0,0.0,0.0,2.8613,3.0031,3.0031,2.9565,2.9795,0.0,3.0967,3.0729,3.1906,3.3358,3.3945,3.4545,3.5029,3.5154,3.5403,3.5278,3.4058,3.3055,0.0,0.0,0.0,0.0,0.0,0.0,0.0,3.3246,3.3196,3.3072,0.0,3.5128,0.0,3.7979,3.9336,3.9644,0.0,3.6816,3.5935,3.587,3.5457,3.5372,3.5739,3.58,3.5756,3.5684,3.5756,3.5515,3.5021,3.5605,3.565,3.5203,3.5044,3.3972,3.2403,0.0,3.3037,3.1281,3.2423,3.2723,3.2457,3.2457,3.2753,3.3345,3.4257,3.4674,3.4925,0.0,0.0,0.0,0.0,0.0,0.0,0.0,0.0,0.0,0.0,0.0,0.0,0.0,0.0,0.0,0.0,0.0,0.0,0.0,0.0,0.0,0.0,0.0,0.0,0.0,0.0,0.0,0.0,0.0,0.0,0.0,0.0,0.0,0.0,0.0,0.0,0.0,0.0,0.0,0.0,0.0,0.0,0.0,0.0,0.0,0.0,0.0,0.0,0.0,0.0,2.9983,2.9228,3.1634,3.1486,3.0885,3.2933,3.2413,3.1474,3.2739,3.3354,3.3782,3.4375,3.5513,3.6095,3.4827,3.4848,3.4691,3.3042,0.0,3.1769,3.049,0.0,3.048,3.2142,0.0,3.2669,3.3487,3.4025,3.4175,3.3706,3.5169,3.6861,3.8528,3.979,4.059,4.0901,3.8212,3.6195,3.5402,3.5275,3.5462,3.6112,3.607,3.5932,3.5817,3.5932,3.5932,3.5817,3.5975,3.6019,3.6002,3.5317,3.3573,3.1256,0.0,0.0,3.009,3.2569,3.3254,3.2771,3.2865,3.2942,3.3162,3.4623,3.5129,3.5313,0.0,0.0,0.0,0.0,0.0,0.0,0.0,0.0,0.0,0.0,0.0,0.0,0.0,0.0,0.0,0.0,0.0,0.0,0.0,0.0,0.0,0.0,0.0,0.0,0.0,0.0,0.0,0.0,0.0,0.0,0.0,0.0,0.0,0.0,0.0,0.0,0.0,0.0,0.0,0.0,0.0,0.0,0.0,0.0,0.0,0.0,0.0,0.0,0.0,0.0,3.1104,3.0457,3.3036,3.3655,3.3287,3.2395,3.2656,3.304,3.2273,3.3176,3.454,3.5478,3.6218,3.6818,3.7145,3.6335,0.0,0.0,0.0,3.0862,3.0511,3.03,0.0,3.2142,0.0,0.0,0.0,0.0,3.3914,0.0,0.0,0.0,0.0,0.0,0.0,0.0,0.0,0.0,3.878,3.8111,3.7501,3.6932,3.63,3.5975,3.5975,3.5975,3.5975,3.5975,3.6122,3.6182,3.6148,3.5459,3.4863,3.4364,0.0,0.0,3.2498,3.2886,3.3007,3.2924,3.2904,3.3169,3.3706,3.4963,3.5296,3.5285,0.0,0.0,0.0,0.0,0.0,0.0,0.0,0.0,0.0,0.0,0.0,0.0,0.0,0.0,0.0,0.0,0.0,0.0,0.0,0.0,0.0,0.0,0.0,0.0,0.0,0.0,0.0,0.0,0.0,0.0,0.0,0.0,0.0,0.0,0.0,0.0,0.0,0.0,0.0,0.0,0.0,0.0,0.0,0.0,0.0,0.0,0.0,0.0,0.0,0.0,3.0114,3.0368,3.3426,3.4473,3.4199,3.2296,3.2985,3.4055,3.2739,3.4037,3.5929,3.6675,3.7284,3.7344,3.6061,0.0,0.0,0.0,0.0,2.9548,2.9339,0.0,0.0,0.0,0.0,0.0,0.0,0.0,0.0,0.0,0.0,0.0,0.0,0.0,0.0,0.0,0.0,0.0,3.9669,3.89,3.8143,3.7315,3.6999,3.656,3.6122,3.6148,3.6148,3.6122,3.6191,3.6233,3.6216,3.5566,3.5077,3.4718,3.4411,0.0,3.2126,3.2873,3.2717,3.2126,3.3178,3.3721,3.4112,3.5454,3.5909,3.5927,0.0,0.0,0.0,0.0,0.0,0.0,0.0,0.0,0.0,0.0,0.0,0.0,0.0,0.0,0.0,0.0,0.0,0.0,0.0,0.0,0.0,0.0,0.0,0.0,0.0,0.0,0.0,0.0,0.0,0.0,0.0,0.0,0.0,0.0,0.0,0.0,0.0,0.0,0.0,0.0,0.0,0.0,0.0,0.0,0.0,0.0,0.0,0.0,0.0,0.0,2.8892,2.9493,3.2593,3.3806,3.3789,3.2299,3.3023,3.4202,3.3739,3.5208,3.7001,3.7631,3.8208,3.7875,3.5026,3.3999,0.0,0.0,2.9122,2.8785,2.8879,0.0,0.0,0.0,0.0,0.0,0.0,0.0,0.0,0.0,0.0,0.0,0.0,0.0,0.0,0.0,0.0,0.0,3.9968,3.9278,3.8535,3.7793,3.7603,3.7111,3.6268,3.6318,3.6318,3.6208,3.6163,3.6101,3.6125,3.5469,3.4853,3.4356,3.4484,0.0,0.0,3.3125,3.2825,3.1399,3.3659,3.4519,3.4704,3.6158,3.6747,3.6939,0.0,0.0,0.0,0.0,0.0,0.0,0.0,0.0,0.0,0.0,0.0,0.0,0.0,0.0,0.0,0.0,0.0,0.0,0.0,0.0,0.0,0.0,0.0,0.0,0.0,0.0,0.0,0.0,0.0,0.0,0.0,0.0,0.0,0.0,0.0,0.0,0.0,0.0,0.0,0.0,0.0,0.0,0.0,0.0,0.0,0.0,0.0,0.0,0.0,0.0,0.0,2.7794,2.9657,3.0787,3.1577,3.2237,0.0,0.0,3.5245,3.625,3.6875,3.7903,3.8558,3.8479,3.6638,0.0,0.0,3.1912,3.0312,2.9654,3.0936,3.0972,0.0,0.0,0.0,0.0,0.0,0.0,0.0,0.0,0.0,0.0,0.0,0.0,0.0,0.0,0.0,0.0,0.0,4.0072,3.9312,3.872,3.7949,3.7205,3.6461,3.6502,3.6402,3.6301,3.5792,3.5561,3.5526,3.4938,3.4631,3.4579,0.0,0.0,0.0,3.4015,3.3641,3.1732,3.456,3.562,3.5737,3.7155,3.7824,3.8184,0.0,0.0,0.0,0.0,0.0,0.0,0.0,0.0,0.0,0.0,0.0,0.0,0.0,0.0,0.0,0.0,0.0,0.0,0.0,0.0,0.0,0.0,0.0,0.0,0.0,0.0,0.0,2.4319,2.4078,0.0,0.0,0.0,0.0,0.0,0.0,0.0,0.0,0.0,0.0,0.0,0.0,0.0,0.0,0.0,0.0,0.0,0.0,0.0,0.0,0.0,0.0,0.0,2.6918,2.7387,0.0,0.0,3.1486,3.3749,3.3885,3.5807,3.8028,3.8995,3.9233,3.8581,3.6049,0.0,3.3566,3.1063,2.9979,2.9599,2.998,2.9955,3.0345,0.0,0.0,0.0,0.0,0.0,0.0,0.0,0.0,0.0,0.0,0.0,0.0,0.0,0.0,0.0,0.0,3.9857,3.9361,3.8338,3.793,3.7366,3.662,3.6667,3.665,3.6609,3.6474,3.6414,3.6396,3.5761,3.5467,3.5469,0.0,0.0,0.0,3.4238,3.3671,3.102,3.5232,3.6927,3.7116,3.8372,3.894,3.9166,0.0,0.0,0.0,0.0,0.0,0.0,0.0,0.0,0.0,0.0,0.0,0.0,0.0,0.0,0.0,0.0,0.0,0.0,0.0,0.0,0.0,0.0,0.0,0.0,0.0,0.0,0.0,2.3978,2.3703,2.3585,0.0,0.0,0.0,0.0,0.0,0.0,0.0,0.0,0.0,0.0,0.0,0.0,0.0,0.0,0.0,0.0,0.0,0.0,0.0,0.0,0.0,0.0,0.0,0.0,0.0,0.0,3.039,3.3582,3.3204,3.5815,3.8801,3.9659,3.9307,3.8056,0.0,0.0,3.2888,3.0264,2.9645,2.955,2.9314,2.9272,2.9706,3.0986,0.0,3.1947,0.0,0.0,0.0,0.0,0.0,0.0,0.0,0.0,0.0,0.0,0.0,0.0,0.0,3.9276,3.9015,3.8135,3.8,3.7574,3.6846,3.6869,3.6891,3.6851,3.6879,3.6478,3.5733,3.5847,3.5597,3.5075,0.0,0.0,0.0,3.496,3.4522,3.1946,3.6389,3.8127,3.8265,3.9227,3.9623,3.9735,0.0,0.0,0.0,0.0,0.0,0.0,0.0,0.0,0.0,0.0,0.0,0.0,0.0,0.0,0.0,0.0,0.0,0.0,0.0,0.0,0.0,0.0,0.0,0.0,0.0,0.0,2.3759,2.3905,2.3707,2.3567,2.3494,2.3448,2.336,2.3289,0.0,0.0,0.0,0.0,0.0,0.0,0.0,0.0,0.0,0.0,0.0,0.0,0.0,0.0,0.0,0.0,0.0,0.0,0.0,2.5289,2.6167,0.0,2.9125,3.1581,3.409,3.6642,3.8801,3.9596,3.8508,3.6801,0.0,0.0,3.1669,3.0039,2.9701,2.9701,2.9683,2.9683,3.0189,3.1656,3.1786,0.0,0.0,0.0,0.0,0.0,0.0,0.0,0.0,0.0,0.0,0.0,0.0,0.0,0.0,3.8364,3.8325,3.8325,3.8325,3.7919,3.7108,3.7108,3.7069,3.7009,3.672,3.5283,3.2905,3.4844,3.4557,0.0,0.0,0.0,0.0,3.6537,3.6592,3.5329,3.8159,3.9163,3.9063,3.9513,3.9693,3.9762,0.0,0.0,0.0,0.0,0.0,0.0,0.0,0.0,0.0,0.0,0.0,0.0,0.0,0.0,0.0,0.0,0.0,0.0,0.0,0.0,0.0,0.0,0.0,0.0,0.0,0.0,2.3263,2.2815,2.2642,2.2571,2.2526,2.2435,2.2623,2.3077,2.3077,0.0,0.0,0.0,0.0,0.0,0.0,0.0,0.0,0.0,0.0,0.0,0.0,0.0,0.0,0.0,0.0,0.0,0.0,0.0,0.0,2.618,2.8572,3.0998,3.1298,3.3619,3.5993,3.6321,3.5918,3.5066,3.3409,0.0,3.1634,3.0021,2.9701,2.9701,2.9701,2.9701,3.0208,3.1781,3.2,0.0,0.0,0.0,0.0,0.0,0.0,0.0,0.0,0.0,0.0,0.0,0.0,0.0,0.0,3.8062,3.8026,3.8026,3.7747,3.7603,3.7578,3.7394,3.7394,3.7596,3.7592,3.666,3.5048,3.682,0.0,0.0,0.0,0.0,0.0,3.775,3.7567,3.5885,3.8452,3.9458,3.9489,3.967,3.9758,3.9873,0.0,0.0,0.0,0.0,0.0,0.0,0.0,0.0,0.0,0.0,0.0,0.0,0.0,0.0,0.0,0.0,0.0,0.0,0.0,0.0,0.0,0.0,0.0,0.0,0.0,2.2923,2.2576,2.2023,2.2364,2.2369,2.2109,2.2318,2.2676,2.3102,2.3102,0.0,0.0,0.0,0.0,0.0,0.0,0.0,2.78,0.0,0.0,0.0,0.0,0.0,0.0,0.0,0.0,0.0,0.0,0.0,0.0,0.0,2.7655,2.9626,0.0,3.241,3.4708,3.4749,3.4256,0.0,0.0,0.0,3.0884,2.9908,3.0171,3.0415,2.9814,3.019,3.0734,3.1128,3.2235,0.0,0.0,0.0,0.0,0.0,0.0,0.0,0.0,0.0,0.0,0.0,0.0,0.0,0.0,0.0,3.8227,3.8342,3.7998,3.7913,3.808,3.7929,3.7964,3.818,3.8314,3.7436,3.5799,3.7816,0.0,0.0,0.0,0.0,0.0,3.8765,3.8601,3.7495,3.8997,3.967,3.9781,3.9781,3.9892,4.004,0.0,0.0,0.0,0.0,0.0,0.0,0.0,0.0,0.0,0.0,0.0,0.0,0.0,0.0,0.0,0.0,0.0,0.0,0.0,0.0,0.0,0.0,0.0,0.0,0.0,2.2052,2.1766,2.1534,2.2579,2.2741,2.2086,2.287,2.3236,2.3289,2.3289,0.0,0.0,0.0,0.0,0.0,0.0,0.0,0.0,0.0,0.0,0.0,0.0,0.0,0.0,0.0,0.0,0.0,0.0,0.0,0.0,0.0,0.0,0.0,0.0,3.2539,0.0,0.0,0.0,0.0,0.0,0.0,0.0,2.9833,3.1053,3.1635,3.0152,3.1185,3.1748,3.0133,3.2518,0.0,0.0,0.0,0.0,0.0,0.0,0.0,0.0,0.0,0.0,0.0,0.0,0.0,0.0,0.0,3.8778,3.9129,3.8836,3.864,3.8658,3.8609,3.8554,3.8444,3.8828,3.7682,3.5354,3.7936,0.0,0.0,0.0,0.0,0.0,3.9575,3.9599,3.9717,3.9717,3.9804,3.9911,3.9911,4.0039,4.0213,0.0,0.0,0.0,0.0,0.0,0.0,0.0,0.0,0.0,0.0,0.0,0.0,0.0,0.0,0.0,0.0,0.0,0.0,0.0,0.0,0.0,0.0,0.0,0.0,0.0,2.171,2.1385,2.099,2.1756,2.2078,2.1954,2.2304,2.2664,2.3095,2.3241,0.0,0.0,0.0,0.0,0.0,0.0,0.0,0.0,0.0,0.0,0.0,2.6707,2.635,0.0,0.0,0.0,0.0,0.0,0.0,0.0,0.0,2.7486,2.8388,2.9645,0.0,3.0866,3.0866,3.0584,3.0302,0.0,0.0,0.0,0.0,0.0,0.0,0.0,3.2893,3.3475,3.1804,3.325,0.0,0.0,0.0,0.0,0.0,0.0,0.0,0.0,0.0,0.0,0.0,0.0,0.0,0.0,0.0,3.9017,3.9458,3.9406,3.9237,3.897,3.8718,3.8044,3.6999,3.8311,3.745,3.488,3.7978,0.0,0.0,0.0,0.0,3.9826,3.9717,3.9717,3.9848,3.9848,3.9867,3.9911,4.006,4.0158,4.0232,0.0,0.0,0.0,0.0,0.0,0.0,0.0,0.0,0.0,0.0,0.0,0.0,0.0,0.0,0.0,0.0,0.0,0.0,0.0,0.0,0.0,0.0,0.0,0.0,2.1688,2.1627,2.1448,2.1115,2.2066,2.2371,2.2109,2.218,2.2579,2.3193,2.3636,0.0,0.0,0.0,0.0,0.0,2.6615,0.0,0.0,0.0,0.0,0.0,2.6145,2.565,0.0,2.4968,2.4763,2.4515,0.0,0.0,0.0,0.0,2.7883,2.8714,2.9474,2.9701,2.9889,3.0659,3.0265,2.9908,0.0,0.0,0.0,0.0,0.0,0.0,0.0,0.0,0.0,0.0,0.0,0.0,0.0,0.0,0.0,0.0,0.0,0.0,0.0,0.0,0.0,0.0,0.0,0.0,0.0,0.0,3.9343,3.9577,3.9602,3.9508,3.9335,3.9183,3.8159,3.6242,3.8249,3.781,3.534,3.8305,0.0,0.0,0.0,0.0,3.9918,3.9015,3.9126,3.9889,3.9889,3.9975,4.004,4.0158,4.03,4.0453,0.0,0.0,0.0,0.0,0.0,0.0,0.0,0.0,0.0,0.0,0.0,0.0,0.0,0.0,0.0,0.0,0.0,0.0,0.0,0.0,0.0,0.0,0.0,2.1031,2.1573,2.1555,2.1539,2.1514,2.2716,2.3005,2.2398,2.2317,2.2616,2.32,2.385,2.4251,0.0,0.0,0.0,0.0,2.7065,0.0,0.0,0.0,0.0,0.0,0.0,0.0,0.0,2.4247,2.4321,2.4481,2.472,0.0,0.0,0.0,0.0,0.0,2.9597,2.9755,3.0151,3.1808,3.0942,3.0152,3.1826,0.0,0.0,0.0,0.0,0.0,0.0,0.0,0.0,0.0,0.0,0.0,0.0,0.0,0.0,0.0,0.0,0.0,0.0,0.0,0.0,0.0,0.0,0.0,0.0,0.0,0.0,3.9602,3.9602,3.9602,3.9602,3.9669,3.8465,3.6111,3.8465,3.8399,3.6279,3.8704,3.987,0.0,0.0,0.0,3.9982,3.8439,3.8643,3.9911,3.9914,4.0059,4.0214,4.0267,4.0468,4.071,0.0,0.0,0.0,0.0,0.0,0.0,0.0,0.0,0.0,0.0,0.0,0.0,0.0,0.0,0.0,0.0,0.0,0.0,0.0,0.0,0.0,0.0,2.0898,2.0754,2.1011,2.096,2.1136,2.1581,2.2536,2.295,2.2884,2.2495,2.2269,2.2217,2.2455,2.3183,2.4305,2.5181,2.5953,2.6498,2.6481,0.0,0.0,0.0,0.0,0.0,0.0,0.0,0.0,2.4229,2.4408,2.4782,2.5471,0.0,0.0,0.0,0.0,0.0,2.995,2.994,3.0324,3.1883,3.0979,3.0132,3.1807,0.0,0.0,0.0,0.0,0.0,0.0,0.0,0.0,0.0,0.0,0.0,0.0,0.0,0.0,0.0,0.0,0.0,0.0,0.0,0.0,0.0,0.0,0.0,0.0,0.0,0.0,3.9602,3.9602,3.9602,3.9602,3.9669,3.8747,3.6938,3.8729,3.8723,3.7168,3.8968,3.987,0.0,0.0,3.9929,3.9998,3.9833,3.9812,3.9911,4.008,4.0177,4.0232,4.0519,4.0645,4.0742,0.0,0.0,0.0,0.0,0.0,0.0,0.0,0.0,0.0,0.0,0.0,0.0,0.0,0.0,0.0,0.0,0.0,0.0,0.0,0.0,0.0,2.1556,2.1335,2.1255,2.1456,2.1608,2.1881,2.2254,2.2352,2.2643,2.307,2.3179,2.2716,2.1843,2.3142,2.4069,2.4691,2.5409,2.5959,2.6318,0.0,0.0,0.0,0.0,0.0,0.0,0.0,0.0,0.0,0.0,2.4688,2.5386,2.585,0.0,0.0,0.0,0.0,0.0,3.0041,3.0034,3.0646,3.3108,3.1712,3.0658,0.0,0.0,0.0,0.0,0.0,0.0,0.0,0.0,0.0,0.0,0.0,0.0,0.0,0.0,0.0,0.0,0.0,0.0,0.0,0.0,0.0,0.0,0.0,0.0,0.0,0.0,0.0,0.0,3.965,3.9674,3.9708,3.975,3.8652,3.6534,3.8757,3.8729,3.678,3.8902,3.9956,4.012,0.0,3.9427,4.021,3.9238,3.9373,4.0176,4.0195,4.0298,4.0505,4.081,4.0926,4.094,0.0,0.0,0.0,0.0,0.0,0.0,0.0,0.0,0.0,0.0,0.0,0.0,0.0,0.0,0.0,0.0,0.0,0.0,0.0,0.0,2.1608,2.2016,2.2062,2.2069,2.2073,2.2343,2.2502,2.2582,2.2506,2.2691,2.3095,2.3545,2.2989,2.1658,2.3429,2.4384,2.4706,2.5244,2.5648,2.5935,0.0,0.0,0.0,0.0,0.0,0.0,0.0,0.0,0.0,0.0,0.0,0.0,0.0,0.0,0.0,2.9302,2.9877,3.0406,3.015,3.0133,3.0833,3.3653,3.205,0.0,0.0,0.0,0.0,0.0,0.0,0.0,0.0,0.0,0.0,0.0,0.0,0.0,0.0,0.0,0.0,0.0,0.0,0.0,0.0,0.0,0.0,0.0,0.0,0.0,0.0,0.0,0.0,0.0,3.9777,3.98,3.9804,3.9873,3.8885,3.6923,3.9001,3.8948,3.7125,3.9062,4.008,4.0212,3.8942,3.9192,4.0365,3.8984,3.9196,4.0392,4.0334,4.0496,4.081,4.1019,4.1096,4.1105,0.0,0.0,0.0,0.0,0.0,0.0,0.0,0.0,0.0,0.0,0.0,0.0,0.0,0.0,0.0,0.0,0.0,0.0,0.0,0.0,2.1974,2.2696,2.2962,2.2912,2.2569,2.246,2.2226,2.1875,2.3215,2.3598,2.3095,2.3072,2.2511,2.1514,2.1744,2.253,2.3716,2.3813,2.4356,2.5142,2.4638,0.0,0.0,0.0,0.0,0.0,0.0,0.0,0.0,0.0,0.0,0.0,0.0,0.0,2.9361,3.0221,3.053,3.055,3.0398,3.0336,3.0674,3.234,3.1267,0.0,3.6149,3.3354,0.0,3.6088,0.0,0.0,0.0,0.0,0.0,0.0,0.0,0.0,0.0,0.0,0.0,0.0,0.0,0.0,0.0,0.0,0.0,0.0,0.0,0.0,0.0,0.0,0.0,0.0,0.0,3.9964,3.9804,4.0062,3.9967,3.9539,3.9772,3.9816,3.9646,4.0004,4.0196,4.0213,4.0405,4.0447,4.0408,4.0461,4.0447,4.0408,4.0577,4.078,4.0987,4.1061,4.1109,4.1108,0.0,0.0,0.0,0.0,0.0,0.0,0.0,0.0,0.0,0.0,0.0,0.0,0.0,0.0,0.0,0.0,0.0,0.0,0.0,0.0,2.3255,2.3958,2.4052,2.4113,2.4227,2.391,2.3534,2.3023,2.3101,2.3185,2.3347,2.332,2.3083,2.2688,2.3204,2.3802,2.4494,2.4534,2.4913,2.5412,2.4945,2.4585,0.0,0.0,0.0,0.0,0.0,0.0,0.0,0.0,2.6967,2.7786,2.8493,2.9315,3.0085,3.0424,3.0569,3.055,3.0328,3.0286,3.091,3.3405,3.1916,0.0,0.0,3.4183,3.2712,3.7629,0.0,0.0,0.0,0.0,0.0,0.0,0.0,0.0,0.0,0.0,0.0,0.0,0.0,0.0,0.0,0.0,0.0,0.0,0.0,0.0,0.0,0.0,0.0,0.0,0.0,4.0274,4.0315,4.0227,4.0211,4.0229,4.0177,4.0119,4.008,4.0248,4.0399,4.0526,4.0636,4.0699,4.0703,4.0706,4.0699,4.0715,4.0849,4.0941,4.1013,4.1086,4.1104,4.109,0.0,0.0,0.0,0.0,0.0,0.0,0.0,0.0,0.0,0.0,0.0,0.0,0.0,0.0,0.0,0.0,0.0,0.0,0.0,2.3835,2.4176,2.4641,2.494,2.5317,2.586,2.5605,2.4927,2.3833,2.3529,2.3464,2.3625,2.4132,2.399,2.335,2.4327,2.481,2.489,2.4927,2.512,2.5392,2.5135,2.4801,0.0,0.0,0.0,0.0,0.0,0.0,0.0,0.0,2.8003,2.8719,2.9079,2.9793,3.0509,3.052,3.053,3.049,3.0316,3.049,3.1268,3.3595,0.0,0.0,3.6226,3.4714,3.3581,3.7981,0.0,0.0,0.0,0.0,0.0,0.0,0.0,0.0,0.0,0.0,0.0,0.0,0.0,0.0,0.0,0.0,0.0,0.0,0.0,0.0,0.0,0.0,0.0,0.0,0.0,4.0565,4.0604,4.0453,4.0442,4.0511,4.045,4.037,4.0266,4.0412,4.0563,4.0694,4.0742,4.0818,4.0878,4.0807,4.0818,4.0917,4.0976,4.1006,4.1019,4.107,4.1103,4.1094,0.0,0.0,0.0,0.0,0.0,0.0,0.0,0.0,0.0,0.0,0.0,0.0,0.0,0.0,0.0,0.0,0.0,0.0,2.3264,2.41,2.4598,2.4598,2.5592,2.6488,2.7282,2.7282,2.6191,2.394,2.4711,2.4648,2.3857,2.549,2.5132,2.3182,2.4725,2.5126,2.4622,2.464,2.471,2.4843,2.5045,2.5207,2.5436,0.0,0.0,0.0,0.0,0.0,0.0,0.0,2.8588,2.8951,2.9827,3.0292,3.0519,3.0608,3.0519,3.0417,3.0417,3.0999,3.1751,0.0,0.0,0.0,3.6365,3.4755,3.3356,3.6618,0.0,0.0,0.0,0.0,0.0,0.0,0.0,0.0,0.0,0.0,0.0,0.0,0.0,0.0,0.0,0.0,0.0,0.0,0.0,0.0,0.0,0.0,0.0,0.0,0.0,0.0,4.0604,4.0738,4.0703,4.0511,4.0642,4.0597,4.0408,4.061,4.0694,4.0706,4.0839,4.0907,4.0907,4.0907,4.0907,4.0917,4.0967,4.0994,4.1006,4.1068,4.1093,4.1093,0.0,0.0,0.0,0.0,0.0,0.0,0.0,0.0,0.0,0.0,0.0,0.0,0.0,0.0,0.0,0.0,0.0,0.0,0.0,2.5069,2.5363,2.5644,2.6492,2.7057,2.7282,2.6653,2.6247,2.6079,2.419,2.4213,2.5934,2.451,2.4094,2.462,2.5888,2.5875,2.4992,2.6752,2.6945,2.6153,2.6296,2.6372,2.6409,0.0,0.0,0.0,0.0,0.0,0.0,0.0,0.0,0.0,3.0239,3.0469,3.082,3.2048,3.1526,3.0781,3.1865,3.1448,0.0,0.0,0.0,0.0,0.0,3.4433,0.0,0.0,0.0,0.0,0.0,0.0,0.0,0.0,0.0,0.0,0.0,0.0,0.0,0.0,0.0,0.0,0.0,0.0,0.0,0.0,0.0,0.0,0.0,0.0,0.0,0.0,0.0,0.0,4.0952,4.084,4.083,4.0849,4.0751,4.0672,4.0623,4.0765,4.0839,4.0839,4.0878,4.0907,4.0888,4.0943,4.098,4.096,4.0993,4.0994,4.0996,4.1029,4.1033,4.1039,0.0,0.0,0.0,0.0,0.0,0.0,0.0,0.0,0.0,0.0,2.5013,2.513,0.0,0.0,0.0,0.0,0.0,0.0,0.0,0.0,2.5723,2.5678,2.6419,2.6954,2.7215,2.6107,2.5826,2.6482,2.4415,2.4064,2.5287,2.4346,2.4355,2.5262,2.6615,2.6858,2.6332,2.7846,2.7988,2.7264,2.7342,2.7342,2.734,0.0,0.0,0.0,0.0,0.0,0.0,0.0,0.0,0.0,3.0447,3.1003,3.1652,3.197,3.1763,3.1619,3.2499,3.2206,0.0,0.0,0.0,0.0,0.0,0.0,0.0,0.0,0.0,0.0,0.0,0.0,0.0,0.0,0.0,0.0,0.0,0.0,0.0,0.0,0.0,0.0,0.0,0.0,0.0,0.0,0.0,0.0,0.0,0.0,0.0,0.0,0.0,0.0,4.1059,4.0949,4.0921,4.1006,4.0885,4.082,4.0818,4.0898,4.0936,4.0907,4.0907,4.0907,4.0907,4.0935,4.0957,4.0968,4.0998,4.0991,4.0996,4.0994,4.0994,4.1003,0.0,0.0,0.0,0.0,0.0,0.0,0.0,0.0,0.0,0.0,2.5182,2.5303,0.0,0.0,0.0,0.0,0.0,0.0,0.0,0.0,2.5596,2.504,2.5781,2.6461,2.7085,2.5712,2.5261,2.5822,2.5094,2.419,2.325,2.4874,2.5559,2.5476,2.7123,2.7901,2.7993,2.8216,2.8234,2.8124,2.8199,2.8197,2.825,2.9251,0.0,0.0,0.0,0.0,0.0,0.0,0.0,0.0,3.0488,3.1602,3.257,3.1025,3.1584,3.2723,3.2775,0.0,0.0,0.0,0.0,0.0,0.0,0.0,0.0,0.0,0.0,0.0,0.0,0.0,0.0,0.0,0.0,0.0,0.0,0.0,0.0,0.0,0.0,0.0,0.0,0.0,0.0,0.0,0.0,0.0,0.0,0.0,0.0,0.0,0.0,4.1006,4.1006,4.1006,4.1006,0.0,4.1006,4.1003,4.101,4.101,4.0954,4.0907,4.0907,4.0888,4.0917,4.0906,4.0909,4.0929,4.0974,4.0994,4.1004,4.1003,4.1003,4.1003,0.0,0.0,0.0,0.0,0.0,0.0,0.0,0.0,0.0,0.0,0.0,0.0,0.0,0.0,0.0,0.0,0.0,0.0,0.0,0.0,2.4408,2.4988,2.622,2.6916,2.704,2.6038,2.5982,2.6877,2.5052,2.4618,2.5507,2.5882,2.638,2.6991,2.8396,2.8324,2.7306,2.924,2.9293,2.8161,2.8969,2.9231,2.9232,2.9725,2.9918,0.0,0.0,0.0,0.0,0.0,0.0,0.0,3.0569,3.084,3.1333,3.229,3.2698,3.3173,3.4619,3.4419,0.0,0.0,0.0,0.0,0.0,0.0,0.0,0.0,0.0,0.0,0.0,0.0,0.0,0.0,0.0,0.0,0.0,0.0,0.0,0.0,0.0,0.0,0.0,0.0,0.0,0.0,0.0,0.0,0.0,0.0,0.0,0.0,4.1032,4.1006,4.1006,4.0991,4.1003,0.0,4.1003,4.0996,4.1007,4.0991,4.0954,4.0907,4.0907,4.0926,4.0988,4.0978,4.0984,4.0986,4.0994,4.0994,4.0998,4.1003,4.1006,4.1,0.0,0.0,0.0,0.0,0.0,0.0,0.0,0.0,0.0,0.0,0.0,0.0,0.0,0.0,0.0,0.0,0.0,0.0,0.0,0.0,0.0,2.5505,2.694,2.7562,2.7233,2.6444,2.6329,2.6922,2.591,2.5676,2.6091,2.6183,2.6741,2.7724,2.8447,2.8533,2.818,2.9481,2.956,2.8857,2.9383,2.9645,2.9732,2.9965,3.006,3.0056,3.0161,0.0,0.0,0.0,0.0,0.0,0.0,0.0,3.1806,3.1815,3.2339,3.3108,0.0,0.0,0.0,0.0,0.0,0.0,0.0,0.0,0.0,0.0,0.0,0.0,0.0,0.0,0.0,0.0,0.0,0.0,0.0,0.0,0.0,0.0,0.0,0.0,0.0,0.0,0.0,0.0,0.0,0.0,0.0,0.0,0.0,4.1059,4.1013,4.1006,4.0991,4.1003,4.0996,4.0996,4.0993,4.1007,4.0993,4.0988,4.0954,4.0907,4.0935,4.0957,4.0955,4.0996,4.0973,4.097,4.0994,4.0994,4.0993,4.1007,4.1007,4.1006,0.0,0.0,0.0,0.0,0.0,0.0,0.0,0.0,0.0,0.0,0.0,0.0,0.0,0.0,0.0,0.0,0.0,0.0,0.0,0.0,0.0,0.0,2.7431,2.8031,2.7587,2.6946,2.6772,2.7049,2.7166,2.7097,2.694,2.7053,2.7643,2.8627,2.8695,2.8998,2.9407,2.9407,2.9491,2.9608,2.9626,2.9769,2.995,3.0075,3.0138,3.0133,3.0174,3.0254,3.0328,3.0379,0.0,0.0,0.0,0.0,3.2357,3.0805,3.1549,3.2891,0.0,0.0,0.0,0.0,0.0,0.0,0.0,0.0,0.0,0.0,0.0,0.0,0.0,0.0,0.0,0.0,0.0,0.0,0.0,0.0,0.0,0.0,0.0,0.0,0.0,0.0,0.0,0.0,0.0,0.0,0.0,0.0,4.1065,4.1013,4.1013,4.0999,4.1003,4.1011,4.0991,4.0991,4.1003,4.0998,4.0992,4.0993,4.0976,4.0915,4.0968,4.0974,4.0918,4.098,4.0976,4.0916,4.0979,4.1,4.0999,4.0999,4.1013,4.1032,0.0,0.0,0.0,0.0,0.0,0.0,0.0,0.0,0.0,0.0,2.5816,2.5581,0.0,0.0,0.0,0.0,0.0,0.0,0.0,0.0,0.0,0.0,2.6877,2.7674,2.7847,2.7643,2.7994,2.8934,2.8271,2.8881,0.0,0.0,0.0,3.1122,0.0,3.0615,2.9407,2.9407,2.9491,2.9608,2.9732,2.988,3.0095,3.0221,3.0273,3.0267,3.0215,3.0279,3.0394,3.039,3.0477,0.0,0.0,0.0,3.0888,3.0617,3.1675,3.2928,0.0,0.0,0.0,0.0,0.0,0.0,0.0,0.0,0.0,0.0,0.0,0.0,0.0,0.0,0.0,0.0,0.0,0.0,0.0,0.0,0.0,0.0,0.0,0.0,0.0,0.0,0.0,0.0,0.0,0.0,0.0,4.111,4.111,4.1085,4.1032,4.1006,4.1006,4.0994,4.1006,4.1011,4.101,4.1003,4.1,4.1003,4.0992,4.1,4.1,4.0988,4.0995,4.0994,4.0991,4.0998,4.0993,4.0999,4.0999,4.1006,4.1039,4.1085,0.0,0.0,0.0,0.0,0.0,0.0,0.0,0.0,0.0,0.0,0.0,2.5313,0.0,0.0,0.0,0.0,0.0,0.0,0.0,0.0,0.0,2.6896,2.7929,2.8393,2.8119,2.8101,2.8362,2.8928,2.8629,0.0,0.0,3.287,3.249,0.0,0.0,0.0,0.0,3.0502,3.0509,2.9886,2.9946,3.008,3.0222,3.0267,3.0023,2.9632,2.9595,2.9317,2.8991,2.9011,2.9062,2.9128,2.9128,0.0,0.0,0.0,3.0318,0.0,3.403,0.0,0.0,0.0,0.0,0.0,0.0,0.0,0.0,0.0,0.0,0.0,0.0,0.0,0.0,0.0,0.0,0.0,0.0,0.0,0.0,0.0,0.0,0.0,0.0,0.0,0.0,0.0,0.0,0.0,4.1091,4.1106,4.1106,4.1091,4.1065,4.1039,4.1006,4.0998,4.1019,4.1064,4.1053,4.1051,4.1055,4.1052,4.1041,4.0994,4.1042,4.1027,4.0991,4.1035,4.1037,4.0993,4.0999,4.0999,4.1006,4.1039,4.0991,4.0932,0.0,0.0,0.0,0.0,0.0,0.0,0.0,0.0,0.0,0.0,0.0,0.0,0.0,0.0,0.0,0.0,0.0,0.0,0.0,0.0,0.0,2.8128,2.8737,2.8873,2.8406,2.844,2.8492,2.8587,0.0,0.0,3.3357,3.4136,3.3929,0.0,3.385,3.3047,0.0,0.0,0.0,0.0,3.0667,3.0445,3.0009,3.0208,2.992,2.9402,2.9397,0.0,0.0,0.0,0.0,0.0,0.0,0.0,0.0,0.0,0.0,0.0,0.0,0.0,0.0,0.0,0.0,0.0,0.0,0.0,0.0,0.0,0.0,0.0,0.0,0.0,0.0,0.0,0.0,0.0,0.0,0.0,0.0,0.0,0.0,0.0,0.0,0.0,0.0,0.0,0.0,0.0,4.1096,4.1108,4.1111,4.1096,4.1096,4.1072,4.1022,4.1026,4.1052,4.1107,4.1105,4.111,4.1094,4.109,4.1073,4.1022,4.1082,4.1074,4.103,4.1074,4.1056,4.0991,4.1025,4.1032,4.1032,4.1018,4.0932,4.0791,0.0,0.0,0.0,0.0,0.0,0.0,0.0,0.0,0.0,0.0,0.0,0.0,0.0,2.6573,2.6706,2.7029,0.0,0.0,0.0,0.0,0.0,2.8466,2.845,0.0,2.8669,2.8612,2.8587,0.0,0.0,0.0,3.1853,3.4423,3.5719,3.5836,3.491,3.4538,3.4527,0.0,0.0,0.0,0.0,0.0,2.9256,3.0009,0.0,0.0,0.0,0.0,0.0,0.0,0.0,0.0,0.0,0.0,0.0,0.0,0.0,0.0,0.0,0.0,0.0,0.0,0.0,0.0,0.0,0.0,0.0,0.0,0.0,0.0,0.0,0.0,0.0,0.0,0.0,0.0,0.0,0.0,0.0,0.0,0.0,0.0,0.0,0.0,0.0,0.0,0.0,0.0,4.1093,4.1094,4.1094,4.1093,4.1093,4.1093,4.1093,4.109,4.1094,4.1097,4.1105,4.1091,4.1094,4.1097,4.1099,4.1093,4.1094,4.1105,4.1096,4.1096,4.1056,4.1007,4.1065,4.1091,4.1078,4.0887,4.0801,4.078,0.0,0.0,0.0,0.0,0.0,0.0,0.0,0.0,0.0,0.0,0.0,0.0,0.0,2.7021,2.7053,2.7181,2.7461,0.0,0.0,0.0,0.0,2.8687,2.8687,2.8644,2.8637,2.917,2.9424,0.0,0.0,3.1427,3.3329,3.4473,3.5734,3.7147,3.8831,3.7905,3.5179,3.6744,0.0,0.0,0.0,0.0,0.0,0.0,0.0,0.0,0.0,0.0,0.0,0.0,0.0,0.0,0.0,0.0,0.0,0.0,0.0,0.0,0.0,0.0,0.0,0.0,0.0,0.0,0.0,0.0,0.0,0.0,0.0,0.0,0.0,0.0,0.0,0.0,0.0,0.0,0.0,0.0,0.0,0.0,0.0,0.0,0.0,0.0,0.0,0.0,0.0,0.0,4.1016,3.9508,3.9372,4.1055,4.1094,4.1093,4.1103,4.1103,4.1094,4.11,4.1105,4.1101,4.1103,4.1104,4.1108,4.1103,4.1103,4.1108,4.1091,4.1106,4.1089,4.1071,4.1091,4.1018,4.0896,4.083,4.0629,4.0404,0.0,0.0,0.0,0.0,0.0,0.0,0.0,0.0,0.0,0.0,0.0,0.0,0.0,0.0,2.7474,2.7595,2.8134,2.8586,2.8871,2.9254,2.9519,2.9637,2.9637,2.9587,2.9486,2.974,0.0,0.0,0.0,0.0,0.0,3.4408,3.5552,3.7015,3.9719,3.9451,0.0,0.0,0.0,3.4364,0.0,0.0,3.2558,0.0,0.0,0.0,0.0,0.0,0.0,0.0,0.0,0.0,0.0,0.0,0.0,0.0,0.0,0.0,0.0,0.0,0.0,0.0,0.0,0.0,0.0,0.0,0.0,0.0,0.0,0.0,0.0,0.0,0.0,0.0,0.0,0.0,0.0,0.0,0.0,0.0,0.0,0.0,0.0,0.0,0.0,0.0,0.0,0.0,4.1004,3.9445,3.9306,4.1043,4.1101,4.1094,4.1094,4.1108,4.1104,4.11,4.1109,4.1097,4.1108,4.1101,4.1104,4.1108,4.1104,4.1097,4.1105,4.1111,4.1064,4.1006,4.0991,4.0878,4.0696,4.0629,4.0419,4.0193,0.0,0.0,0.0,0.0,0.0,0.0,0.0,0.0,0.0,2.7426,0.0,0.0,0.0,0.0,0.0,2.8452,2.9424,3.0006,2.9937,3.0844,3.1378,3.1302,0.0,0.0,0.0,0.0,0.0,0.0,0.0,0.0,0.0,0.0,3.5262,3.5507,3.718,3.8834,4.0354,0.0,3.9988,3.9046,0.0,3.7546,3.6526,0.0,0.0,0.0,3.7406,3.7005,0.0,0.0,0.0,0.0,0.0,0.0,0.0,0.0,0.0,0.0,0.0,0.0,0.0,0.0,0.0,0.0,0.0,0.0,0.0,0.0,0.0,0.0,0.0,0.0,0.0,0.0,0.0,0.0,0.0,0.0,0.0,0.0,0.0,0.0,0.0,0.0,0.0,0.0,0.0,4.1013,4.111,4.111,4.111,4.111,4.111,4.1097,4.1095,4.1095,4.1091,4.1094,4.1094,4.1101,4.1108,4.1108,4.1108,4.1108,4.1097,4.1101,4.1104,4.1081,4.0968,4.0779,4.0791,4.0665,4.0463,4.0279,4.0211,4.0157,0.0,0.0,0.0,0.0,0.0,0.0,0.0,0.0,0.0,0.0,0.0,0.0,2.9143,2.9773,3.0161,3.0206,3.062,3.0852,3.0834,3.1148,3.1327,3.1302,3.1258,0.0,0.0,0.0,0.0,0.0,0.0,0.0,0.0,0.0,0.0,0.0,3.543,3.6449,3.7084,4.0142,0.0,0.0,4.0431,3.9104,0.0,0.0,0.0,0.0,0.0,3.7777,3.7495,0.0,3.6331,3.3616,0.0,0.0,0.0,0.0,0.0,0.0,2.6601,0.0,0.0,0.0,0.0,0.0,0.0,0.0,0.0,0.0,0.0,0.0,0.0,0.0,0.0,0.0,0.0,0.0,0.0,0.0,0.0,0.0,0.0,0.0,0.0,0.0,0.0,0.0,3.9346,3.9092,4.0992,4.1097,4.111,4.111,4.1103,4.1089,4.1095,4.1096,4.1109,4.1094,4.1101,4.1108,4.1108,4.1108,4.1108,4.1108,4.1108,4.107,4.1017,4.0981,4.0837,4.0668,4.0665,4.0505,4.0279,4.021,4.012,3.9998,0.0,0.0,0.0,0.0,0.0,0.0,0.0,0.0,0.0,0.0,0.0,0.0,3.0223,3.081,3.0956,3.0567,3.0953,3.1086,3.0732,3.1151,3.1427,3.1427,3.1483,3.1584,0.0,0.0,0.0,0.0,0.0,0.0,0.0,0.0,0.0,0.0,0.0,0.0,0.0,0.0,0.0,0.0,4.07,0.0,0.0,4.0719,4.0338,0.0,0.0,0.0,4.0304,4.1094,3.8977,0.0,0.0,0.0,0.0,0.0,0.0,0.0,0.0,0.0,0.0,0.0,0.0,0.0,2.5691,2.8515,0.0,0.0,0.0,0.0,0.0,0.0,0.0,0.0,0.0,0.0,0.0,0.0,0.0,0.0,0.0,0.0,0.0,0.0,0.0,4.1103,3.9691,3.9496,4.1025,4.1097,4.1091,4.1103,4.1089,4.11,4.1091,4.1105,4.1097,4.1101,4.1108,4.1108,4.1108,4.1108,4.1108,4.1108,4.1108,4.1037,4.0906,4.0863,4.0742,4.0546,4.0524,4.0364,4.0139,4.0101,4.0,3.9889,0.0,0.0,0.0,0.0,0.0,0.0,0.0,0.0,0.0,0.0,2.9997,3.0402,3.1269,3.1462,3.1169,3.0405,3.0986,3.1041,3.0259,3.1096,3.1621,3.1621,3.1808,3.1942,3.2047,0.0,0.0,0.0,0.0,0.0,0.0,0.0,0.0,0.0,0.0,0.0,0.0,0.0,0.0,4.0893,3.995,4.1758,0.0,0.0,4.309,0.0,4.4993,4.4585,4.3335,4.4882,4.2412,0.0,0.0,0.0,0.0,0.0,3.0898,0.0,0.0,0.0,0.0,0.0,0.0,0.0,2.572,2.925,3.2623,0.0,0.0,0.0,0.0,0.0,0.0,0.0,0.0,0.0,0.0,0.0,0.0,0.0,0.0,0.0,0.0,0.0,4.111,4.1091,4.1091,4.1091,4.1097,4.1097,4.1103,4.1095,4.11,4.1091,4.1094,4.1094,4.1101,4.1108,4.1108,4.1108,4.1108,4.1108,4.1108,4.1108,4.1085,4.0972,4.081,4.0801,4.0665,4.0468,4.0403,4.0252,4.0057,3.9933,3.9889,3.9889,2.7215,0.0,0.0,0.0,0.0,0.0,0.0,0.0,0.0,0.0,0.0,3.2305,0.0,0.0,3.2705,3.2423,3.2042,3.1712,3.1522,3.1734,3.1831,3.1831,3.1942,3.2086,3.2316,3.2196,0.0,0.0,0.0,0.0,0.0,0.0,0.0,0.0,0.0,0.0,0.0,0.0,0.0,3.6007,3.9796,0.0,4.1758,4.4182,4.3393,4.1393,4.4569,4.46,4.3134,0.0,4.2168,4.0726,0.0,0.0,0.0,0.0,0.0,0.0,0.0,0.0,0.0,0.0,0.0,0.0,2.5859,2.6483,2.7786,0.0,0.0,0.0,0.0,0.0,0.0,0.0,0.0,0.0,0.0,0.0,0.0,0.0,0.0,0.0,0.0,0.0,4.1097,4.1109,4.1089,4.11,4.11,4.1106,4.1095,4.1111,4.11,4.1109,4.1094,4.1101,4.1108,4.1108,4.1108,4.1108,4.1108,4.1108,4.1108,4.1108,4.1033,4.0948,4.0801,4.0738,4.0535,4.025,4.0233,4.0119,3.9951,3.9911,3.9889,3.9889,2.7554,0.0,0.0,0.0,0.0,0.0,0.0,0.0,0.0,0.0,0.0,0.0,0.0,0.0,0.0,0.0,0.0,0.0,0.0,0.0,0.0,3.0748,3.096,3.1121,3.1309,3.1378,3.1479,0.0,0.0,0.0,0.0,0.0,0.0,0.0,0.0,0.0,0.0,0.0,3.1864,3.4526,3.8373,0.0,4.147,4.4451,4.4528,4.3222,4.5051,4.5171,4.4264,4.2606,4.2131,0.0,0.0,3.6682,3.4453,0.0,3.1582,3.0156,0.0,0.0,0.0,2.7874,0.0,0.0,0.0,2.7008,2.7962,0.0,0.0,0.0,0.0,0.0,0.0,0.0,0.0,0.0,0.0,0.0,0.0,0.0,0.0,0.0,0.0,4.1025,4.1052,4.11,4.1106,4.1091,4.1105,4.1091,4.1091,4.1105,4.109,4.1097,4.1101,4.1108,4.1108,4.1108,4.1108,4.1108,4.1108,4.1108,4.1108,4.1108,4.1066,4.0948,4.0801,4.0751,4.053,4.0196,4.0196,4.0138,3.9994,3.9911,3.9889,3.9889,2.7678,0.0,0.0,0.0,0.0,0.0,0.0,0.0,0.0,0.0,0.0,0.0,0.0,0.0,0.0,0.0,0.0,0.0,0.0,0.0,0.0,0.0,2.9956,3.0161,3.0232,3.0279,3.0349,0.0,0.0,0.0,0.0,0.0,0.0,0.0,0.0,0.0,0.0,0.0,0.0,3.5206,0.0,3.9702,4.1393,4.4449,4.5278,4.4893,4.5503,4.5766,4.5461,4.2966,0.0,4.2136,4.1714,3.8409,0.0,0.0,0.0,0.0,0.0,0.0,0.0,0.0,0.0,2.7457,0.0,0.0,0.0,2.9026,0.0,0.0,0.0,0.0,0.0,0.0,0.0,0.0,0.0,0.0,0.0,0.0,0.0,0.0,0.0,3.9926,4.0441,4.1042,4.1056,4.1056,4.1091,4.1096,4.1105,4.1097,4.1097,4.1101,4.1108,4.1108,4.1108,4.1108,4.1108,4.1108,4.1108,4.1108,4.1108,4.1108,4.1081,4.0967,4.081,4.0762,4.0538,4.0196,4.0196,4.0158,4.0036,3.9933,3.9889,3.9889,2.7842,2.88,0.0,0.0,0.0,0.0,0.0,0.0,0.0,0.0,0.0,0.0,0.0,0.0,0.0,0.0,0.0,0.0,3.0028,0.0,0.0,0.0,0.0,0.0,3.0299,3.0343,3.0398,3.0398,0.0,0.0,0.0,0.0,0.0,0.0,3.0462,0.0,0.0,0.0,3.5441,0.0,4.0616,4.0355,0.0,4.3766,4.4225,4.2613,4.5015,4.5914,4.5589,0.0,4.222,4.1897,0.0,3.6981,0.0,0.0,0.0,0.0,0.0,0.0,0.0,0.0,2.9381,0.0,0.0,0.0,2.7288,2.7288,0.0,0.0,0.0,0.0,0.0,0.0,0.0,0.0,0.0,0.0,0.0,0.0,0.0,0.0,0.0,0.0,3.8382,4.0838,4.091,4.0906,4.1091,4.1105,4.1097,4.1108,4.1108,4.1108,4.1108,4.1108,4.1108,4.1108,4.1108,4.1108,4.1108,4.1108,4.1108,4.1108,4.1047,4.094,4.0801,4.0609,4.0392,4.0196,4.0196,4.008,3.9911,3.9911,3.9889,3.9889,2.7317,2.779,0.0,0.0,0.0,0.0,0.0,0.0,0.0,0.0,0.0,0.0,0.0,0.0,0.0,0.0,0.0,3.5799,0.0,0.0,0.0,0.0,0.0,0.0,0.0,3.0374,3.0398,3.0398,3.0439,0.0,0.0,0.0,0.0,0.0,3.0561,0.0,3.4469,0.0,0.0,0.0,0.0,0.0,0.0,4.3813,4.508,4.4182,4.3826,4.4715,4.5437,0.0,4.205,0.0,0.0,0.0,0.0,0.0,0.0,0.0,0.0,0.0,0.0,0.0,0.0,0.0,0.0,0.0,2.6993,0.0,0.0,0.0,0.0,0.0,0.0,0.0,0.0,0.0,0.0,0.0,0.0,0.0,0.0,0.0,0.0,0.0,0.0,0.0,0.0,3.8721,3.8889,4.0301,4.1104,4.1108,4.1108,4.1108,4.1108,4.1108,4.1108,4.1108,4.1108,4.1108,4.1108,4.1108,4.1108,4.1108,4.1042,4.0914,4.0781,4.066,4.0446,4.0196,4.0196,4.008,3.9889,3.9889,3.9889,3.9889,2.6968,0.0,0.0,0.0,0.0,0.0,0.0,0.0,0.0,0.0,0.0,0.0,3.7831,3.6065,0.0,0.0,0.0,3.8003,0.0,0.0,3.4931,0.0,0.0,0.0,0.0,0.0,0.0,3.0441,0.0,0.0,0.0,0.0,0.0,0.0,0.0,3.2081,3.4573,0.0,0.0,3.9488,4.0235,4.0538,4.0827,4.3742,4.527,4.5666,4.3869,4.446,4.5454,4.1055,4.206,0.0,4.0819,0.0,0.0,0.0,0.0,0.0,3.5273,0.0,0.0,0.0,0.0,0.0,0.0,0.0,0.0,0.0,0.0,0.0,0.0,0.0,0.0,0.0,0.0,0.0,0.0,0.0,0.0,0.0,0.0,0.0,0.0,0.0,0.0,0.0,3.6596,3.7085,3.7242,3.9696,4.1108,4.1108,4.1108,4.1108,4.1108,4.1108,4.1108,4.1108,4.1108,4.1108,4.1108,4.1108,4.1085,4.107,4.1011,4.0918,4.0761,4.0655,4.0466,4.0196,4.0139,4.0019,3.9889,3.9889,3.9889,3.9889,2.7145,2.8605,0.0,0.0,0.0,0.0,0.0,0.0,0.0,0.0,0.0,0.0,0.0,0.0,0.0,0.0,0.0,3.9337,3.7718,0.0,3.763,0.0,0.0,3.1513,0.0,0.0,0.0,0.0,0.0,0.0,0.0,0.0,0.0,0.0,0.0,3.2155,3.4763,3.7224,3.9823,4.248,4.4961,4.5907,4.5601,0.0,4.3856,4.5916,4.6036,0.0,0.0,4.3162,4.2383,0.0,0.0,0.0,0.0,0.0,0.0,0.0,0.0,0.0,0.0,3.5329,0.0,0.0,0.0,0.0,2.7819,0.0,0.0,0.0,0.0,0.0,2.2861,2.2786,0.0,0.0,0.0,0.0,0.0,0.0,0.0,0.0,0.0,0.0,0.0,3.31,3.5407,3.689,3.7092,3.9642,4.1108,4.1108,4.1108,4.1108,4.1108,4.1108,4.1108,4.1108,4.1108,4.1108,4.1108,4.1108,4.1066,4.0994,4.0994,4.0885,4.0694,4.0487,4.0334,4.0177,3.9996,3.9911,3.9889,3.9889,3.9889,3.9889,0.0,0.0,0.0,0.0,0.0,0.0,0.0,3.0763,0.0,0.0,0.0,0.0,0.0,0.0,3.9364,0.0,0.0,4.2749,4.1207,4.0594,0.0,0.0,0.0,3.5066,0.0,0.0,0.0,0.0,0.0,0.0,0.0,0.0,0.0,0.0,0.0,3.1403,0.0,0.0,0.0,0.0,0.0,4.3671,4.3746,0.0,0.0,4.6114,4.6175,4.6237,0.0,4.3262,4.3555,4.4687,4.2949,4.1816,4.1621,4.4219,4.1953,0.0,0.0,0.0,4.0894,4.0013,0.0,0.0,0.0,0.0,0.0,0.0,0.0,0.0,0.0,0.0,2.2719,2.264,2.2806,0.0,0.0,0.0,0.0,0.0,0.0,0.0,0.0,0.0,0.0,3.021,3.1265,3.1914,0.0,3.6212,3.859,3.859,4.021,4.1108,4.1108,4.1108,4.1108,4.1108,4.1108,4.1108,4.1108,4.1108,4.1066,4.1007,4.0898,4.0801,4.0681,4.0526,4.0406,4.0325,4.0158,4.0078,4.0015,3.9933,3.9889,3.9889,2.8903,0.0,0.0,0.0,0.0,0.0,0.0,0.0,0.0,0.0,3.6197,0.0,4.1965,0.0,4.0984,0.0,4.3111,4.352,4.3771,4.1315,0.0,4.3066,3.9277,0.0,0.0,0.0,0.0,0.0,0.0,3.106,0.0,0.0,0.0,0.0,0.0,0.0,3.2285,0.0,3.8746,0.0,0.0,4.2962,0.0,0.0,4.5386,4.6239,0.0,4.6265,4.6035,4.4355,4.4902,4.6016,4.4316,4.3789,4.4121,4.5801,4.3945,4.1699,4.334,4.3788,0.0,4.2628,4.0748,0.0,3.7464,0.0,0.0,0.0,0.0,0.0,0.0,0.0,0.0,2.2324,2.214,2.2195,0.0,2.2493,0.0,0.0,0.0,0.0,0.0,0.0,2.6498,2.6773,2.8335,2.9201,0.0,0.0,3.7301,3.7301,3.9761,4.1108,4.1108,4.1108,4.1108,4.1108,4.1108,4.1108,4.1108,4.1074,4.1017,4.0926,4.082,4.0703,4.0615,4.0504,4.0411,4.0325,4.0215,4.0099,4.0015,3.9933,3.9889,3.9889,0.0,0.0,0.0,0.0,2.9882,0.0,0.0,0.0,3.6481,0.0,3.9781,3.9743,4.217,4.0513,4.0099,4.2307,4.1284,0.0,4.4959,4.0057,0.0,0.0,3.9431,3.7866,4.1821,0.0,0.0,0.0,0.0,0.0,0.0,0.0,0.0,0.0,2.8244,0.0,2.9808,3.5037,3.7809,3.8924,4.1279,4.3745,4.5779,4.334,4.4023,4.6308,4.6308,4.6308,4.6308,4.6308,4.6308,4.6308,4.6308,4.6308,4.6308,4.6308,4.6308,4.6308,4.6308,4.6308,4.5703,4.3212,0.0,0.0,0.0,0.0,3.6176,0.0,0.0,0.0,0.0,0.0,0.0,2.2001,2.1455,2.1589,0.0,0.0,0.0,0.0,0.0,0.0,0.0,2.6598,2.6866,2.3127,2.6633,0.0,0.0,0.0,3.7028,3.7282,3.9527,4.0834,4.1108,4.0971,4.0971,4.1108,4.1108,4.1085,4.1081,4.1017,4.0926,4.0801,4.0734,4.0615,4.0508,4.0427,4.0325,4.0196,4.0138,4.0015,3.9889,3.9889,3.9889,3.9867,3.039,3.0315,3.0541,0.0,3.1424,3.2956,0.0,0.0,0.0,0.0,4.0133,4.1144,4.2482,4.3229,4.2928,4.1112,4.176,0.0,0.0,0.0,0.0,4.547,4.4021,4.2802,4.2047,4.0821,0.0,3.8543,0.0,0.0,3.3335,0.0,0.0,0.0,0.0,0.0,2.8051,3.3866,3.7929,4.0413,3.9818,4.072,0.0,0.0,4.4023,4.6308,4.6308,4.6308,4.6308,4.6308,4.6308,4.6308,4.6308,4.6308,4.6308,4.6308,4.6308,4.6308,4.6308,4.6307,4.6148,4.5462,4.2854,4.0216,0.0,0.0,0.0,0.0,0.0,0.0,0.0,0.0,0.0,0.0,2.2163,0.0,0.0,0.0,0.0,0.0,0.0,0.0,0.0,2.3992,2.4007,2.3647,2.478,0.0,0.0,0.0,0.0,3.7184,3.6052,3.7223,4.1049,3.9214,3.9201,4.1037,4.1037,4.0974,4.0879,4.0855,4.0811,4.0723,4.0706,4.0615,4.0489,4.0473,4.0408,4.0342,4.0234,4.0059,3.9889,3.9889,3.9889,3.9889,3.0476,0.0,0.0,3.0067,0.0,0.0,3.5325,0.0,0.0,4.1258,4.1776,0.0,4.369,4.4745,4.4595,4.2754,4.2138,0.0,0.0,0.0,0.0,4.5549,4.5022,4.386,4.214,4.2169,0.0,4.0164,0.0,0.0,3.4441,0.0,0.0,0.0,0.0,2.6646,0.0,3.3851,3.8327,4.1047,4.0485,0.0,0.0,4.2656,4.4023,4.6308,4.6308,4.6308,4.6308,4.6308,4.6308,4.6308,4.6308,4.6308,4.6308,4.6308,4.6308,4.6308,4.6308,4.6307,4.6282,4.6256,4.4133,4.2017,4.1955,3.9696,3.7347,0.0,0.0,0.0,0.0,0.0,0.0,0.0,0.0,0.0,0.0,0.0,0.0,0.0,0.0,0.0,0.0,2.2608,2.2658,2.2834,0.0,0.0,0.0,0.0,0.0,3.3228,3.4754,3.6216,3.7635,3.6596,3.7141,3.9247,3.9247,3.9801,4.081,4.0761,4.0746,4.0694,4.0629,4.0579,4.0489,4.0489,4.0425,4.0307,4.0139,3.9998,3.9889,3.9889,3.9889,3.9889,0.0,0.0,0.0,0.0,0.0,0.0,0.0,3.8995,0.0,4.4388,0.0,4.3617,4.486,4.5246,4.5343,4.5112,0.0,4.2101,4.5081,4.1135,4.0819,4.5595,4.4376,4.328,4.2646,4.2701,0.0,0.0,0.0,3.4519,3.5874,0.0,0.0,0.0,0.0,0.0,0.0,3.4228,3.8353,0.0,4.2049,4.3691,4.543,4.3613,4.4316,4.6308,4.6308,4.6308,4.6308,4.6308,4.6308,4.6308,4.6308,4.6308,4.6308,4.6308,4.6308,4.6308,4.6308,4.6286,4.6276,4.6202,4.5455,4.467,4.455,4.3676,4.2626,4.1732,4.1505,4.0307,0.0,0.0,0.0,0.0,0.0,0.0,0.0,0.0,0.0,0.0,0.0,0.0,0.0,0.0,0.0,0.0,0.0,0.0,0.0,0.0,0.0,2.8668,3.4034,0.0,3.3881,0.0,3.5434,3.7633,3.7206,3.8315,4.0761,4.0699,4.0668,4.0668,4.0549,4.0489,4.0489,4.0489,4.0375,4.0158,3.9975,3.9889,3.9889,3.9889,3.9889,3.9867,0.0,0.0,0.0,0.0,0.0,3.7649,4.0368,4.2637,4.3838,4.335,4.425,4.4575,4.3592,4.4724,4.501,4.3626,4.2972,0.0,0.0,0.0,0.0,4.577,4.5702,4.5527,4.5403,4.552,4.5585,0.0,3.8836,3.5701,3.5854,2.9084,0.0,0.0,0.0,0.0,3.4361,3.3411,0.0,4.1185,4.205,4.2285,4.2344,4.4726,4.5898,4.6308,4.6308,4.6308,4.6308,4.6308,4.6308,4.6308,4.6308,4.6308,4.6308,4.6308,4.6307,4.6303,4.6303,4.6267,4.6201,4.6197,4.4922,4.3665,4.3637,4.2338,4.1061,4.077,4.0704,4.0425,3.9578,0.0,0.0,0.0,0.0,0.0,0.0,0.0,0.0,0.0,0.0,0.0,0.0,0.0,0.0,0.0,0.0,0.0,0.0,0.0,0.0,0.0,3.0393,0.0,0.0,0.0,3.5997,4.1001,3.8244,3.8199,4.0559,4.053,4.0534,4.0534,4.0504,4.0489,4.0489,4.0444,4.0289,4.0098,3.9954,3.9889,3.9889,3.9889,3.9889,3.9889,0.0,0.0,0.0,0.0,0.0,0.0,0.0,4.3159,0.0,4.4288,4.4977,4.5206,4.4489,4.5105,4.531,4.4562,4.367,4.3554,4.4529,4.3784,4.4102,4.5913,4.6066,0.0,4.4203,4.5566,4.5637,4.4288,3.8712,3.5991,3.5854,2.8928,0.0,0.0,0.0,3.0203,0.0,0.0,0.0,4.1285,4.3535,4.4199,4.4023,4.5664,4.6308,4.6308,4.6308,4.6308,4.6308,4.6308,4.6308,4.6308,4.6308,4.6308,4.6307,4.6307,4.6282,4.6254,4.6254,4.6177,4.6098,4.6098,4.4676,4.3307,4.3307,4.1893,4.0593,4.0504,4.0444,3.9862,3.8049,3.5063,0.0,0.0,0.0,0.0,0.0,0.0,0.0,0.0,0.0,0.0,0.0,0.0,0.0,0.0,0.0,0.0,0.0,0.0,0.0,0.0,0.0,0.0,0.0,0.0,0.0,3.9124,3.7552,3.8103,4.0495,4.0508,4.0489,4.0489,4.0489,4.0489,4.0489,4.0341,4.0215,4.0096,3.9954,3.9889,3.9889,3.9889,3.9889,3.9889,0.0,3.3161,0.0,0.0,3.6151,0.0,4.0377,4.3056,4.5035,4.54,4.5531,4.5586,4.5586,4.562,4.5452,4.5012,4.4241,4.3928,4.4288,4.4102,4.4362,4.5265,4.5843,4.5221,4.3261,4.5249,4.5282,0.0,3.9103,3.6716,3.5854,2.9689,2.6782,0.0,0.0,0.0,0.0,0.0,4.154,4.244,4.5195,4.6308,4.6308,4.6308,4.6308,4.6308,4.6308,4.6308,4.6308,4.6308,4.6308,4.6308,4.6308,4.6306,4.6301,4.628,4.6231,4.6195,4.6167,4.6086,4.5959,4.5726,4.4412,4.3109,4.2916,4.1624,4.046,4.046,4.0381,3.9489,3.6848,3.5758,0.0,0.0,0.0,0.0,0.0,0.0,0.0,0.0,0.0,0.0,0.0,0.0,0.0,0.0,0.0,0.0,0.0,0.0,0.0,0.0,0.0,3.1916,3.279,0.0,3.5143,0.0,3.703,3.8024,4.0499,4.0492,4.0489,4.0489,4.0489,4.0473,4.0425,4.0252,4.0138,4.0036,3.9933,3.9889,3.9889,3.9889,3.9889,3.9889,0.0,0.0,0.0,0.0,0.0,0.0,0.0,4.4047,4.3857,4.5393,4.5586,4.5586,4.5586,4.5715,4.4824,4.2458,4.4335,4.3782,3.9395,4.3344,4.4914,4.2841,4.5019,4.6168,4.5932,4.6175,4.6186,0.0,0.0,3.9039,0.0,3.2092,0.0,0.0,0.0,0.0,0.0,4.0897,4.2987,4.5838,4.6172,4.6308,4.6308,4.6308,4.6308,4.6308,4.6308,4.6308,4.6308,4.6305,4.6307,4.6308,4.6305,4.6301,4.628,4.6228,4.6191,4.6162,4.6057,4.6017,4.5772,4.486,4.3834,4.281,4.2017,4.1044,4.031,4.031,4.031,4.0196,3.9887,3.7307,3.4136,0.0,0.0,0.0,0.0,0.0,0.0,0.0,0.0,0.0,0.0,2.2441,0.0,0.0,0.0,0.0,0.0,0.0,0.0,2.637,0.0,2.8986,3.276,3.2947,0.0,4.1193,3.8159,3.8035,4.0508,4.0489,4.0489,4.0489,4.0489,4.0408,4.0233,4.0138,4.0036,3.9911,3.9911,3.9889,3.9889,3.9889,3.9889,3.9889,0.0,0.0,0.0,0.0,0.0,0.0,0.0,4.4453,4.4959,4.5634,4.5712,4.5712,4.5712,4.5802,4.5467,4.4521,4.541,4.5202,4.3263,4.5063,4.5777,4.4785,4.5738,4.63,4.629,4.6303,4.63,0.0,0.0,0.0,0.0,0.0,0.0,0.0,0.0,3.9821,4.1246,4.3358,4.5057,4.6307,4.6308,4.6308,4.6308,4.6308,4.6308,4.6308,4.6308,4.6308,4.6306,4.6303,4.6303,4.6285,4.6256,4.6245,4.6234,4.6206,4.6138,4.6063,4.6008,4.5859,4.5491,4.46,4.3626,4.2659,4.1778,4.092,4.031,4.031,4.031,4.0291,4.0291,3.9164,3.7158,0.0,0.0,0.0,0.0,0.0,0.0,0.0,0.0,0.0,0.0,0.0,2.3207,0.0,0.0,0.0,0.0,0.0,0.0,2.86,0.0,3.2034,3.7247,3.5841,3.7041,4.0839,3.9567,3.9519,4.0495,4.0508,4.0489,4.0489,4.046,4.0341,4.0196,4.0138,4.0015,3.9889,3.9889,3.9889,3.9889,3.9889,3.9889,3.9889,4.2896,0.0,4.0377,0.0,4.2148,4.288,4.2825,4.4543,4.5557,4.4809,4.5389,4.5879,4.5829,4.5919,4.5682,4.5014,4.5689,4.5545,4.4137,4.5469,4.5955,4.5188,4.5887,0.0,4.63,4.6303,4.6303,4.63,4.1429,0.0,0.0,0.0,0.0,0.0,4.1092,4.2635,4.2791,4.5253,4.6307,4.6307,4.6308,4.6308,4.6308,4.6308,4.6308,4.6308,4.6308,4.6285,4.6278,4.6273,4.6245,4.6218,4.6195,4.6172,4.6138,4.6151,4.6026,4.5902,4.5866,4.551,4.4934,4.4074,4.3139,4.2183,4.1342,4.0711,4.031,4.031,4.031,4.031,4.031,4.031,3.9183,3.5763,0.0,0.0,0.0,0.0,0.0,0.0,0.0,3.0046,3.3394,2.8555,0.0,0.0,0.0,0.0,0.0,0.0,0.0,0.0,0.0,0.0,0.0,3.6246,3.714,4.0325,4.0449,4.0499,4.0499,4.0508,4.0489,4.0489,4.0394,4.0289,4.0196,4.0098,3.9994,3.9889,3.9889,3.9889,3.9889,3.9889,3.9867,3.9758,4.5547,4.5528,4.5558,4.5694,4.5742,4.4931,4.2468,4.4277,4.4995,4.247,4.444,4.6049,4.591,4.6025,4.5055,4.2476,4.4737,4.4121,3.9023,4.3473,4.5149,0.0,0.0,4.63,4.63,4.6309,4.6309,4.63,0.0,0.0,4.1033,0.0,4.0992,4.119,4.4687,4.6249,4.6248,4.6289,4.6308,4.6308,4.6308,4.6308,4.6308,4.6308,4.6307,4.6301,4.6301,4.6256,4.6199,4.6197,4.6105,4.6033,4.615,4.6105,4.5987,4.5998,4.5859,4.5675,4.5541,4.4913,4.407,4.3063,4.2163,4.1304,4.0501,4.031,4.031,4.031,4.031,4.031,4.031,4.031,3.9183,3.5763,0.0,0.0,0.0,0.0,0.0,0.0,2.7299,2.6584,2.995,0.0,0.0,0.0,0.0,0.0,0.0,0.0,0.0,2.6412,2.4098,0.0,3.1546,3.2497,3.5445,4.0398,4.0485,4.0515,4.0489,4.0489,4.0489,4.0489,4.0288,4.0196,4.0196,3.9977,3.9889,3.9889,3.9889,3.9889,3.9889,3.9889,3.9735,3.9508,4.0824,4.3318,4.5201,4.3498,4.4691,4.5603,4.4821,4.5453,4.5757,4.4927,4.5655,4.6214,4.6175,4.6206,4.5902,0.0,4.3613,4.3064,0.0,4.3156,4.3447,4.4987,4.4147,4.364,4.364,4.3642,4.3642,4.364,0.0,0.0,0.0,4.1171,4.2402,4.4687,4.5801,4.6308,4.6308,4.6308,4.6308,4.6308,4.6307,4.6306,4.6305,4.6261,4.6234,4.6231,4.6231,4.6218,4.6192,4.6079,4.6044,4.5978,4.5878,4.5856,4.5852,4.5803,4.5728,4.5607,4.5524,4.4823,4.3886,4.3024,4.2144,4.1285,4.0482,4.031,4.031,4.031,4.031,4.031,4.031,4.031,3.9183,3.5763,3.7158,0.0,0.0,0.0,0.0,0.0,3.0658,2.9931,0.0,3.0581,0.0,0.0,0.0,0.0,0.0,0.0,0.0,0.0,3.2216,0.0,3.7474,3.6155,3.7164,4.0485,4.0495,4.0508,4.0489,4.0489,4.0476,4.0427,4.027,4.0158,4.0118,3.9954,3.9889,3.9889,3.9889,3.9889,3.9889,3.9889,3.9758,3.9551,4.1323,4.3633,4.5362,4.3809,4.489,4.5656,4.4737,4.5495,4.5816,4.4851,4.564,4.6301,4.6307,4.6307,0.0,4.6307,4.4313,4.3976,4.6163,4.4267,4.4013,4.6219,4.4737,4.386,4.386,0.0,0.0,4.386,4.3315,4.3065,4.3125,4.3125,4.4258,4.6308,4.6308,4.6308,4.6308,4.6308,4.6308,4.6308,4.6305,4.6301,4.6282,4.6228,4.6199,4.6191,4.6133,4.6125,4.6103,4.5949,4.5852,4.5783,4.5645,4.5634,4.5654,4.565,4.5594,4.5512,4.5475,4.4538,4.3443,4.2928,4.1915,4.0922,4.0425,4.031,4.031,4.031,4.031,4.031,4.031,4.031,3.9603,3.7464,3.8916,3.9565,3.7426,0.0,0.0,0.0,0.0,0.0,0.0,3.3318,0.0,0.0,0.0,0.0,0.0,0.0,0.0,3.3697,3.4343,0.0,3.8889,3.7456,3.7986,4.0502,4.0492,4.0489,4.0489,4.0457,4.0444,4.0396,4.0234,4.0157,4.0096,3.9973,3.9889,3.9889,3.9889,3.9889,3.9889,3.9823,3.9623,3.9401,4.5405,4.5657,0.0,0.0,4.5988,0.0,4.3014,4.4748,4.5436,4.2995,4.4796,4.6306,4.6308,4.6307,4.6306,4.6301,0.0,0.0,0.0,4.6085,4.6048,4.6282,4.6127,4.603,4.603,4.6032,4.611,4.6303,4.6303,4.6306,4.6308,4.6307,4.6308,4.6308,4.6308,4.6308,4.6308,4.6308,4.6308,4.6308,4.6285,4.628,4.6297,4.6225,4.6186,4.617,4.6041,4.5998,4.5956,4.5744,4.5584,4.549,4.5491,4.5456,4.5419,4.5545,4.5495,4.5399,4.5398,4.4133,4.2794,4.2794,4.1552,4.031,4.031,4.031,4.031,4.031,4.031,4.031,4.031,4.031,4.031,4.031,4.031,4.0234,3.9986,0.0,0.0,0.0,0.0,0.0,0.0,3.542,3.5458,0.0,0.0,0.0,0.0,0.0,2.7791,3.1972,3.2106,3.3647,3.6834,3.6919,3.8159,4.0502,4.0492,4.0489,4.0489,4.0427,4.0377,4.0379,4.0177,4.0077,4.0096,3.9954,3.9889,3.9889,3.9889,3.9889,3.9848,3.9647,3.9401,3.9156,0.0,0.0,4.546,4.352,4.488,4.6058,4.5467,4.5905,4.6088,4.5468,4.5918,4.6308,4.6305,4.6303,4.6303,4.6301,4.3876,4.3464,4.6124,4.3863,4.3572,4.6189,4.4393,4.332,4.332,4.332,4.4297,4.6308,4.6308,4.6308,4.6308,4.6308,4.6308,4.6308,4.6308,4.6308,4.6308,4.6308,4.6308,4.6303,4.6234,4.6222,4.6221,4.6215,4.6142,4.6036,4.6008,4.5894,4.575,4.5603,4.5524,4.5491,4.5381,4.5361,4.54,4.5438,4.5419,4.54,4.5399,4.4133,4.2794,4.2794,4.1552,4.031,4.031,4.031,4.031,4.031,4.031,4.031,4.031,4.031,4.031,4.031,4.031,3.9393,3.6776,3.5706,0.0,0.0,3.2936,3.4331,3.5133,3.7559,3.8018,0.0,0.0,0.0,0.0,3.3716,3.4483,3.8094,3.8209,3.8644,3.9478,3.9514,3.9852,4.0492,4.0489,4.0489,4.0489,4.0427,4.0342,4.0233,4.0138,4.0036,3.9933,3.9911,3.9889,3.9889,3.9735,3.967,3.9665,3.9452,3.9219,3.9045,4.229,4.428,4.5763,4.4376,4.5324,4.629,4.63,4.6305,4.6307,4.6308,4.6308,4.6306,4.6305,4.6305,4.6305,4.6307,4.4566,4.4272,4.6187,4.4569,4.4355,4.621,4.4941,4.418,4.418,4.418,4.4883,4.6308,4.6308,4.6308,4.6308,4.6308,4.6308,4.6308,4.6308,4.6308,4.6308,4.6308,4.6308,4.6286,4.6231,4.6195,4.6197,4.6123,4.6047,4.5986,4.5829,4.5694,4.5587,4.5455,4.5419,4.54,4.536,4.538,4.54,4.5438,4.5458,4.5457,4.5419,4.4135,4.2623,4.1839,4.0979,4.031,4.031,4.031,4.031,4.031,4.031,4.031,4.031,4.031,4.031,4.031,3.8992,3.733,3.5458,3.3891,0.0,3.2516,3.4101,3.5821,3.7387,3.9221,3.9546,3.771,0.0,0.0,3.75,3.6069,3.6776,4.0196,4.031,4.0328,4.0362,4.0415,4.0463,4.0489,4.0489,4.0473,4.046,4.036,4.0252,4.0158,4.0038,3.9973,3.9889,3.9758,3.9735,3.9735,3.9502,3.9427,3.9452,3.9245,3.9082,3.8989,4.63,4.6303,4.6309,4.63,4.6297,4.63,4.6306,4.6308,4.6308,4.6308,4.6307,4.6306,4.6307,4.6307,4.6307,4.6308,4.6308,4.6307,4.6307,4.6308,4.6308,4.6308,4.6308,4.6308,4.6308,4.6308,4.6308,4.6308,4.6308,4.6308,4.6308,4.6308,4.6308,4.6308,4.6308,4.6308,4.6308,4.6308,4.6289,4.6287,4.6212,4.6191,4.6153,4.6046,4.5975,4.5898,4.5607,4.5491,4.5437,4.5339,4.5297,4.5317,4.5378,4.54,4.5419,4.5476,4.5495,4.5495,4.5438,4.4154,4.2393,4.0711,4.031,4.031,4.031,4.031,4.031,4.031,4.031,4.031,4.031,4.031,4.0138,3.9623,3.7101,3.5018,3.4522,0.0,3.2,3.4866,3.5668,3.712,4.0024,4.031,4.031,4.031,3.7617,3.7234,0.0,3.754,3.7292,4.0196,4.0291,4.0309,4.0325,4.043,4.0495,4.0489,4.0489,4.046,4.0396,4.0252,4.0158,4.0077,3.9911,3.9845,3.9826,3.9575,3.9502,3.9526,3.929,3.9192,3.9219,3.9017,3.896,3.895,4.63,4.6293,4.6297,4.6295,4.6301,4.6306,4.6307,4.6308,4.6307,4.6307,4.6301,4.63,4.6307,4.6307,4.6307,4.6308,4.6308,4.6308,4.6308,4.6308,4.6308,4.6308,4.6308,4.6308,4.6308,4.6308,4.6308,4.6308,4.6308,4.6308,4.6308,4.6308,4.6308,4.6308,4.6308,4.6308,4.6303,4.6303,4.6273,4.6206,4.6197,4.6125,4.6027,4.6017,4.5829,4.5574,4.5507,4.5419,4.5339,4.5317,4.5297,4.5297,4.5317,4.5341,4.54,4.5419,4.5495,4.5568,4.5495,4.4173,4.2393,4.0711,4.031,4.031,4.031,4.031,4.031,4.031,4.031,4.031,4.031,4.031,3.9355,3.647,3.5553,3.4216,3.1369,0.0,3.4617,3.5152,3.775,3.9718,4.0253,4.031,4.031,4.031,3.9812,3.9735,4.0272,3.9793,3.9734,4.027,4.0289,4.0362,4.0466,4.0495,4.0508,4.0489,4.0444,4.0413,4.0377,4.0215,4.0098,4.0077,3.9717,3.9599,3.9642,3.9369,3.929,3.9324,3.911,3.9045,3.9017,3.8822,3.875,3.875,4.63,4.6293,4.6301,4.6301,4.6307,4.6308,4.6308,4.6308,4.6307,4.6307,4.6305,4.6303,4.6307,4.6307,4.6308,4.6308,4.6308,4.6308,4.6308,4.6308,4.6308,4.6308,4.6308,4.6308,4.6308,4.6308,4.6308,4.6308,4.6308,4.6308,4.6308,4.6308,4.6308,4.6308,4.6307,4.6305,4.6301,4.6256,4.6225,4.6206,4.6192,4.6118,4.5998,4.5883,4.5694,4.5491,4.5419,4.5341,4.5297,4.5297,4.5297,4.5317,4.5338,4.538,4.5419,4.5438,4.5495,4.5339,4.4418,4.3483,4.2412,4.0711,4.031,4.031,4.031,4.031,4.031,4.031,4.031,4.031,4.031,4.031,3.9794,3.8209,3.6413,0.0,0.0,3.4216,3.5209,3.5209,3.8228,4.031,4.031,4.031,4.031,4.031,4.029,4.0289,4.029,4.0326,4.0362,4.0362,4.0362,4.0396,4.0502,4.0447,4.0408,4.0444,4.0342,4.0271,4.0234,4.0138,3.9975,3.9781,3.9575,3.9452,3.935,3.9064,3.9008,3.911,3.8826,3.8755,3.8822,3.8719,3.8707,3.8707,4.6303,4.6297,4.6305,4.6307,4.6308,4.6308,4.6307,4.6307,4.6307,4.6307,4.6307,4.6307,4.6307,4.6308,4.6308,4.6308,4.6308,4.6308,4.6308,4.6308,4.6308,4.6308,4.6308,4.6308,4.6308,4.6308,4.6308,4.6308,4.6308,4.6308,4.6308,4.6308,4.6308,4.6308,4.6306,4.6282,4.6273,4.6225,4.6199,4.6206,4.617,4.6049,4.591,4.5711,4.5571,4.5438,4.5339,4.5297,4.5297,4.5297,4.5297,4.5317,4.5378,4.54,4.5419,4.5457,4.5476,4.5111,4.344,4.2907,4.245,4.0747,4.0309,4.0291,4.031,4.031,4.031,4.031,4.031,4.031,4.031,4.031,4.0043,3.924,0.0,0.0,0.0,3.5209,3.5496,3.6298,3.8706,4.031,4.031,4.0291,4.031,4.031,4.0326,4.0342,4.0325,4.0379,4.0432,4.0432,4.0432,4.0432,4.0485,4.036,4.0342,4.0342,4.0215,4.0138,4.0096,4.0057,3.9889,3.9599,3.9526,3.9401,3.921,3.8865,3.8826,3.8902,3.8652,3.8609,3.8707,3.8707,3.8707,3.8707,4.6293,4.6305,4.6308,4.6307,4.6308,4.6307,4.6308,4.6308,4.6307,4.6308,4.6308,4.6307,4.6308,4.6308,4.6308,4.6308,4.6308,4.6308,4.6308,4.6308,4.6308,4.6308,4.6308,4.6308,4.6308,4.6308,4.6308,4.6308,4.6308,4.6308,4.6308,4.6308,4.6307,4.6303,4.6307,4.6261,4.6216,4.6195,4.6197,4.6183,4.6056,4.5894,4.5717,4.5571,4.5438,4.5298,4.5317,4.5297,4.5297,4.5297,4.5297,4.5317,4.5378,4.54,4.54,4.54,4.5419,4.5055,4.3367,4.2944,4.2541,4.0749,4.0309,4.0308,4.0291,4.031,4.031,4.031,4.031,4.031,4.031,4.031,3.926,3.6088,0.0,0.0,3.5209,3.5209,3.6375,3.9565,4.0157,4.031,4.031,4.029,4.0307,4.0307,4.0432,4.0449,4.0398,4.0449,4.0502,4.0502,4.0502,4.0466,4.0413,4.0396,4.0325,4.0215,4.0138,4.0098,4.0096,3.9954,3.9889,3.9867,3.9599,3.9427,3.9272,3.8989,3.8822,3.8738,3.8689,3.8707,3.8707,3.8707,3.8707,3.8707,4.63,4.6307,4.6308,4.6308,4.6308,4.6307,4.6307,4.6308,4.6308,4.6308,4.6308,4.6308,4.6308,4.6308,4.6308,4.6308,4.6308,4.6308,4.6308,4.6308,4.6308,4.6308,4.6308,4.6308,4.6308,4.6308,4.6308,4.6308,4.6308,4.6308,4.6308,4.6308,4.6308,4.6307,4.6307,4.6258,4.6191,4.6206,4.6157,4.6075,4.6017,4.5822,4.5571,4.5524,4.5419,4.5297,4.5297,4.5297,4.5297,4.5297,4.5297,4.5317,4.5378,4.54,4.5419,4.5438,4.5438,4.5036,4.3292,4.287,4.2468,4.0784,4.0327,4.0291,4.029,4.031,4.031,4.031,4.031,4.031,4.031,4.031,3.9871,3.8572,0.0,3.8362,3.8362,3.8362,3.8839,4.0157,4.031,4.031,4.031,4.031,4.029,4.0307,4.0379,4.0449,4.0449,4.0479,4.0479,4.0449,4.0449,4.0413,4.0413,4.029,4.0196,4.0138,4.0036,3.9994,3.9954,3.9911,3.9826,3.9712,3.9599,3.9458,3.9294,3.9208,3.9173,3.9192,3.9192,3.9101,3.895,3.895,3.8851,3.8707,4.6303,4.6308,4.6308,4.6308,4.6308,4.6307,4.6307,4.6308,4.6308,4.6308,4.6308,4.6308,4.6308,4.6308,4.6308,4.6308,4.6308,4.6308,4.6308,4.6308,4.6308,4.6308,4.6308,4.6308,4.6308,4.6308,4.6308,4.6308,4.6308,4.6308,4.6308,4.6308,4.6288,4.6262,4.6278,4.6225,4.6167,4.6118,4.6052,4.5997,4.5898,4.5699,4.5509,4.5437,4.5381,4.5297,4.5297,4.5297,4.5297,4.5297,4.5317,4.5338,4.5399,4.54,4.54,4.5477,4.5419,4.5035,4.3579,4.2986,4.2412,4.0784,4.0327,4.0291,4.029,4.0291,4.031,4.031,4.031,4.031,4.031,4.031,4.031,4.031,4.031,4.031,4.031,4.031,4.031,4.031,4.031,4.031,4.031,4.0291,4.0309,4.0325,4.0379,4.0449,4.0499,4.0476,4.0444,4.0413,4.0344,4.0308,4.0308,4.0157,4.0077,4.0036,3.9933,3.9889,3.9889,3.9911,3.9867,3.9735,3.9758,3.9628,3.947,3.947,3.9464,3.9483,3.9427,3.9272,3.9101,3.9007,3.8851,3.8707,4.6307,4.6308,4.6307,4.6308,4.6308,4.6307,4.6307,4.6308,4.6308,4.6307,4.6308,4.6308,4.6308,4.6308,4.6308,4.6308,4.6308,4.6308,4.6308,4.6308,4.6308,4.6308,4.6308,4.6308,4.6308,4.6308,4.6308,4.6308,4.6308,4.6308,4.6308,4.6308,4.6262,4.6211,4.6195,4.6162,4.6093,4.5969,4.5938,4.5975,4.5638,4.549,4.5472,4.5341,4.5297,4.5297,4.5297,4.5297,4.5297,4.5297,4.5338,4.5399,4.54,4.54,4.54,4.5399,4.5338,4.5105,4.4246,4.3424,4.2393,4.0731,4.0309,4.0289,4.0291,4.031,4.031,4.031,4.031,4.031,4.031,4.031,4.031,4.031,4.031,4.031,4.031,4.031,4.031,4.031,4.031,4.031,4.031,4.029,4.0325,4.0398,4.0449,4.0499,4.0489,4.0427,4.0413,4.0396,4.0196,4.0117,4.0096,4.0096,4.0036,3.9889,3.9889,3.9889,3.9911,3.9975,3.9996,3.9996,4.0057,3.9975,3.9804,3.9804,3.967,3.9458,3.9192,3.9101,3.9073,3.881,3.8707,3.8707,4.6308,4.6308,4.6308,4.6306,4.6306,4.6306,4.63,4.6303,4.6306,4.6307,4.6307,4.6308,4.6308,4.6308,4.6308,4.6308,4.6308,4.6308,4.6308,4.6308,4.6308,4.6308,4.6308,4.6308,4.6308,4.6308,4.6308,4.6308,4.6308,4.6308,4.6308,4.6308,4.6288,4.6264,4.6267,4.6228,4.6157,4.6025,4.591,4.5766,4.5577,4.5437,4.5361,4.5338,4.5297,4.5297,4.5297,4.5297,4.5297,4.5297,4.5317,4.5338,4.5399,4.54,4.54,4.5399,4.5338,4.5105,4.4246,4.3424,4.2526,4.1475,4.0749,4.0291,4.029,4.0291,4.031,4.031,4.031,4.031,4.031,4.031,4.031,4.031,4.031,4.031,4.031,4.031,4.031,4.031,4.031,4.0291,4.029,4.0289,4.0362,4.0449,4.0479,4.0476,4.0427,4.0394,4.0344,4.0196,4.0118,4.0057,3.9954,3.9954,3.9933,3.9889,3.9889,3.9889,3.9889,3.9735,3.9693,3.9762,3.9623,3.9551,3.9599,3.9599,3.9532,3.9483,3.9427,3.9272,3.9101,3.8989,3.8851,3.8707,4.623,4.6308,4.6308,4.6307,4.6307,4.6306,4.6297,4.6303,4.6306,4.6306,4.6307,4.6308,4.6308,4.6308,4.6308,4.6308,4.6308,4.6308,4.6308,4.6308,4.6308,4.6308,4.6308,4.6308,4.6308,4.6308,4.6308,4.6308,4.6308,4.6308,4.6308,4.6308,4.6289,4.6265,4.6237,4.6167,4.6064,4.5901,4.5757,4.5596,4.5475,4.5361,4.5297,4.5297,4.5297,4.5297,4.5297,4.5317,4.5338,4.5317,4.5317,4.5338,4.5398,4.5399,4.538,4.5379,4.5338,4.5182,4.4666,4.3921,4.308,4.2279,4.1189,4.0291,4.0309,4.031,4.031,4.031,4.031,4.031,4.031,4.031,4.031,4.031,4.031,4.031,4.031,4.031,4.031,4.031,4.031,4.031,4.0307,4.0307,4.0362,4.0502,4.0479,4.0444,4.0413,4.0307,4.0234,4.0098,4.0036,3.9994,3.9889,3.9889,3.9889,3.9889,3.9889,3.9889,3.9889,3.967,3.9623,3.9693,3.9458,3.9427,3.9502,3.9502,3.9502,3.9502,3.9401,3.9245,3.9101,3.8979,3.8851,3.8707,4.6016,4.6171,4.621,4.6289,4.6308,4.6306,4.6301,4.6307,4.6308,4.6303,4.6307,4.6308,4.6308,4.6308,4.6308,4.6308,4.6308,4.6308,4.6308,4.6308,4.6308,4.6308,4.6308,4.6308,4.6308,4.6308,4.6308,4.6308,4.6308,4.6308,4.6308,4.6308,4.6265,4.6202,4.6137,4.6021,4.5908,4.5708,4.5582,4.5491,4.5361,4.5317,4.5297,4.5297,4.5297,4.5297,4.5297,4.5338,4.5379,4.5317,4.5338,4.5399,4.5379,4.5398,4.5398,4.5317,4.5297,4.5297,4.5317,4.4666,4.3806,4.3004,4.159,4.0406,4.0329,4.031,4.031,4.031,4.031,4.031,4.031,4.031,4.031,4.031,4.031,4.031,4.031,4.031,4.031,4.0291,4.0291,4.0291,4.0307,4.0325,4.036,4.0482,4.043,4.0377,4.0377,4.0196,4.0077,4.0077,3.9954,3.9889,3.9889,3.9889,3.9911,3.9911,3.9911,3.9889,3.9889,3.9717,3.9647,3.9647,3.9483,3.9408,3.9427,3.9427,3.9427,3.9383,3.9156,3.9073,3.9017,3.881,3.8707,3.8707,4.5117,4.5273,4.5508,4.6171,4.6307,4.6306,4.6301,4.6303,4.6305,4.6306,4.6307,4.6308,4.6308,4.6308,4.6308,4.6308,4.6308,4.6308,4.6308,4.6308,4.6308,4.6308,4.6308,4.6308,4.6308,4.6308,4.6308,4.6308,4.6308,4.6308,4.6308,4.6308,4.6265,4.6202,4.6175,4.6092,4.5977,4.5815,4.5684,4.5566,4.5419,4.5341,4.5297,4.5297,4.5297,4.5297,4.5297,4.5317,4.5317,4.5297,4.5339,4.54,4.5338,4.5359,4.5398,4.5317,4.5297,4.5317,4.5359,4.4746,4.3866,4.3006,4.2049,4.115,4.0463,4.031,4.031,4.031,4.031,4.031,4.031,4.031,4.031,4.031,4.031,4.031,4.031,4.031,4.0291,4.0308,4.0308,4.0344,4.0449,4.0444,4.0457,4.0492,4.0427,4.0342,4.0252,4.0138,4.0057,3.9951,3.9911,3.9889,3.9889,3.9889,3.9933,3.9975,3.9933,3.9826,3.9739,3.9452,3.9245,3.9137,3.8836,3.8785,3.8881,3.8881,3.8881,3.8881,3.881,3.878,3.878,3.8719,3.8707,3.8707,4.4219,4.4375,4.4648,4.5527,4.5683,4.5819,4.6246,4.6306,4.6307,4.6307,4.6307,4.6308,4.6308,4.6308,4.6308,4.6308,4.6308,4.6308,4.6308,4.6308,4.6308,4.6308,4.6308,4.6308,4.6308,4.6308,4.6308,4.6308,4.6308,4.6308,4.6308,4.6267,4.6237,4.6202,4.6131,4.6024,4.5894,4.5796,4.5658,4.5495,4.5419,4.5361,4.5297,4.5297,4.5297,4.5297,4.5297,4.5317,4.5359,4.538,4.54,4.54,4.5359,4.5338,4.5338,4.5317,4.5297,4.5317,4.5338,4.5033,4.4518,4.3637,4.2814,4.1896,4.0578,4.031,4.031,4.031,4.031,4.031,4.031,4.031,4.0291,4.0291,4.0309,4.0309,4.0327,4.0346,4.0345,4.0344,4.0362,4.0362,4.0396,4.046,4.0457,4.0356,4.0323,4.0271,4.0158,4.0077,3.9954,3.9911,3.9889,3.9845,3.9712,3.9712,3.9651,3.9566,3.9785,3.9804,3.9647,3.9376,3.9156,3.8989,3.8713,3.8658,3.8707,3.8707,3.8707,3.8707,3.8707,3.8707,3.8707,3.8707,3.8707,3.8707,4.3301,4.3476,4.375,4.4629,4.4785,4.5019,4.5741,4.5976,4.6074,4.6073,4.6211,4.6308,4.6308,4.6308,4.6308,4.6308,4.6308,4.6308,4.6308,4.6308,4.6308,4.6308,4.6308,4.6308,4.6308,4.6308,4.6308,4.6308,4.6308,4.6289,4.6288,4.6234,4.6195,4.6158,4.6054,4.5925,4.5803,4.5737,4.5616,4.5457,4.5438,4.538,4.5338,4.5298,4.5317,4.5317,4.5317,4.5359,4.5419,4.5457,4.5458,4.5438,4.5399,4.5359,4.5317,4.5297,4.5317,4.5317,4.5338,4.5379,4.5208,4.4346,4.3618,4.2661,4.0921,4.0406,4.0291,4.0291,4.031,4.0329,4.0329,4.0329,4.0328,4.0307,4.0325,4.0344,4.0379,4.0398,4.0398,4.0379,4.0379,4.0379,4.0325,4.0427,4.0408,4.0215,4.0196,4.0158,4.0098,3.9954,3.9889,3.9889,3.9889,3.9781,3.9483,3.9502,3.9364,3.9099,3.9556,3.9689,3.9483,3.9324,3.9137,3.8931,3.878,3.8707,3.8707,3.8707,3.8707,3.8707,3.8707,3.8707,3.8707,3.8707,3.8707,3.8707,4.2401,4.2576,4.2851,4.3711,4.3887,4.3926,4.4023,4.4687,4.5176,4.5176,4.582,4.6308,4.6308,4.6308,4.6308,4.6308,4.6308,4.6308,4.6308,4.6308,4.6308,4.6308,4.6308,4.6308,4.6308,4.6308,4.6308,4.6308,4.6308,4.6267,4.6209,4.6206,4.6137,4.6027,4.6017,4.5941,4.5794,4.58,4.5742,4.5648,4.5603,4.5495,4.5381,4.5319,4.5338,4.5398,4.5398,4.5438,4.5476,4.5419,4.5457,4.5477,4.5419,4.5379,4.5378,4.5317,4.5338,4.5379,4.54,4.5438,4.5284,4.4478,4.4153,4.3579,4.1837,4.0843,4.0289,4.0289,4.0344,4.0381,4.0381,4.0381,4.0398,4.0398,4.0398,4.0379,4.0398,4.0398,4.0379,4.0325,4.036,4.0396,4.0396,4.0394,4.036,4.0215,4.0138,4.0098,4.0117,3.9954,3.9889,3.9889,3.9889,3.9781,3.9483,3.9502,3.9338,3.9008,3.92,3.9173,3.898,3.9036,3.895,3.8719,3.8707,3.8707,3.8707,3.8707,3.8707,3.8707,3.8707,3.8707,3.8707,3.8707,3.8707,3.8707,4.1599,4.1678,4.1952,4.2812,4.2969,4.3144,4.3633,4.4023,4.4277,4.4277,4.5039,4.5566,4.5566,4.6016,4.6308,4.6308,4.6308,4.6308,4.6308,4.6308,4.6308,4.6308,4.6308,4.6308,4.6308,4.6308,4.6288,4.6241,4.6241,4.6237,4.6202,4.6125,4.6063,4.5997,4.591,4.5867,4.58,4.58,4.5757,4.57,4.5668,4.5547,4.54,4.54,4.5419,4.5418,4.54,4.5419,4.5457,4.5438,4.5476,4.5495,4.5477,4.5438,4.54,4.5359,4.5379,4.54,4.54,4.5438,4.5418,4.4997,4.4556,4.3982,4.3178,4.2335,4.1473,4.0498,4.0325,4.0362,4.0379,4.0398,4.0415,4.0449,4.0468,4.0466,4.0463,4.046,4.0427,4.036,4.0325,4.0271,4.0234,4.0271,4.0215,4.0039,4.0058,4.0057,3.9994,3.9933,3.9889,3.9889,3.9889,3.9781,3.9483,3.9502,3.9287,3.8828,3.897,3.8989,3.8913,3.897,3.8892,3.8707,3.8707,3.8707,3.8707,3.8707,3.8707,3.8707,3.8707,3.8707,3.8707,3.8707,3.8707,3.8707]}]]